<?xml version="1.0" encoding="UTF-8" standalone="no" ?>
<gpx xmlns="http://www.topografix.com/GPX/1/1" xmlns:xsi="http://www.w3.org/2001/XMLSchema-instance" xsi:schemaLocation="http://www.topografix.com/GPX/1/1 http://www.topografix.com/GPX/1/1/gpx.xsd" version="1.1" creator="VisuGPX - https://www.visugpx.com">
  <metadata>
    <name>Ecotrail de Clairvaux-les-lacs</name>
    <desc><![CDATA[Sport Evasion Centre Alsace]]></desc>
  </metadata>
  <trk>
    <name><![CDATA[Ecotrail Clairvaux les lacs]]></name>
    <trkseg>
      <trkpt lat="46.56345" lon="5.75671">
        <ele>538</ele>
        <time>2013-04-28T07:33:53.000Z</time>
      </trkpt>
      <trkpt lat="46.56337" lon="5.75678">
        <ele>538.40002441406</ele>
        <time>2013-04-28T07:33:58.000Z</time>
      </trkpt>
      <trkpt lat="46.56322" lon="5.75689">
        <ele>539</ele>
        <time>2013-04-28T07:34:04.000Z</time>
      </trkpt>
      <trkpt lat="46.56305" lon="5.75703">
        <ele>540</ele>
        <time>2013-04-28T07:34:11.000Z</time>
      </trkpt>
      <trkpt lat="46.56286" lon="5.75713">
        <ele>540.79998779297</ele>
        <time>2013-04-28T07:34:18.000Z</time>
      </trkpt>
      <trkpt lat="46.56269" lon="5.75717">
        <ele>541</ele>
        <time>2013-04-28T07:34:24.000Z</time>
      </trkpt>
      <trkpt lat="46.56256" lon="5.75717">
        <ele>541.20001220703</ele>
        <time>2013-04-28T07:34:29.000Z</time>
      </trkpt>
      <trkpt lat="46.5624" lon="5.75713">
        <ele>541.40002441406</ele>
        <time>2013-04-28T07:34:35.000Z</time>
      </trkpt>
      <trkpt lat="46.56229" lon="5.75709">
        <ele>541.59997558594</ele>
        <time>2013-04-28T07:34:40.000Z</time>
      </trkpt>
      <trkpt lat="46.56215" lon="5.75703">
        <ele>541.59997558594</ele>
        <time>2013-04-28T07:34:45.000Z</time>
      </trkpt>
      <trkpt lat="46.56197" lon="5.75695">
        <ele>541.79998779297</ele>
        <time>2013-04-28T07:34:52.000Z</time>
      </trkpt>
      <trkpt lat="46.56181" lon="5.75691">
        <ele>542</ele>
        <time>2013-04-28T07:34:58.000Z</time>
      </trkpt>
      <trkpt lat="46.56163" lon="5.75688">
        <ele>542.20001220703</ele>
        <time>2013-04-28T07:35:04.000Z</time>
      </trkpt>
      <trkpt lat="46.56145" lon="5.75683">
        <ele>542.40002441406</ele>
        <time>2013-04-28T07:35:11.000Z</time>
      </trkpt>
      <trkpt lat="46.5613" lon="5.75681">
        <ele>542.59997558594</ele>
        <time>2013-04-28T07:35:17.000Z</time>
      </trkpt>
      <trkpt lat="46.56113" lon="5.7568">
        <ele>542.59997558594</ele>
        <time>2013-04-28T07:35:23.000Z</time>
      </trkpt>
      <trkpt lat="46.56097" lon="5.75681">
        <ele>543.20001220703</ele>
        <time>2013-04-28T07:35:29.000Z</time>
      </trkpt>
      <trkpt lat="46.56082" lon="5.75683">
        <ele>543.79998779297</ele>
        <time>2013-04-28T07:35:35.000Z</time>
      </trkpt>
      <trkpt lat="46.5607" lon="5.75683">
        <ele>544</ele>
        <time>2013-04-28T07:35:40.000Z</time>
      </trkpt>
      <trkpt lat="46.56057" lon="5.75684">
        <ele>544.20001220703</ele>
        <time>2013-04-28T07:35:45.000Z</time>
      </trkpt>
      <trkpt lat="46.56055" lon="5.75682">
        <ele>544</ele>
        <time>2013-04-28T07:35:46.000Z</time>
      </trkpt>
      <trkpt lat="46.56047" lon="5.75681">
        <ele>543.79998779297</ele>
        <time>2013-04-28T07:35:49.000Z</time>
      </trkpt>
      <trkpt lat="46.56032" lon="5.75679">
        <ele>543.59997558594</ele>
        <time>2013-04-28T07:35:54.000Z</time>
      </trkpt>
      <trkpt lat="46.56019" lon="5.75677">
        <ele>543</ele>
        <time>2013-04-28T07:35:59.000Z</time>
      </trkpt>
      <trkpt lat="46.56003" lon="5.75676">
        <ele>542.59997558594</ele>
        <time>2013-04-28T07:36:05.000Z</time>
      </trkpt>
      <trkpt lat="46.55991" lon="5.75678">
        <ele>543.20001220703</ele>
        <time>2013-04-28T07:36:09.000Z</time>
      </trkpt>
      <trkpt lat="46.5598" lon="5.7568">
        <ele>544</ele>
        <time>2013-04-28T07:36:13.000Z</time>
      </trkpt>
      <trkpt lat="46.55966" lon="5.75681">
        <ele>544</ele>
        <time>2013-04-28T07:36:18.000Z</time>
      </trkpt>
      <trkpt lat="46.55954" lon="5.75678">
        <ele>543.20001220703</ele>
        <time>2013-04-28T07:36:23.000Z</time>
      </trkpt>
      <trkpt lat="46.5594" lon="5.75676">
        <ele>542.59997558594</ele>
        <time>2013-04-28T07:36:29.000Z</time>
      </trkpt>
      <trkpt lat="46.55927" lon="5.75677">
        <ele>543</ele>
        <time>2013-04-28T07:36:34.000Z</time>
      </trkpt>
      <trkpt lat="46.55915" lon="5.75677">
        <ele>542.79998779297</ele>
        <time>2013-04-28T07:36:38.000Z</time>
      </trkpt>
      <trkpt lat="46.559" lon="5.75676">
        <ele>543.59997558594</ele>
        <time>2013-04-28T07:36:44.000Z</time>
      </trkpt>
      <trkpt lat="46.55884" lon="5.75674">
        <ele>544.20001220703</ele>
        <time>2013-04-28T07:36:50.000Z</time>
      </trkpt>
      <trkpt lat="46.55872" lon="5.75664">
        <ele>542.79998779297</ele>
        <time>2013-04-28T07:36:55.000Z</time>
      </trkpt>
      <trkpt lat="46.55866" lon="5.75661">
        <ele>542.79998779297</ele>
        <time>2013-04-28T07:36:59.000Z</time>
      </trkpt>
      <trkpt lat="46.55864" lon="5.7566">
        <ele>542.79998779297</ele>
        <time>2013-04-28T07:37:02.000Z</time>
      </trkpt>
      <trkpt lat="46.55861" lon="5.7566">
        <ele>543</ele>
        <time>2013-04-28T07:37:04.000Z</time>
      </trkpt>
      <trkpt lat="46.55859" lon="5.75658">
        <ele>542.79998779297</ele>
        <time>2013-04-28T07:37:05.000Z</time>
      </trkpt>
      <trkpt lat="46.55851" lon="5.75651">
        <ele>542.59997558594</ele>
        <time>2013-04-28T07:37:09.000Z</time>
      </trkpt>
      <trkpt lat="46.55841" lon="5.75641">
        <ele>542</ele>
        <time>2013-04-28T07:37:14.000Z</time>
      </trkpt>
      <trkpt lat="46.5583" lon="5.75624">
        <ele>540.20001220703</ele>
        <time>2013-04-28T07:37:20.000Z</time>
      </trkpt>
      <trkpt lat="46.55828" lon="5.75605">
        <ele>537.59997558594</ele>
        <time>2013-04-28T07:37:25.000Z</time>
      </trkpt>
      <trkpt lat="46.55826" lon="5.75583">
        <ele>534.59997558594</ele>
        <time>2013-04-28T07:37:30.000Z</time>
      </trkpt>
      <trkpt lat="46.55827" lon="5.7556">
        <ele>533.40002441406</ele>
        <time>2013-04-28T07:37:35.000Z</time>
      </trkpt>
      <trkpt lat="46.55829" lon="5.75536">
        <ele>532</ele>
        <time>2013-04-28T07:37:41.000Z</time>
      </trkpt>
      <trkpt lat="46.55832" lon="5.7552">
        <ele>531</ele>
        <time>2013-04-28T07:37:45.000Z</time>
      </trkpt>
      <trkpt lat="46.55834" lon="5.75498">
        <ele>529.79998779297</ele>
        <time>2013-04-28T07:37:51.000Z</time>
      </trkpt>
      <trkpt lat="46.55835" lon="5.75494">
        <ele>529.59997558594</ele>
        <time>2013-04-28T07:37:55.000Z</time>
      </trkpt>
      <trkpt lat="46.55835" lon="5.75494">
        <ele>529.59997558594</ele>
        <time>2013-04-28T07:37:56.000Z</time>
      </trkpt>
      <trkpt lat="46.55835" lon="5.75494">
        <ele>529.59997558594</ele>
        <time>2013-04-28T07:37:57.000Z</time>
      </trkpt>
      <trkpt lat="46.55836" lon="5.75492">
        <ele>529.40002441406</ele>
        <time>2013-04-28T07:38:00.000Z</time>
      </trkpt>
      <trkpt lat="46.55854" lon="5.75454">
        <ele>527.20001220703</ele>
        <time>2013-04-28T07:39:23.000Z</time>
      </trkpt>
      <trkpt lat="46.55857" lon="5.75439">
        <ele>526.40002441406</ele>
        <time>2013-04-28T07:39:27.000Z</time>
      </trkpt>
      <trkpt lat="46.55859" lon="5.75431">
        <ele>526.20001220703</ele>
        <time>2013-04-28T07:39:29.000Z</time>
      </trkpt>
      <trkpt lat="46.55862" lon="5.75422">
        <ele>525.79998779297</ele>
        <time>2013-04-28T07:39:32.000Z</time>
      </trkpt>
      <trkpt lat="46.55865" lon="5.75417">
        <ele>525.59997558594</ele>
        <time>2013-04-28T07:39:34.000Z</time>
      </trkpt>
      <trkpt lat="46.55868" lon="5.75414">
        <ele>525.40002441406</ele>
        <time>2013-04-28T07:39:36.000Z</time>
      </trkpt>
      <trkpt lat="46.55879" lon="5.75404">
        <ele>525.40002441406</ele>
        <time>2013-04-28T07:39:41.000Z</time>
      </trkpt>
      <trkpt lat="46.55881" lon="5.75399">
        <ele>525.40002441406</ele>
        <time>2013-04-28T07:39:43.000Z</time>
      </trkpt>
      <trkpt lat="46.55881" lon="5.75393">
        <ele>525.40002441406</ele>
        <time>2013-04-28T07:39:45.000Z</time>
      </trkpt>
      <trkpt lat="46.55889" lon="5.75388">
        <ele>525.40002441406</ele>
        <time>2013-04-28T07:39:48.000Z</time>
      </trkpt>
      <trkpt lat="46.55898" lon="5.75375">
        <ele>525.59997558594</ele>
        <time>2013-04-28T07:39:53.000Z</time>
      </trkpt>
      <trkpt lat="46.55904" lon="5.75362">
        <ele>525.59997558594</ele>
        <time>2013-04-28T07:39:57.000Z</time>
      </trkpt>
      <trkpt lat="46.55908" lon="5.75355">
        <ele>525.59997558594</ele>
        <time>2013-04-28T07:39:59.000Z</time>
      </trkpt>
      <trkpt lat="46.5591" lon="5.75353">
        <ele>525.59997558594</ele>
        <time>2013-04-28T07:40:00.000Z</time>
      </trkpt>
      <trkpt lat="46.55919" lon="5.75332">
        <ele>526</ele>
        <time>2013-04-28T07:40:06.000Z</time>
      </trkpt>
      <trkpt lat="46.55914" lon="5.75318">
        <ele>526</ele>
        <time>2013-04-28T07:40:10.000Z</time>
      </trkpt>
      <trkpt lat="46.55899" lon="5.75314">
        <ele>526</ele>
        <time>2013-04-28T07:40:15.000Z</time>
      </trkpt>
      <trkpt lat="46.55881" lon="5.75309">
        <ele>526</ele>
        <time>2013-04-28T07:40:21.000Z</time>
      </trkpt>
      <trkpt lat="46.55862" lon="5.75307">
        <ele>526</ele>
        <time>2013-04-28T07:40:28.000Z</time>
      </trkpt>
      <trkpt lat="46.55846" lon="5.75302">
        <ele>526</ele>
        <time>2013-04-28T07:40:34.000Z</time>
      </trkpt>
      <trkpt lat="46.55836" lon="5.75298">
        <ele>526</ele>
        <time>2013-04-28T07:40:38.000Z</time>
      </trkpt>
      <trkpt lat="46.55823" lon="5.75289">
        <ele>526.79998779297</ele>
        <time>2013-04-28T07:40:44.000Z</time>
      </trkpt>
      <trkpt lat="46.55818" lon="5.75286">
        <ele>527.20001220703</ele>
        <time>2013-04-28T07:40:48.000Z</time>
      </trkpt>
      <trkpt lat="46.55816" lon="5.75283">
        <ele>527.40002441406</ele>
        <time>2013-04-28T07:40:49.000Z</time>
      </trkpt>
      <trkpt lat="46.55814" lon="5.75272">
        <ele>527.59997558594</ele>
        <time>2013-04-28T07:40:52.000Z</time>
      </trkpt>
      <trkpt lat="46.55814" lon="5.75268">
        <ele>527.79998779297</ele>
        <time>2013-04-28T07:40:53.000Z</time>
      </trkpt>
      <trkpt lat="46.55809" lon="5.75248">
        <ele>528.40002441406</ele>
        <time>2013-04-28T07:40:58.000Z</time>
      </trkpt>
      <trkpt lat="46.55806" lon="5.75227">
        <ele>528.20001220703</ele>
        <time>2013-04-28T07:41:03.000Z</time>
      </trkpt>
      <trkpt lat="46.55806" lon="5.75224">
        <ele>528</ele>
        <time>2013-04-28T07:41:04.000Z</time>
      </trkpt>
      <trkpt lat="46.55806" lon="5.75217">
        <ele>527.79998779297</ele>
        <time>2013-04-28T07:41:06.000Z</time>
      </trkpt>
      <trkpt lat="46.55812" lon="5.75214">
        <ele>527.40002441406</ele>
        <time>2013-04-28T07:41:08.000Z</time>
      </trkpt>
      <trkpt lat="46.55814" lon="5.75203">
        <ele>527</ele>
        <time>2013-04-28T07:41:12.000Z</time>
      </trkpt>
      <trkpt lat="46.55813" lon="5.7519">
        <ele>526.59997558594</ele>
        <time>2013-04-28T07:41:16.000Z</time>
      </trkpt>
      <trkpt lat="46.55812" lon="5.75187">
        <ele>526.59997558594</ele>
        <time>2013-04-28T07:41:17.000Z</time>
      </trkpt>
      <trkpt lat="46.55806" lon="5.75171">
        <ele>526.40002441406</ele>
        <time>2013-04-28T07:41:22.000Z</time>
      </trkpt>
      <trkpt lat="46.55802" lon="5.75164">
        <ele>526.40002441406</ele>
        <time>2013-04-28T07:41:24.000Z</time>
      </trkpt>
      <trkpt lat="46.55797" lon="5.75151">
        <ele>526.79998779297</ele>
        <time>2013-04-28T07:41:28.000Z</time>
      </trkpt>
      <trkpt lat="46.55797" lon="5.75142">
        <ele>527</ele>
        <time>2013-04-28T07:41:30.000Z</time>
      </trkpt>
      <trkpt lat="46.55797" lon="5.75136">
        <ele>527.20001220703</ele>
        <time>2013-04-28T07:41:32.000Z</time>
      </trkpt>
      <trkpt lat="46.55793" lon="5.75119">
        <ele>527.79998779297</ele>
        <time>2013-04-28T07:41:37.000Z</time>
      </trkpt>
      <trkpt lat="46.55787" lon="5.75108">
        <ele>528.40002441406</ele>
        <time>2013-04-28T07:41:41.000Z</time>
      </trkpt>
      <trkpt lat="46.55778" lon="5.75094">
        <ele>529.20001220703</ele>
        <time>2013-04-28T07:41:47.000Z</time>
      </trkpt>
      <trkpt lat="46.55766" lon="5.75082">
        <ele>530.20001220703</ele>
        <time>2013-04-28T07:41:53.000Z</time>
      </trkpt>
      <trkpt lat="46.55755" lon="5.75067">
        <ele>531</ele>
        <time>2013-04-28T07:41:59.000Z</time>
      </trkpt>
      <trkpt lat="46.5575" lon="5.75058">
        <ele>531.40002441406</ele>
        <time>2013-04-28T07:42:03.000Z</time>
      </trkpt>
      <trkpt lat="46.55743" lon="5.75048">
        <ele>531.79998779297</ele>
        <time>2013-04-28T07:42:08.000Z</time>
      </trkpt>
      <trkpt lat="46.55736" lon="5.75037">
        <ele>532</ele>
        <time>2013-04-28T07:42:12.000Z</time>
      </trkpt>
      <trkpt lat="46.55727" lon="5.75023">
        <ele>532.20001220703</ele>
        <time>2013-04-28T07:42:18.000Z</time>
      </trkpt>
      <trkpt lat="46.55721" lon="5.75006">
        <ele>532.79998779297</ele>
        <time>2013-04-28T07:42:23.000Z</time>
      </trkpt>
      <trkpt lat="46.55714" lon="5.74984">
        <ele>534</ele>
        <time>2013-04-28T07:42:30.000Z</time>
      </trkpt>
      <trkpt lat="46.55709" lon="5.74965">
        <ele>535.59997558594</ele>
        <time>2013-04-28T07:42:36.000Z</time>
      </trkpt>
      <trkpt lat="46.55706" lon="5.74962">
        <ele>536</ele>
        <time>2013-04-28T07:42:38.000Z</time>
      </trkpt>
      <trkpt lat="46.55699" lon="5.74958">
        <ele>536.59997558594</ele>
        <time>2013-04-28T07:42:41.000Z</time>
      </trkpt>
      <trkpt lat="46.55684" lon="5.74951">
        <ele>538</ele>
        <time>2013-04-28T07:42:47.000Z</time>
      </trkpt>
      <trkpt lat="46.55672" lon="5.74943">
        <ele>539.40002441406</ele>
        <time>2013-04-28T07:42:52.000Z</time>
      </trkpt>
      <trkpt lat="46.55659" lon="5.74937">
        <ele>541</ele>
        <time>2013-04-28T07:42:57.000Z</time>
      </trkpt>
      <trkpt lat="46.55648" lon="5.74933">
        <ele>542.40002441406</ele>
        <time>2013-04-28T07:43:02.000Z</time>
      </trkpt>
      <trkpt lat="46.55641" lon="5.74929">
        <ele>543.40002441406</ele>
        <time>2013-04-28T07:43:05.000Z</time>
      </trkpt>
      <trkpt lat="46.55635" lon="5.74928">
        <ele>544</ele>
        <time>2013-04-28T07:43:07.000Z</time>
      </trkpt>
      <trkpt lat="46.55628" lon="5.74927">
        <ele>544.59997558594</ele>
        <time>2013-04-28T07:43:10.000Z</time>
      </trkpt>
      <trkpt lat="46.5562" lon="5.74927">
        <ele>545</ele>
        <time>2013-04-28T07:43:13.000Z</time>
      </trkpt>
      <trkpt lat="46.55607" lon="5.74933">
        <ele>545.40002441406</ele>
        <time>2013-04-28T07:43:18.000Z</time>
      </trkpt>
      <trkpt lat="46.55598" lon="5.74935">
        <ele>545.79998779297</ele>
        <time>2013-04-28T07:43:22.000Z</time>
      </trkpt>
      <trkpt lat="46.55584" lon="5.74943">
        <ele>546</ele>
        <time>2013-04-28T07:43:27.000Z</time>
      </trkpt>
      <trkpt lat="46.55579" lon="5.74944">
        <ele>546.20001220703</ele>
        <time>2013-04-28T07:43:29.000Z</time>
      </trkpt>
      <trkpt lat="46.55574" lon="5.74948">
        <ele>546.20001220703</ele>
        <time>2013-04-28T07:43:31.000Z</time>
      </trkpt>
      <trkpt lat="46.55569" lon="5.74952">
        <ele>546</ele>
        <time>2013-04-28T07:43:33.000Z</time>
      </trkpt>
      <trkpt lat="46.55557" lon="5.7496">
        <ele>546</ele>
        <time>2013-04-28T07:43:38.000Z</time>
      </trkpt>
      <trkpt lat="46.55544" lon="5.74969">
        <ele>546</ele>
        <time>2013-04-28T07:43:43.000Z</time>
      </trkpt>
      <trkpt lat="46.55531" lon="5.74975">
        <ele>546.20001220703</ele>
        <time>2013-04-28T07:43:48.000Z</time>
      </trkpt>
      <trkpt lat="46.55519" lon="5.74979">
        <ele>546.59997558594</ele>
        <time>2013-04-28T07:43:53.000Z</time>
      </trkpt>
      <trkpt lat="46.55516" lon="5.74979">
        <ele>546.79998779297</ele>
        <time>2013-04-28T07:43:54.000Z</time>
      </trkpt>
      <trkpt lat="46.55511" lon="5.74984">
        <ele>546.79998779297</ele>
        <time>2013-04-28T07:43:56.000Z</time>
      </trkpt>
      <trkpt lat="46.55505" lon="5.74986">
        <ele>546.79998779297</ele>
        <time>2013-04-28T07:43:58.000Z</time>
      </trkpt>
      <trkpt lat="46.55498" lon="5.74989">
        <ele>547</ele>
        <time>2013-04-28T07:44:01.000Z</time>
      </trkpt>
      <trkpt lat="46.55484" lon="5.74996">
        <ele>547.20001220703</ele>
        <time>2013-04-28T07:44:06.000Z</time>
      </trkpt>
      <trkpt lat="46.55481" lon="5.74995">
        <ele>547.40002441406</ele>
        <time>2013-04-28T07:44:07.000Z</time>
      </trkpt>
      <trkpt lat="46.55476" lon="5.74996">
        <ele>547.79998779297</ele>
        <time>2013-04-28T07:44:09.000Z</time>
      </trkpt>
      <trkpt lat="46.55465" lon="5.74998">
        <ele>548.20001220703</ele>
        <time>2013-04-28T07:44:13.000Z</time>
      </trkpt>
      <trkpt lat="46.55451" lon="5.75002">
        <ele>548.59997558594</ele>
        <time>2013-04-28T07:44:18.000Z</time>
      </trkpt>
      <trkpt lat="46.55449" lon="5.75004">
        <ele>548.40002441406</ele>
        <time>2013-04-28T07:44:19.000Z</time>
      </trkpt>
      <trkpt lat="46.55443" lon="5.75008">
        <ele>548.59997558594</ele>
        <time>2013-04-28T07:44:22.000Z</time>
      </trkpt>
      <trkpt lat="46.55433" lon="5.7501">
        <ele>549</ele>
        <time>2013-04-28T07:44:26.000Z</time>
      </trkpt>
      <trkpt lat="46.55421" lon="5.75015">
        <ele>549.20001220703</ele>
        <time>2013-04-28T07:44:30.000Z</time>
      </trkpt>
      <trkpt lat="46.55418" lon="5.75016">
        <ele>549.20001220703</ele>
        <time>2013-04-28T07:44:31.000Z</time>
      </trkpt>
      <trkpt lat="46.55404" lon="5.75018">
        <ele>549.20001220703</ele>
        <time>2013-04-28T07:44:37.000Z</time>
      </trkpt>
      <trkpt lat="46.55398" lon="5.75019">
        <ele>549.20001220703</ele>
        <time>2013-04-28T07:44:39.000Z</time>
      </trkpt>
      <trkpt lat="46.55393" lon="5.75019">
        <ele>549.20001220703</ele>
        <time>2013-04-28T07:44:41.000Z</time>
      </trkpt>
      <trkpt lat="46.5538" lon="5.7502">
        <ele>549.40002441406</ele>
        <time>2013-04-28T07:44:45.000Z</time>
      </trkpt>
      <trkpt lat="46.55363" lon="5.75024">
        <ele>549.20001220703</ele>
        <time>2013-04-28T07:44:51.000Z</time>
      </trkpt>
      <trkpt lat="46.55348" lon="5.75025">
        <ele>549.20001220703</ele>
        <time>2013-04-28T07:44:56.000Z</time>
      </trkpt>
      <trkpt lat="46.55335" lon="5.75029">
        <ele>549.20001220703</ele>
        <time>2013-04-28T07:45:01.000Z</time>
      </trkpt>
      <trkpt lat="46.55329" lon="5.75047">
        <ele>548.59997558594</ele>
        <time>2013-04-28T07:45:06.000Z</time>
      </trkpt>
      <trkpt lat="46.55321" lon="5.7506">
        <ele>548.79998779297</ele>
        <time>2013-04-28T07:45:10.000Z</time>
      </trkpt>
      <trkpt lat="46.55317" lon="5.75071">
        <ele>548.59997558594</ele>
        <time>2013-04-28T07:45:13.000Z</time>
      </trkpt>
      <trkpt lat="46.55313" lon="5.75083">
        <ele>548.40002441406</ele>
        <time>2013-04-28T07:45:17.000Z</time>
      </trkpt>
      <trkpt lat="46.55312" lon="5.7509">
        <ele>547.59997558594</ele>
        <time>2013-04-28T07:45:19.000Z</time>
      </trkpt>
      <trkpt lat="46.55304" lon="5.75097">
        <ele>547.59997558594</ele>
        <time>2013-04-28T07:45:21.000Z</time>
      </trkpt>
      <trkpt lat="46.55295" lon="5.75108">
        <ele>547.40002441406</ele>
        <time>2013-04-28T07:45:24.000Z</time>
      </trkpt>
      <trkpt lat="46.55285" lon="5.75125">
        <ele>546.79998779297</ele>
        <time>2013-04-28T07:45:29.000Z</time>
      </trkpt>
      <trkpt lat="46.5528" lon="5.75134">
        <ele>546.40002441406</ele>
        <time>2013-04-28T07:45:32.000Z</time>
      </trkpt>
      <trkpt lat="46.55271" lon="5.75152">
        <ele>546</ele>
        <time>2013-04-28T07:45:37.000Z</time>
      </trkpt>
      <trkpt lat="46.55258" lon="5.75174">
        <ele>545.59997558594</ele>
        <time>2013-04-28T07:45:43.000Z</time>
      </trkpt>
      <trkpt lat="46.55249" lon="5.75184">
        <ele>545.79998779297</ele>
        <time>2013-04-28T07:45:47.000Z</time>
      </trkpt>
      <trkpt lat="46.55239" lon="5.75195">
        <ele>545.20001220703</ele>
        <time>2013-04-28T07:45:51.000Z</time>
      </trkpt>
      <trkpt lat="46.55236" lon="5.752">
        <ele>545</ele>
        <time>2013-04-28T07:45:53.000Z</time>
      </trkpt>
      <trkpt lat="46.55232" lon="5.75205">
        <ele>544.79998779297</ele>
        <time>2013-04-28T07:45:55.000Z</time>
      </trkpt>
      <trkpt lat="46.55228" lon="5.75215">
        <ele>544.20001220703</ele>
        <time>2013-04-28T07:45:58.000Z</time>
      </trkpt>
      <trkpt lat="46.55224" lon="5.75222">
        <ele>544</ele>
        <time>2013-04-28T07:46:00.000Z</time>
      </trkpt>
      <trkpt lat="46.55218" lon="5.75233">
        <ele>543.59997558594</ele>
        <time>2013-04-28T07:46:03.000Z</time>
      </trkpt>
      <trkpt lat="46.55214" lon="5.75241">
        <ele>543.40002441406</ele>
        <time>2013-04-28T07:46:05.000Z</time>
      </trkpt>
      <trkpt lat="46.55202" lon="5.75265">
        <ele>543</ele>
        <time>2013-04-28T07:46:11.000Z</time>
      </trkpt>
      <trkpt lat="46.55197" lon="5.75279">
        <ele>542.59997558594</ele>
        <time>2013-04-28T07:46:15.000Z</time>
      </trkpt>
      <trkpt lat="46.55195" lon="5.7529">
        <ele>542</ele>
        <time>2013-04-28T07:46:18.000Z</time>
      </trkpt>
      <trkpt lat="46.55195" lon="5.75293">
        <ele>541.79998779297</ele>
        <time>2013-04-28T07:46:19.000Z</time>
      </trkpt>
      <trkpt lat="46.55191" lon="5.75304">
        <ele>541.40002441406</ele>
        <time>2013-04-28T07:46:23.000Z</time>
      </trkpt>
      <trkpt lat="46.55189" lon="5.75308">
        <ele>541.40002441406</ele>
        <time>2013-04-28T07:46:24.000Z</time>
      </trkpt>
      <trkpt lat="46.55181" lon="5.75324">
        <ele>541.20001220703</ele>
        <time>2013-04-28T07:46:29.000Z</time>
      </trkpt>
      <trkpt lat="46.55173" lon="5.75347">
        <ele>540.79998779297</ele>
        <time>2013-04-28T07:46:35.000Z</time>
      </trkpt>
      <trkpt lat="46.55172" lon="5.7535">
        <ele>540.79998779297</ele>
        <time>2013-04-28T07:46:36.000Z</time>
      </trkpt>
      <trkpt lat="46.55166" lon="5.75377">
        <ele>539.40002441406</ele>
        <time>2013-04-28T07:46:43.000Z</time>
      </trkpt>
      <trkpt lat="46.55158" lon="5.75396">
        <ele>539.40002441406</ele>
        <time>2013-04-28T07:46:49.000Z</time>
      </trkpt>
      <trkpt lat="46.55151" lon="5.75411">
        <ele>539.40002441406</ele>
        <time>2013-04-28T07:46:55.000Z</time>
      </trkpt>
      <trkpt lat="46.55142" lon="5.75423">
        <ele>540.20001220703</ele>
        <time>2013-04-28T07:47:02.000Z</time>
      </trkpt>
      <trkpt lat="46.55137" lon="5.75439">
        <ele>540.20001220703</ele>
        <time>2013-04-28T07:47:08.000Z</time>
      </trkpt>
      <trkpt lat="46.5513" lon="5.75454">
        <ele>540.20001220703</ele>
        <time>2013-04-28T07:47:14.000Z</time>
      </trkpt>
      <trkpt lat="46.55126" lon="5.7546">
        <ele>540.59997558594</ele>
        <time>2013-04-28T07:47:18.000Z</time>
      </trkpt>
      <trkpt lat="46.55126" lon="5.75462">
        <ele>540.40002441406</ele>
        <time>2013-04-28T07:47:20.000Z</time>
      </trkpt>
      <trkpt lat="46.55125" lon="5.75464">
        <ele>540.40002441406</ele>
        <time>2013-04-28T07:47:22.000Z</time>
      </trkpt>
      <trkpt lat="46.5512" lon="5.75472">
        <ele>540.79998779297</ele>
        <time>2013-04-28T07:47:24.000Z</time>
      </trkpt>
      <trkpt lat="46.55117" lon="5.75478">
        <ele>541</ele>
        <time>2013-04-28T07:47:26.000Z</time>
      </trkpt>
      <trkpt lat="46.55116" lon="5.75478">
        <ele>541</ele>
        <time>2013-04-28T07:47:27.000Z</time>
      </trkpt>
      <trkpt lat="46.55115" lon="5.75482">
        <ele>541</ele>
        <time>2013-04-28T07:47:29.000Z</time>
      </trkpt>
      <trkpt lat="46.55115" lon="5.75482">
        <ele>541</ele>
        <time>2013-04-28T07:47:30.000Z</time>
      </trkpt>
      <trkpt lat="46.55114" lon="5.75487">
        <ele>540.79998779297</ele>
        <time>2013-04-28T07:47:33.000Z</time>
      </trkpt>
      <trkpt lat="46.55112" lon="5.75492">
        <ele>540.59997558594</ele>
        <time>2013-04-28T07:47:36.000Z</time>
      </trkpt>
      <trkpt lat="46.55104" lon="5.75504">
        <ele>541.20001220703</ele>
        <time>2013-04-28T07:47:41.000Z</time>
      </trkpt>
      <trkpt lat="46.55103" lon="5.75508">
        <ele>541</ele>
        <time>2013-04-28T07:47:42.000Z</time>
      </trkpt>
      <trkpt lat="46.55099" lon="5.75516">
        <ele>541.20001220703</ele>
        <time>2013-04-28T07:47:45.000Z</time>
      </trkpt>
      <trkpt lat="46.55098" lon="5.75518">
        <ele>541.40002441406</ele>
        <time>2013-04-28T07:47:46.000Z</time>
      </trkpt>
      <trkpt lat="46.55096" lon="5.75522">
        <ele>541.40002441406</ele>
        <time>2013-04-28T07:47:47.000Z</time>
      </trkpt>
      <trkpt lat="46.55093" lon="5.75531">
        <ele>541.20001220703</ele>
        <time>2013-04-28T07:47:50.000Z</time>
      </trkpt>
      <trkpt lat="46.55091" lon="5.75536">
        <ele>541.20001220703</ele>
        <time>2013-04-28T07:47:53.000Z</time>
      </trkpt>
      <trkpt lat="46.5509" lon="5.75542">
        <ele>541</ele>
        <time>2013-04-28T07:47:55.000Z</time>
      </trkpt>
      <trkpt lat="46.55087" lon="5.75547">
        <ele>541</ele>
        <time>2013-04-28T07:47:57.000Z</time>
      </trkpt>
      <trkpt lat="46.55085" lon="5.75551">
        <ele>541</ele>
        <time>2013-04-28T07:47:59.000Z</time>
      </trkpt>
      <trkpt lat="46.55083" lon="5.75555">
        <ele>541</ele>
        <time>2013-04-28T07:48:01.000Z</time>
      </trkpt>
      <trkpt lat="46.55075" lon="5.75566">
        <ele>542.59997558594</ele>
        <time>2013-04-28T07:48:06.000Z</time>
      </trkpt>
      <trkpt lat="46.55069" lon="5.75576">
        <ele>543.40002441406</ele>
        <time>2013-04-28T07:48:10.000Z</time>
      </trkpt>
      <trkpt lat="46.55065" lon="5.75597">
        <ele>544</ele>
        <time>2013-04-28T07:48:15.000Z</time>
      </trkpt>
      <trkpt lat="46.55063" lon="5.75617">
        <ele>544.79998779297</ele>
        <time>2013-04-28T07:48:21.000Z</time>
      </trkpt>
      <trkpt lat="46.55064" lon="5.75635">
        <ele>544.59997558594</ele>
        <time>2013-04-28T07:48:25.000Z</time>
      </trkpt>
      <trkpt lat="46.55065" lon="5.75644">
        <ele>544.40002441406</ele>
        <time>2013-04-28T07:48:27.000Z</time>
      </trkpt>
      <trkpt lat="46.55065" lon="5.75652">
        <ele>544.59997558594</ele>
        <time>2013-04-28T07:48:29.000Z</time>
      </trkpt>
      <trkpt lat="46.55064" lon="5.75665">
        <ele>544.79998779297</ele>
        <time>2013-04-28T07:48:32.000Z</time>
      </trkpt>
      <trkpt lat="46.55064" lon="5.75669">
        <ele>544.79998779297</ele>
        <time>2013-04-28T07:48:33.000Z</time>
      </trkpt>
      <trkpt lat="46.55064" lon="5.75694">
        <ele>544.20001220703</ele>
        <time>2013-04-28T07:48:39.000Z</time>
      </trkpt>
      <trkpt lat="46.55063" lon="5.75704">
        <ele>544</ele>
        <time>2013-04-28T07:48:42.000Z</time>
      </trkpt>
      <trkpt lat="46.5506" lon="5.75709">
        <ele>544.40002441406</ele>
        <time>2013-04-28T07:48:43.000Z</time>
      </trkpt>
      <trkpt lat="46.55056" lon="5.75723">
        <ele>545</ele>
        <time>2013-04-28T07:48:46.000Z</time>
      </trkpt>
      <trkpt lat="46.55051" lon="5.75739">
        <ele>545.40002441406</ele>
        <time>2013-04-28T07:48:50.000Z</time>
      </trkpt>
      <trkpt lat="46.55046" lon="5.75753">
        <ele>545.79998779297</ele>
        <time>2013-04-28T07:48:54.000Z</time>
      </trkpt>
      <trkpt lat="46.55045" lon="5.75757">
        <ele>546</ele>
        <time>2013-04-28T07:48:55.000Z</time>
      </trkpt>
      <trkpt lat="46.55041" lon="5.75768">
        <ele>546.20001220703</ele>
        <time>2013-04-28T07:48:59.000Z</time>
      </trkpt>
      <trkpt lat="46.55039" lon="5.75775">
        <ele>546.40002441406</ele>
        <time>2013-04-28T07:49:01.000Z</time>
      </trkpt>
      <trkpt lat="46.55035" lon="5.75785">
        <ele>546.59997558594</ele>
        <time>2013-04-28T07:49:03.000Z</time>
      </trkpt>
      <trkpt lat="46.55034" lon="5.75792">
        <ele>546.79998779297</ele>
        <time>2013-04-28T07:49:05.000Z</time>
      </trkpt>
      <trkpt lat="46.55032" lon="5.75798">
        <ele>546.79998779297</ele>
        <time>2013-04-28T07:49:07.000Z</time>
      </trkpt>
      <trkpt lat="46.55029" lon="5.75811">
        <ele>546.79998779297</ele>
        <time>2013-04-28T07:49:11.000Z</time>
      </trkpt>
      <trkpt lat="46.55023" lon="5.75833">
        <ele>547.20001220703</ele>
        <time>2013-04-28T07:49:18.000Z</time>
      </trkpt>
      <trkpt lat="46.55023" lon="5.75836">
        <ele>547.20001220703</ele>
        <time>2013-04-28T07:49:19.000Z</time>
      </trkpt>
      <trkpt lat="46.5502" lon="5.7585">
        <ele>547.20001220703</ele>
        <time>2013-04-28T07:49:23.000Z</time>
      </trkpt>
      <trkpt lat="46.55013" lon="5.7587">
        <ele>547.40002441406</ele>
        <time>2013-04-28T07:49:29.000Z</time>
      </trkpt>
      <trkpt lat="46.55009" lon="5.75883">
        <ele>547.40002441406</ele>
        <time>2013-04-28T07:49:33.000Z</time>
      </trkpt>
      <trkpt lat="46.55004" lon="5.75885">
        <ele>548.20001220703</ele>
        <time>2013-04-28T07:49:35.000Z</time>
      </trkpt>
      <trkpt lat="46.54999" lon="5.75884">
        <ele>549.20001220703</ele>
        <time>2013-04-28T07:49:37.000Z</time>
      </trkpt>
      <trkpt lat="46.54996" lon="5.75884">
        <ele>550</ele>
        <time>2013-04-28T07:49:38.000Z</time>
      </trkpt>
      <trkpt lat="46.54991" lon="5.75886">
        <ele>551.79998779297</ele>
        <time>2013-04-28T07:49:41.000Z</time>
      </trkpt>
      <trkpt lat="46.54985" lon="5.75882">
        <ele>553.79998779297</ele>
        <time>2013-04-28T07:49:45.000Z</time>
      </trkpt>
      <trkpt lat="46.54982" lon="5.75878">
        <ele>554.79998779297</ele>
        <time>2013-04-28T07:49:48.000Z</time>
      </trkpt>
      <trkpt lat="46.54982" lon="5.75876">
        <ele>555</ele>
        <time>2013-04-28T07:49:49.000Z</time>
      </trkpt>
      <trkpt lat="46.54977" lon="5.75873">
        <ele>556.79998779297</ele>
        <time>2013-04-28T07:49:53.000Z</time>
      </trkpt>
      <trkpt lat="46.54976" lon="5.75874">
        <ele>557</ele>
        <time>2013-04-28T07:49:54.000Z</time>
      </trkpt>
      <trkpt lat="46.54975" lon="5.75879">
        <ele>557</ele>
        <time>2013-04-28T07:49:57.000Z</time>
      </trkpt>
      <trkpt lat="46.54974" lon="5.75885">
        <ele>557.20001220703</ele>
        <time>2013-04-28T07:50:00.000Z</time>
      </trkpt>
      <trkpt lat="46.54973" lon="5.75888">
        <ele>557.20001220703</ele>
        <time>2013-04-28T07:50:02.000Z</time>
      </trkpt>
      <trkpt lat="46.54973" lon="5.75894">
        <ele>556.79998779297</ele>
        <time>2013-04-28T07:50:05.000Z</time>
      </trkpt>
      <trkpt lat="46.54972" lon="5.75913">
        <ele>556.20001220703</ele>
        <time>2013-04-28T07:50:11.000Z</time>
      </trkpt>
      <trkpt lat="46.54969" lon="5.75927">
        <ele>557.20001220703</ele>
        <time>2013-04-28T07:50:15.000Z</time>
      </trkpt>
      <trkpt lat="46.54966" lon="5.75937">
        <ele>558.40002441406</ele>
        <time>2013-04-28T07:50:18.000Z</time>
      </trkpt>
      <trkpt lat="46.54966" lon="5.75945">
        <ele>558.59997558594</ele>
        <time>2013-04-28T07:50:20.000Z</time>
      </trkpt>
      <trkpt lat="46.54969" lon="5.75967">
        <ele>558.40002441406</ele>
        <time>2013-04-28T07:50:26.000Z</time>
      </trkpt>
      <trkpt lat="46.54974" lon="5.75985">
        <ele>557</ele>
        <time>2013-04-28T07:50:31.000Z</time>
      </trkpt>
      <trkpt lat="46.54976" lon="5.7599">
        <ele>556.40002441406</ele>
        <time>2013-04-28T07:50:34.000Z</time>
      </trkpt>
      <trkpt lat="46.54977" lon="5.75997">
        <ele>556.20001220703</ele>
        <time>2013-04-28T07:50:36.000Z</time>
      </trkpt>
      <trkpt lat="46.54977" lon="5.75997">
        <ele>556.40002441406</ele>
        <time>2013-04-28T07:50:37.000Z</time>
      </trkpt>
      <trkpt lat="46.54977" lon="5.76001">
        <ele>556.40002441406</ele>
        <time>2013-04-28T07:50:39.000Z</time>
      </trkpt>
      <trkpt lat="46.54978" lon="5.7601">
        <ele>557</ele>
        <time>2013-04-28T07:50:43.000Z</time>
      </trkpt>
      <trkpt lat="46.54978" lon="5.76012">
        <ele>557.20001220703</ele>
        <time>2013-04-28T07:50:44.000Z</time>
      </trkpt>
      <trkpt lat="46.54981" lon="5.76023">
        <ele>557</ele>
        <time>2013-04-28T07:50:49.000Z</time>
      </trkpt>
      <trkpt lat="46.54988" lon="5.76037">
        <ele>555.40002441406</ele>
        <time>2013-04-28T07:50:55.000Z</time>
      </trkpt>
      <trkpt lat="46.5499" lon="5.76038">
        <ele>554.59997558594</ele>
        <time>2013-04-28T07:50:56.000Z</time>
      </trkpt>
      <trkpt lat="46.54995" lon="5.76041">
        <ele>553</ele>
        <time>2013-04-28T07:50:59.000Z</time>
      </trkpt>
      <trkpt lat="46.54996" lon="5.76041">
        <ele>552.40002441406</ele>
        <time>2013-04-28T07:51:00.000Z</time>
      </trkpt>
      <trkpt lat="46.55001" lon="5.76043">
        <ele>550.79998779297</ele>
        <time>2013-04-28T07:51:04.000Z</time>
      </trkpt>
      <trkpt lat="46.55001" lon="5.76044">
        <ele>550.79998779297</ele>
        <time>2013-04-28T07:51:05.000Z</time>
      </trkpt>
      <trkpt lat="46.55003" lon="5.76051">
        <ele>551</ele>
        <time>2013-04-28T07:51:08.000Z</time>
      </trkpt>
      <trkpt lat="46.55003" lon="5.76052">
        <ele>551.20001220703</ele>
        <time>2013-04-28T07:51:09.000Z</time>
      </trkpt>
      <trkpt lat="46.55003" lon="5.76058">
        <ele>551.40002441406</ele>
        <time>2013-04-28T07:51:12.000Z</time>
      </trkpt>
      <trkpt lat="46.55005" lon="5.76069">
        <ele>552.20001220703</ele>
        <time>2013-04-28T07:51:16.000Z</time>
      </trkpt>
      <trkpt lat="46.55007" lon="5.7608">
        <ele>552.40002441406</ele>
        <time>2013-04-28T07:51:19.000Z</time>
      </trkpt>
      <trkpt lat="46.5501" lon="5.76085">
        <ele>552.40002441406</ele>
        <time>2013-04-28T07:51:21.000Z</time>
      </trkpt>
      <trkpt lat="46.55011" lon="5.76088">
        <ele>552.59997558594</ele>
        <time>2013-04-28T07:51:23.000Z</time>
      </trkpt>
      <trkpt lat="46.55012" lon="5.7609">
        <ele>553</ele>
        <time>2013-04-28T07:51:24.000Z</time>
      </trkpt>
      <trkpt lat="46.55013" lon="5.76092">
        <ele>553</ele>
        <time>2013-04-28T07:51:25.000Z</time>
      </trkpt>
      <trkpt lat="46.55014" lon="5.761">
        <ele>554</ele>
        <time>2013-04-28T07:51:28.000Z</time>
      </trkpt>
      <trkpt lat="46.55015" lon="5.76103">
        <ele>554.20001220703</ele>
        <time>2013-04-28T07:51:29.000Z</time>
      </trkpt>
      <trkpt lat="46.55015" lon="5.76105">
        <ele>554.59997558594</ele>
        <time>2013-04-28T07:51:30.000Z</time>
      </trkpt>
      <trkpt lat="46.55014" lon="5.76111">
        <ele>555.59997558594</ele>
        <time>2013-04-28T07:51:33.000Z</time>
      </trkpt>
      <trkpt lat="46.55013" lon="5.76117">
        <ele>557</ele>
        <time>2013-04-28T07:51:37.000Z</time>
      </trkpt>
      <trkpt lat="46.55012" lon="5.76119">
        <ele>557.40002441406</ele>
        <time>2013-04-28T07:51:38.000Z</time>
      </trkpt>
      <trkpt lat="46.55013" lon="5.76127">
        <ele>558.40002441406</ele>
        <time>2013-04-28T07:51:42.000Z</time>
      </trkpt>
      <trkpt lat="46.55015" lon="5.76132">
        <ele>559</ele>
        <time>2013-04-28T07:51:45.000Z</time>
      </trkpt>
      <trkpt lat="46.55013" lon="5.76136">
        <ele>559.79998779297</ele>
        <time>2013-04-28T07:51:47.000Z</time>
      </trkpt>
      <trkpt lat="46.55013" lon="5.7614">
        <ele>560.79998779297</ele>
        <time>2013-04-28T07:51:51.000Z</time>
      </trkpt>
      <trkpt lat="46.55014" lon="5.76142">
        <ele>560.59997558594</ele>
        <time>2013-04-28T07:51:52.000Z</time>
      </trkpt>
      <trkpt lat="46.55015" lon="5.76143">
        <ele>560.40002441406</ele>
        <time>2013-04-28T07:51:54.000Z</time>
      </trkpt>
      <trkpt lat="46.55017" lon="5.76147">
        <ele>560.59997558594</ele>
        <time>2013-04-28T07:51:57.000Z</time>
      </trkpt>
      <trkpt lat="46.55018" lon="5.76152">
        <ele>561.20001220703</ele>
        <time>2013-04-28T07:52:01.000Z</time>
      </trkpt>
      <trkpt lat="46.55016" lon="5.76156">
        <ele>562.40002441406</ele>
        <time>2013-04-28T07:52:03.000Z</time>
      </trkpt>
      <trkpt lat="46.55016" lon="5.76158">
        <ele>562.40002441406</ele>
        <time>2013-04-28T07:52:05.000Z</time>
      </trkpt>
      <trkpt lat="46.55024" lon="5.76164">
        <ele>561</ele>
        <time>2013-04-28T07:52:10.000Z</time>
      </trkpt>
      <trkpt lat="46.55027" lon="5.76167">
        <ele>560.59997558594</ele>
        <time>2013-04-28T07:52:14.000Z</time>
      </trkpt>
      <trkpt lat="46.55029" lon="5.7617">
        <ele>560.59997558594</ele>
        <time>2013-04-28T07:52:17.000Z</time>
      </trkpt>
      <trkpt lat="46.55033" lon="5.76172">
        <ele>559.79998779297</ele>
        <time>2013-04-28T07:52:20.000Z</time>
      </trkpt>
      <trkpt lat="46.55035" lon="5.76172">
        <ele>559</ele>
        <time>2013-04-28T07:52:22.000Z</time>
      </trkpt>
      <trkpt lat="46.55037" lon="5.76173">
        <ele>558.79998779297</ele>
        <time>2013-04-28T07:52:23.000Z</time>
      </trkpt>
      <trkpt lat="46.5504" lon="5.76176">
        <ele>558.40002441406</ele>
        <time>2013-04-28T07:52:26.000Z</time>
      </trkpt>
      <trkpt lat="46.55049" lon="5.7618">
        <ele>556</ele>
        <time>2013-04-28T07:52:30.000Z</time>
      </trkpt>
      <trkpt lat="46.55055" lon="5.7619">
        <ele>555.59997558594</ele>
        <time>2013-04-28T07:52:34.000Z</time>
      </trkpt>
      <trkpt lat="46.55062" lon="5.76204">
        <ele>554.79998779297</ele>
        <time>2013-04-28T07:52:39.000Z</time>
      </trkpt>
      <trkpt lat="46.55068" lon="5.76213">
        <ele>553.59997558594</ele>
        <time>2013-04-28T07:52:44.000Z</time>
      </trkpt>
      <trkpt lat="46.55074" lon="5.76219">
        <ele>551.59997558594</ele>
        <time>2013-04-28T07:52:48.000Z</time>
      </trkpt>
      <trkpt lat="46.55074" lon="5.76228">
        <ele>552.59997558594</ele>
        <time>2013-04-28T07:52:53.000Z</time>
      </trkpt>
      <trkpt lat="46.55077" lon="5.76234">
        <ele>552</ele>
        <time>2013-04-28T07:52:57.000Z</time>
      </trkpt>
      <trkpt lat="46.55077" lon="5.76235">
        <ele>552</ele>
        <time>2013-04-28T07:52:58.000Z</time>
      </trkpt>
      <trkpt lat="46.55078" lon="5.7624">
        <ele>551.79998779297</ele>
        <time>2013-04-28T07:53:02.000Z</time>
      </trkpt>
      <trkpt lat="46.55079" lon="5.76242">
        <ele>551.20001220703</ele>
        <time>2013-04-28T07:53:04.000Z</time>
      </trkpt>
      <trkpt lat="46.55083" lon="5.76244">
        <ele>549.59997558594</ele>
        <time>2013-04-28T07:53:07.000Z</time>
      </trkpt>
      <trkpt lat="46.55083" lon="5.76247">
        <ele>549.59997558594</ele>
        <time>2013-04-28T07:53:11.000Z</time>
      </trkpt>
      <trkpt lat="46.55085" lon="5.76252">
        <ele>550.40002441406</ele>
        <time>2013-04-28T07:53:14.000Z</time>
      </trkpt>
      <trkpt lat="46.55087" lon="5.76257">
        <ele>551</ele>
        <time>2013-04-28T07:53:16.000Z</time>
      </trkpt>
      <trkpt lat="46.5509" lon="5.76262">
        <ele>551.79998779297</ele>
        <time>2013-04-28T07:53:18.000Z</time>
      </trkpt>
      <trkpt lat="46.55092" lon="5.76264">
        <ele>552.20001220703</ele>
        <time>2013-04-28T07:53:19.000Z</time>
      </trkpt>
      <trkpt lat="46.55094" lon="5.76266">
        <ele>552.20001220703</ele>
        <time>2013-04-28T07:53:21.000Z</time>
      </trkpt>
      <trkpt lat="46.55099" lon="5.76271">
        <ele>552.40002441406</ele>
        <time>2013-04-28T07:53:24.000Z</time>
      </trkpt>
      <trkpt lat="46.55104" lon="5.76281">
        <ele>553.79998779297</ele>
        <time>2013-04-28T07:53:28.000Z</time>
      </trkpt>
      <trkpt lat="46.55104" lon="5.76284">
        <ele>554.20001220703</ele>
        <time>2013-04-28T07:53:29.000Z</time>
      </trkpt>
      <trkpt lat="46.55105" lon="5.76292">
        <ele>555.79998779297</ele>
        <time>2013-04-28T07:53:33.000Z</time>
      </trkpt>
      <trkpt lat="46.55107" lon="5.76296">
        <ele>556.20001220703</ele>
        <time>2013-04-28T07:53:35.000Z</time>
      </trkpt>
      <trkpt lat="46.55108" lon="5.76298">
        <ele>556.40002441406</ele>
        <time>2013-04-28T07:53:37.000Z</time>
      </trkpt>
      <trkpt lat="46.55108" lon="5.76299">
        <ele>556.59997558594</ele>
        <time>2013-04-28T07:53:38.000Z</time>
      </trkpt>
      <trkpt lat="46.5511" lon="5.76304">
        <ele>557</ele>
        <time>2013-04-28T07:53:40.000Z</time>
      </trkpt>
      <trkpt lat="46.55111" lon="5.7631">
        <ele>558</ele>
        <time>2013-04-28T07:53:43.000Z</time>
      </trkpt>
      <trkpt lat="46.55115" lon="5.76319">
        <ele>558.59997558594</ele>
        <time>2013-04-28T07:53:47.000Z</time>
      </trkpt>
      <trkpt lat="46.55117" lon="5.76321">
        <ele>558.20001220703</ele>
        <time>2013-04-28T07:53:48.000Z</time>
      </trkpt>
      <trkpt lat="46.55119" lon="5.76324">
        <ele>558.20001220703</ele>
        <time>2013-04-28T07:53:51.000Z</time>
      </trkpt>
      <trkpt lat="46.55121" lon="5.76327">
        <ele>558.20001220703</ele>
        <time>2013-04-28T07:53:52.000Z</time>
      </trkpt>
      <trkpt lat="46.55124" lon="5.76331">
        <ele>557.79998779297</ele>
        <time>2013-04-28T07:53:56.000Z</time>
      </trkpt>
      <trkpt lat="46.55128" lon="5.76337">
        <ele>557.79998779297</ele>
        <time>2013-04-28T07:54:00.000Z</time>
      </trkpt>
      <trkpt lat="46.55132" lon="5.76349">
        <ele>559</ele>
        <time>2013-04-28T07:54:05.000Z</time>
      </trkpt>
      <trkpt lat="46.55133" lon="5.76351">
        <ele>559.20001220703</ele>
        <time>2013-04-28T07:54:06.000Z</time>
      </trkpt>
      <trkpt lat="46.55133" lon="5.76356">
        <ele>560.40002441406</ele>
        <time>2013-04-28T07:54:08.000Z</time>
      </trkpt>
      <trkpt lat="46.55132" lon="5.76358">
        <ele>561</ele>
        <time>2013-04-28T07:54:09.000Z</time>
      </trkpt>
      <trkpt lat="46.55135" lon="5.76364">
        <ele>561</ele>
        <time>2013-04-28T07:54:12.000Z</time>
      </trkpt>
      <trkpt lat="46.55143" lon="5.7637">
        <ele>559.59997558594</ele>
        <time>2013-04-28T07:54:16.000Z</time>
      </trkpt>
      <trkpt lat="46.55146" lon="5.76374">
        <ele>559</ele>
        <time>2013-04-28T07:54:18.000Z</time>
      </trkpt>
      <trkpt lat="46.55145" lon="5.76379">
        <ele>560.40002441406</ele>
        <time>2013-04-28T07:54:20.000Z</time>
      </trkpt>
      <trkpt lat="46.55145" lon="5.76388">
        <ele>562.40002441406</ele>
        <time>2013-04-28T07:54:24.000Z</time>
      </trkpt>
      <trkpt lat="46.55147" lon="5.76397">
        <ele>563</ele>
        <time>2013-04-28T07:54:28.000Z</time>
      </trkpt>
      <trkpt lat="46.55148" lon="5.764">
        <ele>563.59997558594</ele>
        <time>2013-04-28T07:54:29.000Z</time>
      </trkpt>
      <trkpt lat="46.55148" lon="5.76403">
        <ele>564</ele>
        <time>2013-04-28T07:54:30.000Z</time>
      </trkpt>
      <trkpt lat="46.55149" lon="5.76408">
        <ele>564.59997558594</ele>
        <time>2013-04-28T07:54:32.000Z</time>
      </trkpt>
      <trkpt lat="46.55156" lon="5.76417">
        <ele>562.79998779297</ele>
        <time>2013-04-28T07:54:36.000Z</time>
      </trkpt>
      <trkpt lat="46.55159" lon="5.7642">
        <ele>562.40002441406</ele>
        <time>2013-04-28T07:54:38.000Z</time>
      </trkpt>
      <trkpt lat="46.55163" lon="5.76427">
        <ele>561.40002441406</ele>
        <time>2013-04-28T07:54:41.000Z</time>
      </trkpt>
      <trkpt lat="46.55169" lon="5.76435">
        <ele>561.20001220703</ele>
        <time>2013-04-28T07:54:45.000Z</time>
      </trkpt>
      <trkpt lat="46.55171" lon="5.76436">
        <ele>561</ele>
        <time>2013-04-28T07:54:46.000Z</time>
      </trkpt>
      <trkpt lat="46.55177" lon="5.76443">
        <ele>561.40002441406</ele>
        <time>2013-04-28T07:54:49.000Z</time>
      </trkpt>
      <trkpt lat="46.55178" lon="5.76451">
        <ele>562.59997558594</ele>
        <time>2013-04-28T07:54:53.000Z</time>
      </trkpt>
      <trkpt lat="46.5518" lon="5.76459">
        <ele>563.79998779297</ele>
        <time>2013-04-28T07:54:56.000Z</time>
      </trkpt>
      <trkpt lat="46.55181" lon="5.76462">
        <ele>564</ele>
        <time>2013-04-28T07:54:57.000Z</time>
      </trkpt>
      <trkpt lat="46.55186" lon="5.76469">
        <ele>564.40002441406</ele>
        <time>2013-04-28T07:55:01.000Z</time>
      </trkpt>
      <trkpt lat="46.55193" lon="5.76471">
        <ele>563</ele>
        <time>2013-04-28T07:55:05.000Z</time>
      </trkpt>
      <trkpt lat="46.55195" lon="5.76472">
        <ele>562.59997558594</ele>
        <time>2013-04-28T07:55:07.000Z</time>
      </trkpt>
      <trkpt lat="46.55198" lon="5.76474">
        <ele>562.20001220703</ele>
        <time>2013-04-28T07:55:09.000Z</time>
      </trkpt>
      <trkpt lat="46.55201" lon="5.76475">
        <ele>561.79998779297</ele>
        <time>2013-04-28T07:55:11.000Z</time>
      </trkpt>
      <trkpt lat="46.55204" lon="5.76476">
        <ele>561.20001220703</ele>
        <time>2013-04-28T07:55:13.000Z</time>
      </trkpt>
      <trkpt lat="46.55206" lon="5.76476">
        <ele>561</ele>
        <time>2013-04-28T07:55:14.000Z</time>
      </trkpt>
      <trkpt lat="46.55214" lon="5.7648">
        <ele>559.59997558594</ele>
        <time>2013-04-28T07:55:18.000Z</time>
      </trkpt>
      <trkpt lat="46.55221" lon="5.76488">
        <ele>559</ele>
        <time>2013-04-28T07:55:21.000Z</time>
      </trkpt>
      <trkpt lat="46.55225" lon="5.76496">
        <ele>559</ele>
        <time>2013-04-28T07:55:24.000Z</time>
      </trkpt>
      <trkpt lat="46.55226" lon="5.76503">
        <ele>560.20001220703</ele>
        <time>2013-04-28T07:55:27.000Z</time>
      </trkpt>
      <trkpt lat="46.5523" lon="5.76511">
        <ele>561</ele>
        <time>2013-04-28T07:55:30.000Z</time>
      </trkpt>
      <trkpt lat="46.55237" lon="5.76526">
        <ele>562.59997558594</ele>
        <time>2013-04-28T07:55:35.000Z</time>
      </trkpt>
      <trkpt lat="46.55246" lon="5.76531">
        <ele>561.59997558594</ele>
        <time>2013-04-28T07:55:39.000Z</time>
      </trkpt>
      <trkpt lat="46.55248" lon="5.76531">
        <ele>561.20001220703</ele>
        <time>2013-04-28T07:55:40.000Z</time>
      </trkpt>
      <trkpt lat="46.55249" lon="5.76531">
        <ele>561</ele>
        <time>2013-04-28T07:55:41.000Z</time>
      </trkpt>
      <trkpt lat="46.55254" lon="5.76533">
        <ele>561.40002441406</ele>
        <time>2013-04-28T07:55:44.000Z</time>
      </trkpt>
      <trkpt lat="46.55258" lon="5.76535">
        <ele>562</ele>
        <time>2013-04-28T07:55:46.000Z</time>
      </trkpt>
      <trkpt lat="46.55264" lon="5.76538">
        <ele>562.79998779297</ele>
        <time>2013-04-28T07:55:49.000Z</time>
      </trkpt>
      <trkpt lat="46.55266" lon="5.76539">
        <ele>563.20001220703</ele>
        <time>2013-04-28T07:55:50.000Z</time>
      </trkpt>
      <trkpt lat="46.55274" lon="5.76543">
        <ele>564.20001220703</ele>
        <time>2013-04-28T07:55:55.000Z</time>
      </trkpt>
      <trkpt lat="46.55275" lon="5.76544">
        <ele>564.40002441406</ele>
        <time>2013-04-28T07:55:56.000Z</time>
      </trkpt>
      <trkpt lat="46.55277" lon="5.76545">
        <ele>564.59997558594</ele>
        <time>2013-04-28T07:55:57.000Z</time>
      </trkpt>
      <trkpt lat="46.55282" lon="5.76549">
        <ele>565.59997558594</ele>
        <time>2013-04-28T07:56:00.000Z</time>
      </trkpt>
      <trkpt lat="46.55283" lon="5.76553">
        <ele>566.40002441406</ele>
        <time>2013-04-28T07:56:02.000Z</time>
      </trkpt>
      <trkpt lat="46.55285" lon="5.76557">
        <ele>567.20001220703</ele>
        <time>2013-04-28T07:56:04.000Z</time>
      </trkpt>
      <trkpt lat="46.55289" lon="5.76566">
        <ele>569</ele>
        <time>2013-04-28T07:56:08.000Z</time>
      </trkpt>
      <trkpt lat="46.55295" lon="5.76577">
        <ele>571</ele>
        <time>2013-04-28T07:56:13.000Z</time>
      </trkpt>
      <trkpt lat="46.55296" lon="5.76578">
        <ele>571.20001220703</ele>
        <time>2013-04-28T07:56:14.000Z</time>
      </trkpt>
      <trkpt lat="46.55299" lon="5.76581">
        <ele>571.59997558594</ele>
        <time>2013-04-28T07:56:17.000Z</time>
      </trkpt>
      <trkpt lat="46.553" lon="5.76583">
        <ele>572</ele>
        <time>2013-04-28T07:56:19.000Z</time>
      </trkpt>
      <trkpt lat="46.55302" lon="5.76589">
        <ele>573.59997558594</ele>
        <time>2013-04-28T07:56:23.000Z</time>
      </trkpt>
      <trkpt lat="46.55304" lon="5.766">
        <ele>576.59997558594</ele>
        <time>2013-04-28T07:56:28.000Z</time>
      </trkpt>
      <trkpt lat="46.55305" lon="5.76611">
        <ele>579.59997558594</ele>
        <time>2013-04-28T07:56:34.000Z</time>
      </trkpt>
      <trkpt lat="46.55305" lon="5.76612">
        <ele>580</ele>
        <time>2013-04-28T07:56:35.000Z</time>
      </trkpt>
      <trkpt lat="46.55306" lon="5.76617">
        <ele>581.20001220703</ele>
        <time>2013-04-28T07:56:38.000Z</time>
      </trkpt>
      <trkpt lat="46.55307" lon="5.7662">
        <ele>582</ele>
        <time>2013-04-28T07:56:41.000Z</time>
      </trkpt>
      <trkpt lat="46.5531" lon="5.76628">
        <ele>584</ele>
        <time>2013-04-28T07:56:46.000Z</time>
      </trkpt>
      <trkpt lat="46.55313" lon="5.76636">
        <ele>585.79998779297</ele>
        <time>2013-04-28T07:56:51.000Z</time>
      </trkpt>
      <trkpt lat="46.55315" lon="5.7664">
        <ele>586.59997558594</ele>
        <time>2013-04-28T07:56:54.000Z</time>
      </trkpt>
      <trkpt lat="46.55316" lon="5.76642">
        <ele>587.20001220703</ele>
        <time>2013-04-28T07:56:56.000Z</time>
      </trkpt>
      <trkpt lat="46.55316" lon="5.76646">
        <ele>588.20001220703</ele>
        <time>2013-04-28T07:56:59.000Z</time>
      </trkpt>
      <trkpt lat="46.55317" lon="5.76649">
        <ele>588.79998779297</ele>
        <time>2013-04-28T07:57:01.000Z</time>
      </trkpt>
      <trkpt lat="46.55317" lon="5.76656">
        <ele>590.59997558594</ele>
        <time>2013-04-28T07:57:06.000Z</time>
      </trkpt>
      <trkpt lat="46.55318" lon="5.76657">
        <ele>590.79998779297</ele>
        <time>2013-04-28T07:57:07.000Z</time>
      </trkpt>
      <trkpt lat="46.5532" lon="5.76661">
        <ele>591.59997558594</ele>
        <time>2013-04-28T07:57:10.000Z</time>
      </trkpt>
      <trkpt lat="46.5532" lon="5.76666">
        <ele>592.59997558594</ele>
        <time>2013-04-28T07:57:13.000Z</time>
      </trkpt>
      <trkpt lat="46.5532" lon="5.7667">
        <ele>593.59997558594</ele>
        <time>2013-04-28T07:57:16.000Z</time>
      </trkpt>
      <trkpt lat="46.55319" lon="5.76674">
        <ele>594.20001220703</ele>
        <time>2013-04-28T07:57:18.000Z</time>
      </trkpt>
      <trkpt lat="46.55319" lon="5.76675">
        <ele>594.40002441406</ele>
        <time>2013-04-28T07:57:19.000Z</time>
      </trkpt>
      <trkpt lat="46.55321" lon="5.76682">
        <ele>595.40002441406</ele>
        <time>2013-04-28T07:57:25.000Z</time>
      </trkpt>
      <trkpt lat="46.5532" lon="5.76688">
        <ele>596.59997558594</ele>
        <time>2013-04-28T07:57:31.000Z</time>
      </trkpt>
      <trkpt lat="46.5532" lon="5.76694">
        <ele>597.79998779297</ele>
        <time>2013-04-28T07:57:36.000Z</time>
      </trkpt>
      <trkpt lat="46.5532" lon="5.76696">
        <ele>598</ele>
        <time>2013-04-28T07:57:37.000Z</time>
      </trkpt>
      <trkpt lat="46.5532" lon="5.767">
        <ele>598.59997558594</ele>
        <time>2013-04-28T07:57:39.000Z</time>
      </trkpt>
      <trkpt lat="46.5532" lon="5.76701">
        <ele>598.79998779297</ele>
        <time>2013-04-28T07:57:40.000Z</time>
      </trkpt>
      <trkpt lat="46.5532" lon="5.76703">
        <ele>599.20001220703</ele>
        <time>2013-04-28T07:57:41.000Z</time>
      </trkpt>
      <trkpt lat="46.5532" lon="5.76709">
        <ele>600.20001220703</ele>
        <time>2013-04-28T07:57:44.000Z</time>
      </trkpt>
      <trkpt lat="46.55318" lon="5.76717">
        <ele>601.79998779297</ele>
        <time>2013-04-28T07:57:51.000Z</time>
      </trkpt>
      <trkpt lat="46.55317" lon="5.76721">
        <ele>603</ele>
        <time>2013-04-28T07:57:54.000Z</time>
      </trkpt>
      <trkpt lat="46.55316" lon="5.76723">
        <ele>603.40002441406</ele>
        <time>2013-04-28T07:57:55.000Z</time>
      </trkpt>
      <trkpt lat="46.55313" lon="5.76729">
        <ele>605</ele>
        <time>2013-04-28T07:58:00.000Z</time>
      </trkpt>
      <trkpt lat="46.55313" lon="5.7673">
        <ele>605.20001220703</ele>
        <time>2013-04-28T07:58:01.000Z</time>
      </trkpt>
      <trkpt lat="46.55312" lon="5.76734">
        <ele>606</ele>
        <time>2013-04-28T07:58:05.000Z</time>
      </trkpt>
      <trkpt lat="46.55312" lon="5.7674">
        <ele>607</ele>
        <time>2013-04-28T07:58:10.000Z</time>
      </trkpt>
      <trkpt lat="46.55311" lon="5.76745">
        <ele>608</ele>
        <time>2013-04-28T07:58:15.000Z</time>
      </trkpt>
      <trkpt lat="46.55309" lon="5.76749">
        <ele>609.20001220703</ele>
        <time>2013-04-28T07:58:18.000Z</time>
      </trkpt>
      <trkpt lat="46.5531" lon="5.76751">
        <ele>609.40002441406</ele>
        <time>2013-04-28T07:58:19.000Z</time>
      </trkpt>
      <trkpt lat="46.55309" lon="5.76759">
        <ele>610.59997558594</ele>
        <time>2013-04-28T07:58:24.000Z</time>
      </trkpt>
      <trkpt lat="46.55308" lon="5.76768">
        <ele>612</ele>
        <time>2013-04-28T07:58:30.000Z</time>
      </trkpt>
      <trkpt lat="46.55307" lon="5.76773">
        <ele>612.59997558594</ele>
        <time>2013-04-28T07:58:33.000Z</time>
      </trkpt>
      <trkpt lat="46.55306" lon="5.76775">
        <ele>613.20001220703</ele>
        <time>2013-04-28T07:58:35.000Z</time>
      </trkpt>
      <trkpt lat="46.55302" lon="5.7678">
        <ele>614.40002441406</ele>
        <time>2013-04-28T07:58:40.000Z</time>
      </trkpt>
      <trkpt lat="46.553" lon="5.76786">
        <ele>615.40002441406</ele>
        <time>2013-04-28T07:58:45.000Z</time>
      </trkpt>
      <trkpt lat="46.553" lon="5.76791">
        <ele>616.20001220703</ele>
        <time>2013-04-28T07:58:50.000Z</time>
      </trkpt>
      <trkpt lat="46.553" lon="5.76792">
        <ele>616.20001220703</ele>
        <time>2013-04-28T07:58:51.000Z</time>
      </trkpt>
      <trkpt lat="46.55294" lon="5.76797">
        <ele>617.59997558594</ele>
        <time>2013-04-28T07:58:55.000Z</time>
      </trkpt>
      <trkpt lat="46.55291" lon="5.76803">
        <ele>618.79998779297</ele>
        <time>2013-04-28T07:59:00.000Z</time>
      </trkpt>
      <trkpt lat="46.55291" lon="5.76803">
        <ele>619</ele>
        <time>2013-04-28T07:59:01.000Z</time>
      </trkpt>
      <trkpt lat="46.5529" lon="5.76803">
        <ele>619</ele>
        <time>2013-04-28T07:59:02.000Z</time>
      </trkpt>
      <trkpt lat="46.55285" lon="5.76804">
        <ele>619.79998779297</ele>
        <time>2013-04-28T07:59:06.000Z</time>
      </trkpt>
      <trkpt lat="46.55284" lon="5.76805">
        <ele>620</ele>
        <time>2013-04-28T07:59:08.000Z</time>
      </trkpt>
      <trkpt lat="46.55282" lon="5.76806">
        <ele>620.40002441406</ele>
        <time>2013-04-28T07:59:11.000Z</time>
      </trkpt>
      <trkpt lat="46.55282" lon="5.76806">
        <ele>620.40002441406</ele>
        <time>2013-04-28T07:59:12.000Z</time>
      </trkpt>
      <trkpt lat="46.55281" lon="5.76778">
        <ele>617.59997558594</ele>
        <time>2013-04-28T07:59:49.000Z</time>
      </trkpt>
      <trkpt lat="46.5528" lon="5.76773">
        <ele>617</ele>
        <time>2013-04-28T07:59:53.000Z</time>
      </trkpt>
      <trkpt lat="46.55281" lon="5.76765">
        <ele>616</ele>
        <time>2013-04-28T08:00:01.000Z</time>
      </trkpt>
      <trkpt lat="46.55282" lon="5.76764">
        <ele>615.79998779297</ele>
        <time>2013-04-28T08:00:02.000Z</time>
      </trkpt>
      <trkpt lat="46.55284" lon="5.76755">
        <ele>614.40002441406</ele>
        <time>2013-04-28T08:00:09.000Z</time>
      </trkpt>
      <trkpt lat="46.55283" lon="5.76749">
        <ele>613.59997558594</ele>
        <time>2013-04-28T08:00:13.000Z</time>
      </trkpt>
      <trkpt lat="46.55285" lon="5.76744">
        <ele>612.40002441406</ele>
        <time>2013-04-28T08:00:16.000Z</time>
      </trkpt>
      <trkpt lat="46.55286" lon="5.76741">
        <ele>611.79998779297</ele>
        <time>2013-04-28T08:00:18.000Z</time>
      </trkpt>
      <trkpt lat="46.55286" lon="5.76738">
        <ele>611.40002441406</ele>
        <time>2013-04-28T08:00:19.000Z</time>
      </trkpt>
      <trkpt lat="46.55285" lon="5.76731">
        <ele>610.20001220703</ele>
        <time>2013-04-28T08:00:22.000Z</time>
      </trkpt>
      <trkpt lat="46.55283" lon="5.76724">
        <ele>609.20001220703</ele>
        <time>2013-04-28T08:00:26.000Z</time>
      </trkpt>
      <trkpt lat="46.55283" lon="5.76722">
        <ele>608.79998779297</ele>
        <time>2013-04-28T08:00:27.000Z</time>
      </trkpt>
      <trkpt lat="46.55279" lon="5.76717">
        <ele>608.40002441406</ele>
        <time>2013-04-28T08:00:30.000Z</time>
      </trkpt>
      <trkpt lat="46.55273" lon="5.76712">
        <ele>608.79998779297</ele>
        <time>2013-04-28T08:00:34.000Z</time>
      </trkpt>
      <trkpt lat="46.55272" lon="5.76711">
        <ele>608.59997558594</ele>
        <time>2013-04-28T08:00:35.000Z</time>
      </trkpt>
      <trkpt lat="46.55269" lon="5.76703">
        <ele>607.59997558594</ele>
        <time>2013-04-28T08:00:39.000Z</time>
      </trkpt>
      <trkpt lat="46.55265" lon="5.767">
        <ele>607.79998779297</ele>
        <time>2013-04-28T08:00:42.000Z</time>
      </trkpt>
      <trkpt lat="46.55262" lon="5.76698">
        <ele>608</ele>
        <time>2013-04-28T08:00:44.000Z</time>
      </trkpt>
      <trkpt lat="46.55259" lon="5.76699">
        <ele>608.59997558594</ele>
        <time>2013-04-28T08:00:46.000Z</time>
      </trkpt>
      <trkpt lat="46.55256" lon="5.76698">
        <ele>608.79998779297</ele>
        <time>2013-04-28T08:00:47.000Z</time>
      </trkpt>
      <trkpt lat="46.55254" lon="5.76693">
        <ele>608.40002441406</ele>
        <time>2013-04-28T08:00:49.000Z</time>
      </trkpt>
      <trkpt lat="46.55252" lon="5.76692">
        <ele>608.40002441406</ele>
        <time>2013-04-28T08:00:50.000Z</time>
      </trkpt>
      <trkpt lat="46.55247" lon="5.7669">
        <ele>608.79998779297</ele>
        <time>2013-04-28T08:00:53.000Z</time>
      </trkpt>
      <trkpt lat="46.55238" lon="5.76694">
        <ele>610.59997558594</ele>
        <time>2013-04-28T08:00:58.000Z</time>
      </trkpt>
      <trkpt lat="46.55232" lon="5.76692">
        <ele>611</ele>
        <time>2013-04-28T08:01:02.000Z</time>
      </trkpt>
      <trkpt lat="46.55231" lon="5.76692">
        <ele>611.20001220703</ele>
        <time>2013-04-28T08:01:03.000Z</time>
      </trkpt>
      <trkpt lat="46.55227" lon="5.76691">
        <ele>611.40002441406</ele>
        <time>2013-04-28T08:01:05.000Z</time>
      </trkpt>
      <trkpt lat="46.55219" lon="5.76689">
        <ele>612.20001220703</ele>
        <time>2013-04-28T08:01:09.000Z</time>
      </trkpt>
      <trkpt lat="46.55213" lon="5.76687">
        <ele>612.59997558594</ele>
        <time>2013-04-28T08:01:13.000Z</time>
      </trkpt>
      <trkpt lat="46.5521" lon="5.76686">
        <ele>612.79998779297</ele>
        <time>2013-04-28T08:01:16.000Z</time>
      </trkpt>
      <trkpt lat="46.55209" lon="5.76686">
        <ele>613</ele>
        <time>2013-04-28T08:01:17.000Z</time>
      </trkpt>
      <trkpt lat="46.55205" lon="5.76684">
        <ele>613.20001220703</ele>
        <time>2013-04-28T08:01:21.000Z</time>
      </trkpt>
      <trkpt lat="46.55201" lon="5.76682">
        <ele>613.40002441406</ele>
        <time>2013-04-28T08:01:24.000Z</time>
      </trkpt>
      <trkpt lat="46.55197" lon="5.7668">
        <ele>613.59997558594</ele>
        <time>2013-04-28T08:01:27.000Z</time>
      </trkpt>
      <trkpt lat="46.55197" lon="5.76679">
        <ele>613.40002441406</ele>
        <time>2013-04-28T08:01:28.000Z</time>
      </trkpt>
      <trkpt lat="46.55194" lon="5.76678">
        <ele>613.59997558594</ele>
        <time>2013-04-28T08:01:29.000Z</time>
      </trkpt>
      <trkpt lat="46.5519" lon="5.76676">
        <ele>613.79998779297</ele>
        <time>2013-04-28T08:01:31.000Z</time>
      </trkpt>
      <trkpt lat="46.55184" lon="5.76671">
        <ele>614.20001220703</ele>
        <time>2013-04-28T08:01:35.000Z</time>
      </trkpt>
      <trkpt lat="46.55178" lon="5.76666">
        <ele>614.20001220703</ele>
        <time>2013-04-28T08:01:40.000Z</time>
      </trkpt>
      <trkpt lat="46.55175" lon="5.76662">
        <ele>613.59997558594</ele>
        <time>2013-04-28T08:01:43.000Z</time>
      </trkpt>
      <trkpt lat="46.55172" lon="5.76657">
        <ele>612.79998779297</ele>
        <time>2013-04-28T08:01:46.000Z</time>
      </trkpt>
      <trkpt lat="46.55171" lon="5.76656">
        <ele>612.40002441406</ele>
        <time>2013-04-28T08:01:47.000Z</time>
      </trkpt>
      <trkpt lat="46.5517" lon="5.76654">
        <ele>612.20001220703</ele>
        <time>2013-04-28T08:01:48.000Z</time>
      </trkpt>
      <trkpt lat="46.55166" lon="5.76646">
        <ele>611</ele>
        <time>2013-04-28T08:01:52.000Z</time>
      </trkpt>
      <trkpt lat="46.55159" lon="5.7664">
        <ele>611</ele>
        <time>2013-04-28T08:01:56.000Z</time>
      </trkpt>
      <trkpt lat="46.55157" lon="5.76639">
        <ele>611</ele>
        <time>2013-04-28T08:01:57.000Z</time>
      </trkpt>
      <trkpt lat="46.55155" lon="5.76638">
        <ele>611.40002441406</ele>
        <time>2013-04-28T08:01:59.000Z</time>
      </trkpt>
      <trkpt lat="46.55152" lon="5.76632">
        <ele>610.59997558594</ele>
        <time>2013-04-28T08:02:01.000Z</time>
      </trkpt>
      <trkpt lat="46.55151" lon="5.76629">
        <ele>610.20001220703</ele>
        <time>2013-04-28T08:02:02.000Z</time>
      </trkpt>
      <trkpt lat="46.55148" lon="5.7662">
        <ele>609.20001220703</ele>
        <time>2013-04-28T08:02:05.000Z</time>
      </trkpt>
      <trkpt lat="46.55138" lon="5.76614">
        <ele>610.40002441406</ele>
        <time>2013-04-28T08:02:10.000Z</time>
      </trkpt>
      <trkpt lat="46.55137" lon="5.76613">
        <ele>610.59997558594</ele>
        <time>2013-04-28T08:02:11.000Z</time>
      </trkpt>
      <trkpt lat="46.55131" lon="5.76603">
        <ele>610.40002441406</ele>
        <time>2013-04-28T08:02:14.000Z</time>
      </trkpt>
      <trkpt lat="46.5513" lon="5.76595">
        <ele>609.20001220703</ele>
        <time>2013-04-28T08:02:17.000Z</time>
      </trkpt>
      <trkpt lat="46.55129" lon="5.76591">
        <ele>609</ele>
        <time>2013-04-28T08:02:19.000Z</time>
      </trkpt>
      <trkpt lat="46.55128" lon="5.76589">
        <ele>608.79998779297</ele>
        <time>2013-04-28T08:02:21.000Z</time>
      </trkpt>
      <trkpt lat="46.55124" lon="5.76582">
        <ele>608.79998779297</ele>
        <time>2013-04-28T08:02:24.000Z</time>
      </trkpt>
      <trkpt lat="46.55118" lon="5.76572">
        <ele>609.20001220703</ele>
        <time>2013-04-28T08:02:29.000Z</time>
      </trkpt>
      <trkpt lat="46.55117" lon="5.7657">
        <ele>609.40002441406</ele>
        <time>2013-04-28T08:02:30.000Z</time>
      </trkpt>
      <trkpt lat="46.55108" lon="5.76553">
        <ele>609.79998779297</ele>
        <time>2013-04-28T08:02:37.000Z</time>
      </trkpt>
      <trkpt lat="46.55106" lon="5.76547">
        <ele>609.59997558594</ele>
        <time>2013-04-28T08:02:38.000Z</time>
      </trkpt>
      <trkpt lat="46.55102" lon="5.76536">
        <ele>609.79998779297</ele>
        <time>2013-04-28T08:02:42.000Z</time>
      </trkpt>
      <trkpt lat="46.55097" lon="5.7652">
        <ele>609.79998779297</ele>
        <time>2013-04-28T08:02:47.000Z</time>
      </trkpt>
      <trkpt lat="46.55088" lon="5.76509">
        <ele>612.79998779297</ele>
        <time>2013-04-28T08:02:52.000Z</time>
      </trkpt>
      <trkpt lat="46.55083" lon="5.76501">
        <ele>614</ele>
        <time>2013-04-28T08:02:56.000Z</time>
      </trkpt>
      <trkpt lat="46.55083" lon="5.76499">
        <ele>613.59997558594</ele>
        <time>2013-04-28T08:02:57.000Z</time>
      </trkpt>
      <trkpt lat="46.55083" lon="5.76488">
        <ele>611.40002441406</ele>
        <time>2013-04-28T08:03:01.000Z</time>
      </trkpt>
      <trkpt lat="46.55082" lon="5.76484">
        <ele>610.59997558594</ele>
        <time>2013-04-28T08:03:02.000Z</time>
      </trkpt>
      <trkpt lat="46.55081" lon="5.76476">
        <ele>609.40002441406</ele>
        <time>2013-04-28T08:03:06.000Z</time>
      </trkpt>
      <trkpt lat="46.55079" lon="5.76476">
        <ele>609.40002441406</ele>
        <time>2013-04-28T08:03:07.000Z</time>
      </trkpt>
      <trkpt lat="46.55075" lon="5.76469">
        <ele>608.59997558594</ele>
        <time>2013-04-28T08:03:12.000Z</time>
      </trkpt>
      <trkpt lat="46.5507" lon="5.76462">
        <ele>608</ele>
        <time>2013-04-28T08:03:17.000Z</time>
      </trkpt>
      <trkpt lat="46.55067" lon="5.76454">
        <ele>607.20001220703</ele>
        <time>2013-04-28T08:03:21.000Z</time>
      </trkpt>
      <trkpt lat="46.55063" lon="5.76445">
        <ele>606</ele>
        <time>2013-04-28T08:03:25.000Z</time>
      </trkpt>
      <trkpt lat="46.55062" lon="5.76444">
        <ele>606.20001220703</ele>
        <time>2013-04-28T08:03:26.000Z</time>
      </trkpt>
      <trkpt lat="46.55058" lon="5.76436">
        <ele>605.20001220703</ele>
        <time>2013-04-28T08:03:29.000Z</time>
      </trkpt>
      <trkpt lat="46.55057" lon="5.7643">
        <ele>604.59997558594</ele>
        <time>2013-04-28T08:03:31.000Z</time>
      </trkpt>
      <trkpt lat="46.55056" lon="5.76429">
        <ele>604.40002441406</ele>
        <time>2013-04-28T08:03:32.000Z</time>
      </trkpt>
      <trkpt lat="46.55052" lon="5.76424">
        <ele>604.59997558594</ele>
        <time>2013-04-28T08:03:35.000Z</time>
      </trkpt>
      <trkpt lat="46.5505" lon="5.76418">
        <ele>604</ele>
        <time>2013-04-28T08:03:38.000Z</time>
      </trkpt>
      <trkpt lat="46.55048" lon="5.76415">
        <ele>603.59997558594</ele>
        <time>2013-04-28T08:03:40.000Z</time>
      </trkpt>
      <trkpt lat="46.55047" lon="5.76412">
        <ele>603.20001220703</ele>
        <time>2013-04-28T08:03:41.000Z</time>
      </trkpt>
      <trkpt lat="46.55046" lon="5.76407">
        <ele>602.59997558594</ele>
        <time>2013-04-28T08:03:42.000Z</time>
      </trkpt>
      <trkpt lat="46.55045" lon="5.76398">
        <ele>601</ele>
        <time>2013-04-28T08:03:45.000Z</time>
      </trkpt>
      <trkpt lat="46.5504" lon="5.76388">
        <ele>600.59997558594</ele>
        <time>2013-04-28T08:03:49.000Z</time>
      </trkpt>
      <trkpt lat="46.55037" lon="5.76386">
        <ele>601</ele>
        <time>2013-04-28T08:03:50.000Z</time>
      </trkpt>
      <trkpt lat="46.55025" lon="5.76373">
        <ele>602.59997558594</ele>
        <time>2013-04-28T08:03:56.000Z</time>
      </trkpt>
      <trkpt lat="46.55023" lon="5.76363">
        <ele>602</ele>
        <time>2013-04-28T08:03:59.000Z</time>
      </trkpt>
      <trkpt lat="46.55023" lon="5.76361">
        <ele>601.59997558594</ele>
        <time>2013-04-28T08:04:00.000Z</time>
      </trkpt>
      <trkpt lat="46.55023" lon="5.76356">
        <ele>600.79998779297</ele>
        <time>2013-04-28T08:04:02.000Z</time>
      </trkpt>
      <trkpt lat="46.5502" lon="5.7634">
        <ele>600.20001220703</ele>
        <time>2013-04-28T08:04:07.000Z</time>
      </trkpt>
      <trkpt lat="46.55012" lon="5.76327">
        <ele>601.40002441406</ele>
        <time>2013-04-28T08:04:12.000Z</time>
      </trkpt>
      <trkpt lat="46.55007" lon="5.76316">
        <ele>601.79998779297</ele>
        <time>2013-04-28T08:04:18.000Z</time>
      </trkpt>
      <trkpt lat="46.55006" lon="5.7631">
        <ele>601.59997558594</ele>
        <time>2013-04-28T08:04:25.000Z</time>
      </trkpt>
      <trkpt lat="46.55003" lon="5.76302">
        <ele>601.79998779297</ele>
        <time>2013-04-28T08:04:32.000Z</time>
      </trkpt>
      <trkpt lat="46.55003" lon="5.76301">
        <ele>601.79998779297</ele>
        <time>2013-04-28T08:04:35.000Z</time>
      </trkpt>
      <trkpt lat="46.54997" lon="5.76288">
        <ele>601.20001220703</ele>
        <time>2013-04-28T08:04:44.000Z</time>
      </trkpt>
      <trkpt lat="46.54996" lon="5.76287">
        <ele>601.20001220703</ele>
        <time>2013-04-28T08:04:45.000Z</time>
      </trkpt>
      <trkpt lat="46.54991" lon="5.76275">
        <ele>600</ele>
        <time>2013-04-28T08:04:49.000Z</time>
      </trkpt>
      <trkpt lat="46.54987" lon="5.76266">
        <ele>599.59997558594</ele>
        <time>2013-04-28T08:04:52.000Z</time>
      </trkpt>
      <trkpt lat="46.54985" lon="5.7626">
        <ele>599</ele>
        <time>2013-04-28T08:04:54.000Z</time>
      </trkpt>
      <trkpt lat="46.54984" lon="5.76255">
        <ele>598.59997558594</ele>
        <time>2013-04-28T08:04:56.000Z</time>
      </trkpt>
      <trkpt lat="46.54981" lon="5.76254">
        <ele>598.79998779297</ele>
        <time>2013-04-28T08:04:58.000Z</time>
      </trkpt>
      <trkpt lat="46.54979" lon="5.76251">
        <ele>598.79998779297</ele>
        <time>2013-04-28T08:04:59.000Z</time>
      </trkpt>
      <trkpt lat="46.54963" lon="5.76239">
        <ele>599.40002441406</ele>
        <time>2013-04-28T08:05:05.000Z</time>
      </trkpt>
      <trkpt lat="46.54958" lon="5.76235">
        <ele>599.40002441406</ele>
        <time>2013-04-28T08:05:07.000Z</time>
      </trkpt>
      <trkpt lat="46.54954" lon="5.76225">
        <ele>598.59997558594</ele>
        <time>2013-04-28T08:05:10.000Z</time>
      </trkpt>
      <trkpt lat="46.54948" lon="5.76208">
        <ele>597.20001220703</ele>
        <time>2013-04-28T08:05:15.000Z</time>
      </trkpt>
      <trkpt lat="46.54947" lon="5.76201">
        <ele>596.40002441406</ele>
        <time>2013-04-28T08:05:20.000Z</time>
      </trkpt>
      <trkpt lat="46.54947" lon="5.76193">
        <ele>595</ele>
        <time>2013-04-28T08:05:25.000Z</time>
      </trkpt>
      <trkpt lat="46.54947" lon="5.76192">
        <ele>594.79998779297</ele>
        <time>2013-04-28T08:05:26.000Z</time>
      </trkpt>
      <trkpt lat="46.54946" lon="5.76186">
        <ele>594</ele>
        <time>2013-04-28T08:05:30.000Z</time>
      </trkpt>
      <trkpt lat="46.54946" lon="5.76185">
        <ele>594.20001220703</ele>
        <time>2013-04-28T08:05:31.000Z</time>
      </trkpt>
      <trkpt lat="46.54944" lon="5.76179">
        <ele>593.79998779297</ele>
        <time>2013-04-28T08:05:34.000Z</time>
      </trkpt>
      <trkpt lat="46.54944" lon="5.76176">
        <ele>593.20001220703</ele>
        <time>2013-04-28T08:05:36.000Z</time>
      </trkpt>
      <trkpt lat="46.54942" lon="5.76172">
        <ele>593.40002441406</ele>
        <time>2013-04-28T08:05:41.000Z</time>
      </trkpt>
      <trkpt lat="46.54941" lon="5.76166">
        <ele>593</ele>
        <time>2013-04-28T08:05:43.000Z</time>
      </trkpt>
      <trkpt lat="46.5494" lon="5.76161">
        <ele>592.40002441406</ele>
        <time>2013-04-28T08:05:46.000Z</time>
      </trkpt>
      <trkpt lat="46.54938" lon="5.76157">
        <ele>592.59997558594</ele>
        <time>2013-04-28T08:05:47.000Z</time>
      </trkpt>
      <trkpt lat="46.54937" lon="5.76156">
        <ele>592.59997558594</ele>
        <time>2013-04-28T08:05:48.000Z</time>
      </trkpt>
      <trkpt lat="46.54935" lon="5.76154">
        <ele>593.20001220703</ele>
        <time>2013-04-28T08:05:51.000Z</time>
      </trkpt>
      <trkpt lat="46.54932" lon="5.76152">
        <ele>594</ele>
        <time>2013-04-28T08:05:53.000Z</time>
      </trkpt>
      <trkpt lat="46.5493" lon="5.7615">
        <ele>594.40002441406</ele>
        <time>2013-04-28T08:05:54.000Z</time>
      </trkpt>
      <trkpt lat="46.54925" lon="5.76138">
        <ele>594.59997558594</ele>
        <time>2013-04-28T08:05:59.000Z</time>
      </trkpt>
      <trkpt lat="46.54924" lon="5.76132">
        <ele>594</ele>
        <time>2013-04-28T08:06:02.000Z</time>
      </trkpt>
      <trkpt lat="46.54919" lon="5.76125">
        <ele>594.79998779297</ele>
        <time>2013-04-28T08:06:05.000Z</time>
      </trkpt>
      <trkpt lat="46.54918" lon="5.76122">
        <ele>594.59997558594</ele>
        <time>2013-04-28T08:06:06.000Z</time>
      </trkpt>
      <trkpt lat="46.54914" lon="5.76116">
        <ele>594.40002441406</ele>
        <time>2013-04-28T08:06:09.000Z</time>
      </trkpt>
      <trkpt lat="46.54914" lon="5.76114">
        <ele>594.20001220703</ele>
        <time>2013-04-28T08:06:10.000Z</time>
      </trkpt>
      <trkpt lat="46.54908" lon="5.76109">
        <ele>593.59997558594</ele>
        <time>2013-04-28T08:06:14.000Z</time>
      </trkpt>
      <trkpt lat="46.54907" lon="5.7611">
        <ele>593.79998779297</ele>
        <time>2013-04-28T08:06:15.000Z</time>
      </trkpt>
      <trkpt lat="46.54901" lon="5.7611">
        <ele>594.20001220703</ele>
        <time>2013-04-28T08:06:17.000Z</time>
      </trkpt>
      <trkpt lat="46.54894" lon="5.76111">
        <ele>594.59997558594</ele>
        <time>2013-04-28T08:06:19.000Z</time>
      </trkpt>
      <trkpt lat="46.54887" lon="5.76114">
        <ele>595.40002441406</ele>
        <time>2013-04-28T08:06:22.000Z</time>
      </trkpt>
      <trkpt lat="46.54882" lon="5.76118">
        <ele>596</ele>
        <time>2013-04-28T08:06:24.000Z</time>
      </trkpt>
      <trkpt lat="46.54876" lon="5.76132">
        <ele>597.59997558594</ele>
        <time>2013-04-28T08:06:29.000Z</time>
      </trkpt>
      <trkpt lat="46.54868" lon="5.7615">
        <ele>599.20001220703</ele>
        <time>2013-04-28T08:06:35.000Z</time>
      </trkpt>
      <trkpt lat="46.54868" lon="5.76156">
        <ele>599.59997558594</ele>
        <time>2013-04-28T08:06:37.000Z</time>
      </trkpt>
      <trkpt lat="46.54868" lon="5.76165">
        <ele>600.40002441406</ele>
        <time>2013-04-28T08:06:40.000Z</time>
      </trkpt>
      <trkpt lat="46.54866" lon="5.76183">
        <ele>601.59997558594</ele>
        <time>2013-04-28T08:06:45.000Z</time>
      </trkpt>
      <trkpt lat="46.54863" lon="5.76202">
        <ele>602.79998779297</ele>
        <time>2013-04-28T08:06:50.000Z</time>
      </trkpt>
      <trkpt lat="46.54861" lon="5.76227">
        <ele>604.40002441406</ele>
        <time>2013-04-28T08:06:57.000Z</time>
      </trkpt>
      <trkpt lat="46.54862" lon="5.76237">
        <ele>605</ele>
        <time>2013-04-28T08:07:01.000Z</time>
      </trkpt>
      <trkpt lat="46.54862" lon="5.76248">
        <ele>605.79998779297</ele>
        <time>2013-04-28T08:07:04.000Z</time>
      </trkpt>
      <trkpt lat="46.54861" lon="5.76251">
        <ele>606</ele>
        <time>2013-04-28T08:07:05.000Z</time>
      </trkpt>
      <trkpt lat="46.54863" lon="5.76269">
        <ele>607.40002441406</ele>
        <time>2013-04-28T08:07:10.000Z</time>
      </trkpt>
      <trkpt lat="46.54868" lon="5.76282">
        <ele>608.59997558594</ele>
        <time>2013-04-28T08:07:14.000Z</time>
      </trkpt>
      <trkpt lat="46.54869" lon="5.7629">
        <ele>609.20001220703</ele>
        <time>2013-04-28T08:07:16.000Z</time>
      </trkpt>
      <trkpt lat="46.54868" lon="5.76306">
        <ele>610.40002441406</ele>
        <time>2013-04-28T08:07:20.000Z</time>
      </trkpt>
      <trkpt lat="46.54864" lon="5.76329">
        <ele>611.79998779297</ele>
        <time>2013-04-28T08:07:26.000Z</time>
      </trkpt>
      <trkpt lat="46.54862" lon="5.76351">
        <ele>612.40002441406</ele>
        <time>2013-04-28T08:07:32.000Z</time>
      </trkpt>
      <trkpt lat="46.5486" lon="5.76363">
        <ele>612.59997558594</ele>
        <time>2013-04-28T08:07:36.000Z</time>
      </trkpt>
      <trkpt lat="46.5486" lon="5.76379">
        <ele>613</ele>
        <time>2013-04-28T08:07:40.000Z</time>
      </trkpt>
      <trkpt lat="46.54859" lon="5.76393">
        <ele>613.20001220703</ele>
        <time>2013-04-28T08:07:44.000Z</time>
      </trkpt>
      <trkpt lat="46.5486" lon="5.76396">
        <ele>613.40002441406</ele>
        <time>2013-04-28T08:07:45.000Z</time>
      </trkpt>
      <trkpt lat="46.5486" lon="5.76402">
        <ele>613.59997558594</ele>
        <time>2013-04-28T08:07:47.000Z</time>
      </trkpt>
      <trkpt lat="46.54859" lon="5.76405">
        <ele>613.59997558594</ele>
        <time>2013-04-28T08:07:48.000Z</time>
      </trkpt>
      <trkpt lat="46.54856" lon="5.76417">
        <ele>613.79998779297</ele>
        <time>2013-04-28T08:07:53.000Z</time>
      </trkpt>
      <trkpt lat="46.54851" lon="5.7643">
        <ele>614.59997558594</ele>
        <time>2013-04-28T08:07:57.000Z</time>
      </trkpt>
      <trkpt lat="46.54849" lon="5.76432">
        <ele>614.59997558594</ele>
        <time>2013-04-28T08:07:58.000Z</time>
      </trkpt>
      <trkpt lat="46.54837" lon="5.76447">
        <ele>615.20001220703</ele>
        <time>2013-04-28T08:08:05.000Z</time>
      </trkpt>
      <trkpt lat="46.54825" lon="5.76462">
        <ele>615.79998779297</ele>
        <time>2013-04-28T08:08:13.000Z</time>
      </trkpt>
      <trkpt lat="46.54819" lon="5.7647">
        <ele>616</ele>
        <time>2013-04-28T08:08:17.000Z</time>
      </trkpt>
      <trkpt lat="46.54812" lon="5.76485">
        <ele>616.79998779297</ele>
        <time>2013-04-28T08:08:22.000Z</time>
      </trkpt>
      <trkpt lat="46.54806" lon="5.76505">
        <ele>617.59997558594</ele>
        <time>2013-04-28T08:08:28.000Z</time>
      </trkpt>
      <trkpt lat="46.54803" lon="5.76514">
        <ele>618</ele>
        <time>2013-04-28T08:08:32.000Z</time>
      </trkpt>
      <trkpt lat="46.54804" lon="5.76518">
        <ele>618.40002441406</ele>
        <time>2013-04-28T08:08:34.000Z</time>
      </trkpt>
      <trkpt lat="46.54803" lon="5.76531">
        <ele>619.40002441406</ele>
        <time>2013-04-28T08:08:39.000Z</time>
      </trkpt>
      <trkpt lat="46.54803" lon="5.76534">
        <ele>619.59997558594</ele>
        <time>2013-04-28T08:08:40.000Z</time>
      </trkpt>
      <trkpt lat="46.54805" lon="5.76548">
        <ele>620.59997558594</ele>
        <time>2013-04-28T08:08:45.000Z</time>
      </trkpt>
      <trkpt lat="46.54806" lon="5.76554">
        <ele>621.20001220703</ele>
        <time>2013-04-28T08:08:47.000Z</time>
      </trkpt>
      <trkpt lat="46.54807" lon="5.76564">
        <ele>622</ele>
        <time>2013-04-28T08:08:50.000Z</time>
      </trkpt>
      <trkpt lat="46.54808" lon="5.76567">
        <ele>622.20001220703</ele>
        <time>2013-04-28T08:08:51.000Z</time>
      </trkpt>
      <trkpt lat="46.54813" lon="5.76589">
        <ele>624.20001220703</ele>
        <time>2013-04-28T08:08:58.000Z</time>
      </trkpt>
      <trkpt lat="46.54816" lon="5.766">
        <ele>625.40002441406</ele>
        <time>2013-04-28T08:09:02.000Z</time>
      </trkpt>
      <trkpt lat="46.54817" lon="5.76603">
        <ele>625.59997558594</ele>
        <time>2013-04-28T08:09:03.000Z</time>
      </trkpt>
      <trkpt lat="46.54821" lon="5.76611">
        <ele>626.40002441406</ele>
        <time>2013-04-28T08:09:06.000Z</time>
      </trkpt>
      <trkpt lat="46.54826" lon="5.76619">
        <ele>627.40002441406</ele>
        <time>2013-04-28T08:09:09.000Z</time>
      </trkpt>
      <trkpt lat="46.54833" lon="5.76635">
        <ele>629</ele>
        <time>2013-04-28T08:09:15.000Z</time>
      </trkpt>
      <trkpt lat="46.54837" lon="5.76651">
        <ele>630.20001220703</ele>
        <time>2013-04-28T08:09:21.000Z</time>
      </trkpt>
      <trkpt lat="46.54839" lon="5.7667">
        <ele>631.40002441406</ele>
        <time>2013-04-28T08:09:27.000Z</time>
      </trkpt>
      <trkpt lat="46.5484" lon="5.76688">
        <ele>632.59997558594</ele>
        <time>2013-04-28T08:09:32.000Z</time>
      </trkpt>
      <trkpt lat="46.54841" lon="5.76707">
        <ele>634</ele>
        <time>2013-04-28T08:09:38.000Z</time>
      </trkpt>
      <trkpt lat="46.54839" lon="5.76726">
        <ele>635.20001220703</ele>
        <time>2013-04-28T08:09:44.000Z</time>
      </trkpt>
      <trkpt lat="46.54836" lon="5.76744">
        <ele>636.40002441406</ele>
        <time>2013-04-28T08:09:50.000Z</time>
      </trkpt>
      <trkpt lat="46.54833" lon="5.76765">
        <ele>637.79998779297</ele>
        <time>2013-04-28T08:09:57.000Z</time>
      </trkpt>
      <trkpt lat="46.5483" lon="5.76783">
        <ele>638.59997558594</ele>
        <time>2013-04-28T08:10:03.000Z</time>
      </trkpt>
      <trkpt lat="46.5483" lon="5.76788">
        <ele>639</ele>
        <time>2013-04-28T08:10:05.000Z</time>
      </trkpt>
      <trkpt lat="46.54831" lon="5.76794">
        <ele>639.40002441406</ele>
        <time>2013-04-28T08:10:07.000Z</time>
      </trkpt>
      <trkpt lat="46.5483" lon="5.76797">
        <ele>639.40002441406</ele>
        <time>2013-04-28T08:10:08.000Z</time>
      </trkpt>
      <trkpt lat="46.54828" lon="5.76811">
        <ele>640.20001220703</ele>
        <time>2013-04-28T08:10:14.000Z</time>
      </trkpt>
      <trkpt lat="46.54826" lon="5.76832">
        <ele>641.20001220703</ele>
        <time>2013-04-28T08:10:22.000Z</time>
      </trkpt>
      <trkpt lat="46.54821" lon="5.7685">
        <ele>641.59997558594</ele>
        <time>2013-04-28T08:10:29.000Z</time>
      </trkpt>
      <trkpt lat="46.54819" lon="5.76863">
        <ele>641.79998779297</ele>
        <time>2013-04-28T08:10:34.000Z</time>
      </trkpt>
      <trkpt lat="46.54816" lon="5.76872">
        <ele>641.79998779297</ele>
        <time>2013-04-28T08:10:38.000Z</time>
      </trkpt>
      <trkpt lat="46.54815" lon="5.76875">
        <ele>642</ele>
        <time>2013-04-28T08:10:39.000Z</time>
      </trkpt>
      <trkpt lat="46.54811" lon="5.7689">
        <ele>642.20001220703</ele>
        <time>2013-04-28T08:10:45.000Z</time>
      </trkpt>
      <trkpt lat="46.54805" lon="5.76908">
        <ele>642.59997558594</ele>
        <time>2013-04-28T08:10:52.000Z</time>
      </trkpt>
      <trkpt lat="46.548" lon="5.76923">
        <ele>643.20001220703</ele>
        <time>2013-04-28T08:10:58.000Z</time>
      </trkpt>
      <trkpt lat="46.54796" lon="5.76939">
        <ele>644</ele>
        <time>2013-04-28T08:11:04.000Z</time>
      </trkpt>
      <trkpt lat="46.54794" lon="5.76949">
        <ele>644.59997558594</ele>
        <time>2013-04-28T08:11:08.000Z</time>
      </trkpt>
      <trkpt lat="46.5479" lon="5.76963">
        <ele>645.40002441406</ele>
        <time>2013-04-28T08:11:13.000Z</time>
      </trkpt>
      <trkpt lat="46.5479" lon="5.76966">
        <ele>645.59997558594</ele>
        <time>2013-04-28T08:11:14.000Z</time>
      </trkpt>
      <trkpt lat="46.54788" lon="5.76978">
        <ele>646.40002441406</ele>
        <time>2013-04-28T08:11:18.000Z</time>
      </trkpt>
      <trkpt lat="46.54787" lon="5.7698">
        <ele>646.59997558594</ele>
        <time>2013-04-28T08:11:19.000Z</time>
      </trkpt>
      <trkpt lat="46.54785" lon="5.7699">
        <ele>647.20001220703</ele>
        <time>2013-04-28T08:11:23.000Z</time>
      </trkpt>
      <trkpt lat="46.54783" lon="5.76995">
        <ele>647.59997558594</ele>
        <time>2013-04-28T08:11:25.000Z</time>
      </trkpt>
      <trkpt lat="46.54781" lon="5.77003">
        <ele>648.20001220703</ele>
        <time>2013-04-28T08:11:28.000Z</time>
      </trkpt>
      <trkpt lat="46.5478" lon="5.77008">
        <ele>648.59997558594</ele>
        <time>2013-04-28T08:11:30.000Z</time>
      </trkpt>
      <trkpt lat="46.54776" lon="5.77023">
        <ele>649.79998779297</ele>
        <time>2013-04-28T08:11:35.000Z</time>
      </trkpt>
      <trkpt lat="46.54775" lon="5.77027">
        <ele>650.20001220703</ele>
        <time>2013-04-28T08:11:37.000Z</time>
      </trkpt>
      <trkpt lat="46.54773" lon="5.77033">
        <ele>650.79998779297</ele>
        <time>2013-04-28T08:11:39.000Z</time>
      </trkpt>
      <trkpt lat="46.5477" lon="5.77047">
        <ele>652</ele>
        <time>2013-04-28T08:11:44.000Z</time>
      </trkpt>
      <trkpt lat="46.54763" lon="5.77059">
        <ele>653.20001220703</ele>
        <time>2013-04-28T08:11:48.000Z</time>
      </trkpt>
      <trkpt lat="46.54758" lon="5.77072">
        <ele>654.59997558594</ele>
        <time>2013-04-28T08:11:52.000Z</time>
      </trkpt>
      <trkpt lat="46.54755" lon="5.77078">
        <ele>655.20001220703</ele>
        <time>2013-04-28T08:11:54.000Z</time>
      </trkpt>
      <trkpt lat="46.54745" lon="5.77095">
        <ele>656.79998779297</ele>
        <time>2013-04-28T08:12:00.000Z</time>
      </trkpt>
      <trkpt lat="46.54738" lon="5.77108">
        <ele>657.79998779297</ele>
        <time>2013-04-28T08:12:05.000Z</time>
      </trkpt>
      <trkpt lat="46.54733" lon="5.77129">
        <ele>658.79998779297</ele>
        <time>2013-04-28T08:12:11.000Z</time>
      </trkpt>
      <trkpt lat="46.54729" lon="5.77151">
        <ele>660</ele>
        <time>2013-04-28T08:12:17.000Z</time>
      </trkpt>
      <trkpt lat="46.54725" lon="5.7716">
        <ele>660.59997558594</ele>
        <time>2013-04-28T08:12:20.000Z</time>
      </trkpt>
      <trkpt lat="46.54725" lon="5.77163">
        <ele>660.59997558594</ele>
        <time>2013-04-28T08:12:21.000Z</time>
      </trkpt>
      <trkpt lat="46.54723" lon="5.77174">
        <ele>661</ele>
        <time>2013-04-28T08:12:25.000Z</time>
      </trkpt>
      <trkpt lat="46.54723" lon="5.77183">
        <ele>661</ele>
        <time>2013-04-28T08:12:28.000Z</time>
      </trkpt>
      <trkpt lat="46.54723" lon="5.77191">
        <ele>661</ele>
        <time>2013-04-28T08:12:30.000Z</time>
      </trkpt>
      <trkpt lat="46.54724" lon="5.77211">
        <ele>661.20001220703</ele>
        <time>2013-04-28T08:12:36.000Z</time>
      </trkpt>
      <trkpt lat="46.5472" lon="5.77233">
        <ele>661.59997558594</ele>
        <time>2013-04-28T08:12:43.000Z</time>
      </trkpt>
      <trkpt lat="46.54715" lon="5.77242">
        <ele>661.79998779297</ele>
        <time>2013-04-28T08:12:46.000Z</time>
      </trkpt>
      <trkpt lat="46.54709" lon="5.77257">
        <ele>662.20001220703</ele>
        <time>2013-04-28T08:12:51.000Z</time>
      </trkpt>
      <trkpt lat="46.54701" lon="5.77272">
        <ele>662.40002441406</ele>
        <time>2013-04-28T08:12:57.000Z</time>
      </trkpt>
      <trkpt lat="46.54699" lon="5.77276">
        <ele>662.40002441406</ele>
        <time>2013-04-28T08:12:59.000Z</time>
      </trkpt>
      <trkpt lat="46.54696" lon="5.77282">
        <ele>662.40002441406</ele>
        <time>2013-04-28T08:13:03.000Z</time>
      </trkpt>
      <trkpt lat="46.54695" lon="5.77286">
        <ele>662.40002441406</ele>
        <time>2013-04-28T08:13:05.000Z</time>
      </trkpt>
      <trkpt lat="46.54694" lon="5.77291">
        <ele>662.40002441406</ele>
        <time>2013-04-28T08:13:08.000Z</time>
      </trkpt>
      <trkpt lat="46.54693" lon="5.77299">
        <ele>662.40002441406</ele>
        <time>2013-04-28T08:13:11.000Z</time>
      </trkpt>
      <trkpt lat="46.54692" lon="5.77301">
        <ele>662.40002441406</ele>
        <time>2013-04-28T08:13:12.000Z</time>
      </trkpt>
      <trkpt lat="46.54688" lon="5.77315">
        <ele>662.40002441406</ele>
        <time>2013-04-28T08:13:19.000Z</time>
      </trkpt>
      <trkpt lat="46.54688" lon="5.77321">
        <ele>662.40002441406</ele>
        <time>2013-04-28T08:13:22.000Z</time>
      </trkpt>
      <trkpt lat="46.54688" lon="5.77324">
        <ele>662.20001220703</ele>
        <time>2013-04-28T08:13:24.000Z</time>
      </trkpt>
      <trkpt lat="46.54689" lon="5.77329">
        <ele>662.20001220703</ele>
        <time>2013-04-28T08:13:27.000Z</time>
      </trkpt>
      <trkpt lat="46.5469" lon="5.77333">
        <ele>662</ele>
        <time>2013-04-28T08:13:30.000Z</time>
      </trkpt>
      <trkpt lat="46.5469" lon="5.77335">
        <ele>662</ele>
        <time>2013-04-28T08:13:31.000Z</time>
      </trkpt>
      <trkpt lat="46.54689" lon="5.7734">
        <ele>662</ele>
        <time>2013-04-28T08:13:34.000Z</time>
      </trkpt>
      <trkpt lat="46.5469" lon="5.77342">
        <ele>662</ele>
        <time>2013-04-28T08:13:35.000Z</time>
      </trkpt>
      <trkpt lat="46.54691" lon="5.77352">
        <ele>662</ele>
        <time>2013-04-28T08:13:40.000Z</time>
      </trkpt>
      <trkpt lat="46.54692" lon="5.77355">
        <ele>662</ele>
        <time>2013-04-28T08:13:42.000Z</time>
      </trkpt>
      <trkpt lat="46.54693" lon="5.7736">
        <ele>661.79998779297</ele>
        <time>2013-04-28T08:13:45.000Z</time>
      </trkpt>
      <trkpt lat="46.54693" lon="5.77363">
        <ele>661.79998779297</ele>
        <time>2013-04-28T08:13:47.000Z</time>
      </trkpt>
      <trkpt lat="46.54694" lon="5.77364">
        <ele>661.79998779297</ele>
        <time>2013-04-28T08:13:48.000Z</time>
      </trkpt>
      <trkpt lat="46.54694" lon="5.77366">
        <ele>661.79998779297</ele>
        <time>2013-04-28T08:13:49.000Z</time>
      </trkpt>
      <trkpt lat="46.54696" lon="5.77374">
        <ele>661.79998779297</ele>
        <time>2013-04-28T08:13:53.000Z</time>
      </trkpt>
      <trkpt lat="46.54695" lon="5.77382">
        <ele>662</ele>
        <time>2013-04-28T08:13:57.000Z</time>
      </trkpt>
      <trkpt lat="46.54692" lon="5.77396">
        <ele>662.20001220703</ele>
        <time>2013-04-28T08:14:01.000Z</time>
      </trkpt>
      <trkpt lat="46.54688" lon="5.77408">
        <ele>662.40002441406</ele>
        <time>2013-04-28T08:14:05.000Z</time>
      </trkpt>
      <trkpt lat="46.54681" lon="5.77424">
        <ele>663</ele>
        <time>2013-04-28T08:14:10.000Z</time>
      </trkpt>
      <trkpt lat="46.54676" lon="5.77434">
        <ele>663.59997558594</ele>
        <time>2013-04-28T08:14:14.000Z</time>
      </trkpt>
      <trkpt lat="46.54675" lon="5.77437">
        <ele>663.79998779297</ele>
        <time>2013-04-28T08:14:15.000Z</time>
      </trkpt>
      <trkpt lat="46.54667" lon="5.77456">
        <ele>665.20001220703</ele>
        <time>2013-04-28T08:14:23.000Z</time>
      </trkpt>
      <trkpt lat="46.54664" lon="5.77473">
        <ele>666.20001220703</ele>
        <time>2013-04-28T08:14:28.000Z</time>
      </trkpt>
      <trkpt lat="46.54664" lon="5.77476">
        <ele>666.40002441406</ele>
        <time>2013-04-28T08:14:29.000Z</time>
      </trkpt>
      <trkpt lat="46.54663" lon="5.77486">
        <ele>666.79998779297</ele>
        <time>2013-04-28T08:14:32.000Z</time>
      </trkpt>
      <trkpt lat="46.54658" lon="5.77506">
        <ele>667.59997558594</ele>
        <time>2013-04-28T08:14:38.000Z</time>
      </trkpt>
      <trkpt lat="46.54651" lon="5.77525">
        <ele>668.20001220703</ele>
        <time>2013-04-28T08:14:43.000Z</time>
      </trkpt>
      <trkpt lat="46.5465" lon="5.77527">
        <ele>668.20001220703</ele>
        <time>2013-04-28T08:14:44.000Z</time>
      </trkpt>
      <trkpt lat="46.54647" lon="5.77535">
        <ele>668.40002441406</ele>
        <time>2013-04-28T08:14:47.000Z</time>
      </trkpt>
      <trkpt lat="46.54642" lon="5.77545">
        <ele>668.59997558594</ele>
        <time>2013-04-28T08:14:51.000Z</time>
      </trkpt>
      <trkpt lat="46.54641" lon="5.77548">
        <ele>668.79998779297</ele>
        <time>2013-04-28T08:14:52.000Z</time>
      </trkpt>
      <trkpt lat="46.54638" lon="5.7756">
        <ele>669.20001220703</ele>
        <time>2013-04-28T08:14:55.000Z</time>
      </trkpt>
      <trkpt lat="46.54638" lon="5.77567">
        <ele>669.40002441406</ele>
        <time>2013-04-28T08:14:57.000Z</time>
      </trkpt>
      <trkpt lat="46.54642" lon="5.77573">
        <ele>669.79998779297</ele>
        <time>2013-04-28T08:15:00.000Z</time>
      </trkpt>
      <trkpt lat="46.54643" lon="5.77573">
        <ele>669.79998779297</ele>
        <time>2013-04-28T08:15:01.000Z</time>
      </trkpt>
      <trkpt lat="46.54644" lon="5.77571">
        <ele>669.79998779297</ele>
        <time>2013-04-28T08:15:02.000Z</time>
      </trkpt>
      <trkpt lat="46.54647" lon="5.77567">
        <ele>669.79998779297</ele>
        <time>2013-04-28T08:15:04.000Z</time>
      </trkpt>
      <trkpt lat="46.54656" lon="5.77564">
        <ele>669.79998779297</ele>
        <time>2013-04-28T08:15:08.000Z</time>
      </trkpt>
      <trkpt lat="46.54658" lon="5.77563">
        <ele>670</ele>
        <time>2013-04-28T08:15:10.000Z</time>
      </trkpt>
      <trkpt lat="46.54659" lon="5.77563">
        <ele>670</ele>
        <time>2013-04-28T08:15:11.000Z</time>
      </trkpt>
      <trkpt lat="46.54663" lon="5.77561">
        <ele>670</ele>
        <time>2013-04-28T08:15:14.000Z</time>
      </trkpt>
      <trkpt lat="46.54664" lon="5.7756">
        <ele>670</ele>
        <time>2013-04-28T08:15:15.000Z</time>
      </trkpt>
      <trkpt lat="46.54665" lon="5.77558">
        <ele>670</ele>
        <time>2013-04-28T08:15:16.000Z</time>
      </trkpt>
      <trkpt lat="46.54668" lon="5.77555">
        <ele>669.79998779297</ele>
        <time>2013-04-28T08:15:19.000Z</time>
      </trkpt>
      <trkpt lat="46.54673" lon="5.7755">
        <ele>669</ele>
        <time>2013-04-28T08:15:24.000Z</time>
      </trkpt>
      <trkpt lat="46.5468" lon="5.77548">
        <ele>668.40002441406</ele>
        <time>2013-04-28T08:15:29.000Z</time>
      </trkpt>
      <trkpt lat="46.54683" lon="5.77546">
        <ele>668</ele>
        <time>2013-04-28T08:15:31.000Z</time>
      </trkpt>
      <trkpt lat="46.54687" lon="5.77544">
        <ele>667.40002441406</ele>
        <time>2013-04-28T08:15:34.000Z</time>
      </trkpt>
      <trkpt lat="46.54692" lon="5.77539">
        <ele>666.79998779297</ele>
        <time>2013-04-28T08:15:37.000Z</time>
      </trkpt>
      <trkpt lat="46.54694" lon="5.77536">
        <ele>666.59997558594</ele>
        <time>2013-04-28T08:15:38.000Z</time>
      </trkpt>
      <trkpt lat="46.54704" lon="5.77527">
        <ele>665.20001220703</ele>
        <time>2013-04-28T08:15:43.000Z</time>
      </trkpt>
      <trkpt lat="46.54708" lon="5.77517">
        <ele>664.40002441406</ele>
        <time>2013-04-28T08:15:48.000Z</time>
      </trkpt>
      <trkpt lat="46.54708" lon="5.77515">
        <ele>664.40002441406</ele>
        <time>2013-04-28T08:15:49.000Z</time>
      </trkpt>
      <trkpt lat="46.54708" lon="5.77506">
        <ele>664.20001220703</ele>
        <time>2013-04-28T08:15:52.000Z</time>
      </trkpt>
      <trkpt lat="46.54709" lon="5.77503">
        <ele>664</ele>
        <time>2013-04-28T08:15:53.000Z</time>
      </trkpt>
      <trkpt lat="46.54715" lon="5.775">
        <ele>663.20001220703</ele>
        <time>2013-04-28T08:15:56.000Z</time>
      </trkpt>
      <trkpt lat="46.54717" lon="5.7749">
        <ele>663</ele>
        <time>2013-04-28T08:15:59.000Z</time>
      </trkpt>
      <trkpt lat="46.54721" lon="5.77474">
        <ele>662.40002441406</ele>
        <time>2013-04-28T08:16:04.000Z</time>
      </trkpt>
      <trkpt lat="46.54725" lon="5.7746">
        <ele>661.79998779297</ele>
        <time>2013-04-28T08:16:10.000Z</time>
      </trkpt>
      <trkpt lat="46.54732" lon="5.77453">
        <ele>661.40002441406</ele>
        <time>2013-04-28T08:16:14.000Z</time>
      </trkpt>
      <trkpt lat="46.54734" lon="5.7745">
        <ele>661.40002441406</ele>
        <time>2013-04-28T08:16:16.000Z</time>
      </trkpt>
      <trkpt lat="46.54737" lon="5.77444">
        <ele>661.20001220703</ele>
        <time>2013-04-28T08:16:18.000Z</time>
      </trkpt>
      <trkpt lat="46.54742" lon="5.77437">
        <ele>661</ele>
        <time>2013-04-28T08:16:21.000Z</time>
      </trkpt>
      <trkpt lat="46.54744" lon="5.77431">
        <ele>661</ele>
        <time>2013-04-28T08:16:23.000Z</time>
      </trkpt>
      <trkpt lat="46.54746" lon="5.77418">
        <ele>661</ele>
        <time>2013-04-28T08:16:27.000Z</time>
      </trkpt>
      <trkpt lat="46.5475" lon="5.77403">
        <ele>660.20001220703</ele>
        <time>2013-04-28T08:16:31.000Z</time>
      </trkpt>
      <trkpt lat="46.54757" lon="5.77394">
        <ele>659.40002441406</ele>
        <time>2013-04-28T08:16:35.000Z</time>
      </trkpt>
      <trkpt lat="46.54765" lon="5.77379">
        <ele>658.40002441406</ele>
        <time>2013-04-28T08:16:40.000Z</time>
      </trkpt>
      <trkpt lat="46.54769" lon="5.77371">
        <ele>657.79998779297</ele>
        <time>2013-04-28T08:16:43.000Z</time>
      </trkpt>
      <trkpt lat="46.5477" lon="5.77371">
        <ele>657.79998779297</ele>
        <time>2013-04-28T08:16:44.000Z</time>
      </trkpt>
      <trkpt lat="46.54772" lon="5.7737">
        <ele>657.59997558594</ele>
        <time>2013-04-28T08:16:45.000Z</time>
      </trkpt>
      <trkpt lat="46.54781" lon="5.77369">
        <ele>657.20001220703</ele>
        <time>2013-04-28T08:16:49.000Z</time>
      </trkpt>
      <trkpt lat="46.54786" lon="5.7737">
        <ele>657</ele>
        <time>2013-04-28T08:16:51.000Z</time>
      </trkpt>
      <trkpt lat="46.54792" lon="5.77369">
        <ele>656.59997558594</ele>
        <time>2013-04-28T08:16:53.000Z</time>
      </trkpt>
      <trkpt lat="46.54802" lon="5.77366">
        <ele>656</ele>
        <time>2013-04-28T08:16:57.000Z</time>
      </trkpt>
      <trkpt lat="46.54812" lon="5.77365">
        <ele>655.40002441406</ele>
        <time>2013-04-28T08:17:01.000Z</time>
      </trkpt>
      <trkpt lat="46.54823" lon="5.77368">
        <ele>655</ele>
        <time>2013-04-28T08:17:05.000Z</time>
      </trkpt>
      <trkpt lat="46.54828" lon="5.77369">
        <ele>654.79998779297</ele>
        <time>2013-04-28T08:17:08.000Z</time>
      </trkpt>
      <trkpt lat="46.54832" lon="5.77372">
        <ele>654.79998779297</ele>
        <time>2013-04-28T08:17:10.000Z</time>
      </trkpt>
      <trkpt lat="46.54838" lon="5.77373">
        <ele>654.40002441406</ele>
        <time>2013-04-28T08:17:13.000Z</time>
      </trkpt>
      <trkpt lat="46.54847" lon="5.77364">
        <ele>653.59997558594</ele>
        <time>2013-04-28T08:17:18.000Z</time>
      </trkpt>
      <trkpt lat="46.54851" lon="5.77363">
        <ele>653.20001220703</ele>
        <time>2013-04-28T08:17:21.000Z</time>
      </trkpt>
      <trkpt lat="46.54855" lon="5.77373">
        <ele>653.40002441406</ele>
        <time>2013-04-28T08:17:25.000Z</time>
      </trkpt>
      <trkpt lat="46.54862" lon="5.7738">
        <ele>653.20001220703</ele>
        <time>2013-04-28T08:17:29.000Z</time>
      </trkpt>
      <trkpt lat="46.54866" lon="5.77391">
        <ele>653.20001220703</ele>
        <time>2013-04-28T08:17:32.000Z</time>
      </trkpt>
      <trkpt lat="46.5487" lon="5.77397">
        <ele>653</ele>
        <time>2013-04-28T08:17:34.000Z</time>
      </trkpt>
      <trkpt lat="46.54871" lon="5.77401">
        <ele>653</ele>
        <time>2013-04-28T08:17:35.000Z</time>
      </trkpt>
      <trkpt lat="46.54872" lon="5.77404">
        <ele>653</ele>
        <time>2013-04-28T08:17:36.000Z</time>
      </trkpt>
      <trkpt lat="46.54882" lon="5.77422">
        <ele>652.20001220703</ele>
        <time>2013-04-28T08:17:42.000Z</time>
      </trkpt>
      <trkpt lat="46.54883" lon="5.77426">
        <ele>652</ele>
        <time>2013-04-28T08:17:43.000Z</time>
      </trkpt>
      <trkpt lat="46.54884" lon="5.77436">
        <ele>651.79998779297</ele>
        <time>2013-04-28T08:17:46.000Z</time>
      </trkpt>
      <trkpt lat="46.54889" lon="5.77446">
        <ele>651.20001220703</ele>
        <time>2013-04-28T08:17:49.000Z</time>
      </trkpt>
      <trkpt lat="46.54891" lon="5.77448">
        <ele>651</ele>
        <time>2013-04-28T08:17:50.000Z</time>
      </trkpt>
      <trkpt lat="46.54893" lon="5.77453">
        <ele>650.79998779297</ele>
        <time>2013-04-28T08:17:52.000Z</time>
      </trkpt>
      <trkpt lat="46.54897" lon="5.77459">
        <ele>650.20001220703</ele>
        <time>2013-04-28T08:17:55.000Z</time>
      </trkpt>
      <trkpt lat="46.54904" lon="5.77463">
        <ele>649.59997558594</ele>
        <time>2013-04-28T08:17:58.000Z</time>
      </trkpt>
      <trkpt lat="46.54906" lon="5.77464">
        <ele>649.40002441406</ele>
        <time>2013-04-28T08:17:59.000Z</time>
      </trkpt>
      <trkpt lat="46.54918" lon="5.77467">
        <ele>648.20001220703</ele>
        <time>2013-04-28T08:18:04.000Z</time>
      </trkpt>
      <trkpt lat="46.54928" lon="5.7747">
        <ele>647</ele>
        <time>2013-04-28T08:18:08.000Z</time>
      </trkpt>
      <trkpt lat="46.54935" lon="5.77475">
        <ele>646</ele>
        <time>2013-04-28T08:18:12.000Z</time>
      </trkpt>
      <trkpt lat="46.54937" lon="5.77474">
        <ele>645.79998779297</ele>
        <time>2013-04-28T08:18:13.000Z</time>
      </trkpt>
      <trkpt lat="46.54941" lon="5.77475">
        <ele>645.40002441406</ele>
        <time>2013-04-28T08:18:15.000Z</time>
      </trkpt>
      <trkpt lat="46.54945" lon="5.77476">
        <ele>645</ele>
        <time>2013-04-28T08:18:17.000Z</time>
      </trkpt>
      <trkpt lat="46.54948" lon="5.77478">
        <ele>644.59997558594</ele>
        <time>2013-04-28T08:18:19.000Z</time>
      </trkpt>
      <trkpt lat="46.54952" lon="5.7748">
        <ele>644.20001220703</ele>
        <time>2013-04-28T08:18:21.000Z</time>
      </trkpt>
      <trkpt lat="46.5496" lon="5.77482">
        <ele>643.20001220703</ele>
        <time>2013-04-28T08:18:24.000Z</time>
      </trkpt>
      <trkpt lat="46.54963" lon="5.77482">
        <ele>642.79998779297</ele>
        <time>2013-04-28T08:18:25.000Z</time>
      </trkpt>
      <trkpt lat="46.54977" lon="5.77483">
        <ele>641.40002441406</ele>
        <time>2013-04-28T08:18:29.000Z</time>
      </trkpt>
      <trkpt lat="46.54979" lon="5.77484">
        <ele>641</ele>
        <time>2013-04-28T08:18:30.000Z</time>
      </trkpt>
      <trkpt lat="46.54984" lon="5.77484">
        <ele>640.40002441406</ele>
        <time>2013-04-28T08:18:32.000Z</time>
      </trkpt>
      <trkpt lat="46.54994" lon="5.77484">
        <ele>639.40002441406</ele>
        <time>2013-04-28T08:18:35.000Z</time>
      </trkpt>
      <trkpt lat="46.55003" lon="5.77487">
        <ele>638.79998779297</ele>
        <time>2013-04-28T08:18:39.000Z</time>
      </trkpt>
      <trkpt lat="46.55007" lon="5.77487">
        <ele>638.79998779297</ele>
        <time>2013-04-28T08:18:40.000Z</time>
      </trkpt>
      <trkpt lat="46.5501" lon="5.77489">
        <ele>638.79998779297</ele>
        <time>2013-04-28T08:18:41.000Z</time>
      </trkpt>
      <trkpt lat="46.55016" lon="5.77494">
        <ele>638.79998779297</ele>
        <time>2013-04-28T08:18:43.000Z</time>
      </trkpt>
      <trkpt lat="46.5503" lon="5.77505">
        <ele>639</ele>
        <time>2013-04-28T08:18:48.000Z</time>
      </trkpt>
      <trkpt lat="46.55038" lon="5.77515">
        <ele>639.59997558594</ele>
        <time>2013-04-28T08:18:52.000Z</time>
      </trkpt>
      <trkpt lat="46.55042" lon="5.77522">
        <ele>639.79998779297</ele>
        <time>2013-04-28T08:18:54.000Z</time>
      </trkpt>
      <trkpt lat="46.55043" lon="5.77526">
        <ele>640</ele>
        <time>2013-04-28T08:18:56.000Z</time>
      </trkpt>
      <trkpt lat="46.55046" lon="5.77527">
        <ele>640</ele>
        <time>2013-04-28T08:19:01.000Z</time>
      </trkpt>
      <trkpt lat="46.55047" lon="5.77527">
        <ele>640</ele>
        <time>2013-04-28T08:19:03.000Z</time>
      </trkpt>
      <trkpt lat="46.55053" lon="5.77528">
        <ele>640.20001220703</ele>
        <time>2013-04-28T08:19:16.000Z</time>
      </trkpt>
      <trkpt lat="46.55057" lon="5.77527">
        <ele>640.20001220703</ele>
        <time>2013-04-28T08:19:18.000Z</time>
      </trkpt>
      <trkpt lat="46.55066" lon="5.77527">
        <ele>640.40002441406</ele>
        <time>2013-04-28T08:19:22.000Z</time>
      </trkpt>
      <trkpt lat="46.55075" lon="5.77524">
        <ele>640.20001220703</ele>
        <time>2013-04-28T08:19:26.000Z</time>
      </trkpt>
      <trkpt lat="46.55087" lon="5.77512">
        <ele>639.79998779297</ele>
        <time>2013-04-28T08:19:32.000Z</time>
      </trkpt>
      <trkpt lat="46.55093" lon="5.77503">
        <ele>639.59997558594</ele>
        <time>2013-04-28T08:19:36.000Z</time>
      </trkpt>
      <trkpt lat="46.551" lon="5.77491">
        <ele>639.59997558594</ele>
        <time>2013-04-28T08:19:40.000Z</time>
      </trkpt>
      <trkpt lat="46.5511" lon="5.7748">
        <ele>639.59997558594</ele>
        <time>2013-04-28T08:19:45.000Z</time>
      </trkpt>
      <trkpt lat="46.55116" lon="5.77473">
        <ele>639.59997558594</ele>
        <time>2013-04-28T08:19:48.000Z</time>
      </trkpt>
      <trkpt lat="46.55121" lon="5.77467">
        <ele>639.40002441406</ele>
        <time>2013-04-28T08:19:51.000Z</time>
      </trkpt>
      <trkpt lat="46.55123" lon="5.77464">
        <ele>639.40002441406</ele>
        <time>2013-04-28T08:19:52.000Z</time>
      </trkpt>
      <trkpt lat="46.55129" lon="5.77458">
        <ele>639.40002441406</ele>
        <time>2013-04-28T08:19:55.000Z</time>
      </trkpt>
      <trkpt lat="46.55131" lon="5.77456">
        <ele>639.20001220703</ele>
        <time>2013-04-28T08:19:56.000Z</time>
      </trkpt>
      <trkpt lat="46.55135" lon="5.77452">
        <ele>639.20001220703</ele>
        <time>2013-04-28T08:19:58.000Z</time>
      </trkpt>
      <trkpt lat="46.55144" lon="5.77444">
        <ele>639</ele>
        <time>2013-04-28T08:20:02.000Z</time>
      </trkpt>
      <trkpt lat="46.55151" lon="5.77437">
        <ele>638.79998779297</ele>
        <time>2013-04-28T08:20:06.000Z</time>
      </trkpt>
      <trkpt lat="46.55156" lon="5.77433">
        <ele>638.79998779297</ele>
        <time>2013-04-28T08:20:08.000Z</time>
      </trkpt>
      <trkpt lat="46.5516" lon="5.77429">
        <ele>638.59997558594</ele>
        <time>2013-04-28T08:20:10.000Z</time>
      </trkpt>
      <trkpt lat="46.55165" lon="5.77424">
        <ele>638.40002441406</ele>
        <time>2013-04-28T08:20:12.000Z</time>
      </trkpt>
      <trkpt lat="46.55167" lon="5.77417">
        <ele>638</ele>
        <time>2013-04-28T08:20:14.000Z</time>
      </trkpt>
      <trkpt lat="46.55169" lon="5.77411">
        <ele>638</ele>
        <time>2013-04-28T08:20:16.000Z</time>
      </trkpt>
      <trkpt lat="46.5517" lon="5.77403">
        <ele>637.79998779297</ele>
        <time>2013-04-28T08:20:18.000Z</time>
      </trkpt>
      <trkpt lat="46.55168" lon="5.77386">
        <ele>636.59997558594</ele>
        <time>2013-04-28T08:20:23.000Z</time>
      </trkpt>
      <trkpt lat="46.55164" lon="5.77374">
        <ele>635.79998779297</ele>
        <time>2013-04-28T08:20:27.000Z</time>
      </trkpt>
      <trkpt lat="46.55164" lon="5.77355">
        <ele>634.79998779297</ele>
        <time>2013-04-28T08:20:32.000Z</time>
      </trkpt>
      <trkpt lat="46.55165" lon="5.77338">
        <ele>634</ele>
        <time>2013-04-28T08:20:36.000Z</time>
      </trkpt>
      <trkpt lat="46.55165" lon="5.77329">
        <ele>633.79998779297</ele>
        <time>2013-04-28T08:20:38.000Z</time>
      </trkpt>
      <trkpt lat="46.55167" lon="5.77322">
        <ele>633.59997558594</ele>
        <time>2013-04-28T08:20:40.000Z</time>
      </trkpt>
      <trkpt lat="46.55171" lon="5.77308">
        <ele>633.59997558594</ele>
        <time>2013-04-28T08:20:44.000Z</time>
      </trkpt>
      <trkpt lat="46.55176" lon="5.77287">
        <ele>633.20001220703</ele>
        <time>2013-04-28T08:20:49.000Z</time>
      </trkpt>
      <trkpt lat="46.5518" lon="5.77265">
        <ele>632.79998779297</ele>
        <time>2013-04-28T08:20:54.000Z</time>
      </trkpt>
      <trkpt lat="46.55183" lon="5.77249">
        <ele>632.20001220703</ele>
        <time>2013-04-28T08:20:58.000Z</time>
      </trkpt>
      <trkpt lat="46.55186" lon="5.77231">
        <ele>631.79998779297</ele>
        <time>2013-04-28T08:21:02.000Z</time>
      </trkpt>
      <trkpt lat="46.55187" lon="5.77226">
        <ele>631.59997558594</ele>
        <time>2013-04-28T08:21:03.000Z</time>
      </trkpt>
      <trkpt lat="46.55189" lon="5.77211">
        <ele>631.20001220703</ele>
        <time>2013-04-28T08:21:06.000Z</time>
      </trkpt>
      <trkpt lat="46.55191" lon="5.77203">
        <ele>631</ele>
        <time>2013-04-28T08:21:08.000Z</time>
      </trkpt>
      <trkpt lat="46.55194" lon="5.77195">
        <ele>630.79998779297</ele>
        <time>2013-04-28T08:21:10.000Z</time>
      </trkpt>
      <trkpt lat="46.55201" lon="5.77176">
        <ele>630.40002441406</ele>
        <time>2013-04-28T08:21:15.000Z</time>
      </trkpt>
      <trkpt lat="46.55207" lon="5.77161">
        <ele>630.20001220703</ele>
        <time>2013-04-28T08:21:19.000Z</time>
      </trkpt>
      <trkpt lat="46.55215" lon="5.77147">
        <ele>630.40002441406</ele>
        <time>2013-04-28T08:21:23.000Z</time>
      </trkpt>
      <trkpt lat="46.55223" lon="5.77135">
        <ele>630.59997558594</ele>
        <time>2013-04-28T08:21:27.000Z</time>
      </trkpt>
      <trkpt lat="46.5523" lon="5.7712">
        <ele>630.59997558594</ele>
        <time>2013-04-28T08:21:31.000Z</time>
      </trkpt>
      <trkpt lat="46.55241" lon="5.77098">
        <ele>630.79998779297</ele>
        <time>2013-04-28T08:21:37.000Z</time>
      </trkpt>
      <trkpt lat="46.55244" lon="5.77093">
        <ele>630.79998779297</ele>
        <time>2013-04-28T08:21:39.000Z</time>
      </trkpt>
      <trkpt lat="46.55253" lon="5.77077">
        <ele>631</ele>
        <time>2013-04-28T08:21:44.000Z</time>
      </trkpt>
      <trkpt lat="46.55263" lon="5.77061">
        <ele>631</ele>
        <time>2013-04-28T08:21:49.000Z</time>
      </trkpt>
      <trkpt lat="46.5527" lon="5.77043">
        <ele>631</ele>
        <time>2013-04-28T08:21:54.000Z</time>
      </trkpt>
      <trkpt lat="46.55279" lon="5.77028">
        <ele>630.79998779297</ele>
        <time>2013-04-28T08:21:59.000Z</time>
      </trkpt>
      <trkpt lat="46.55292" lon="5.77007">
        <ele>630.40002441406</ele>
        <time>2013-04-28T08:22:06.000Z</time>
      </trkpt>
      <trkpt lat="46.55303" lon="5.76994">
        <ele>630</ele>
        <time>2013-04-28T08:22:11.000Z</time>
      </trkpt>
      <trkpt lat="46.55314" lon="5.76983">
        <ele>629.40002441406</ele>
        <time>2013-04-28T08:22:16.000Z</time>
      </trkpt>
      <trkpt lat="46.55328" lon="5.76968">
        <ele>628.40002441406</ele>
        <time>2013-04-28T08:22:22.000Z</time>
      </trkpt>
      <trkpt lat="46.55333" lon="5.76963">
        <ele>628.20001220703</ele>
        <time>2013-04-28T08:22:24.000Z</time>
      </trkpt>
      <trkpt lat="46.55337" lon="5.76959">
        <ele>628</ele>
        <time>2013-04-28T08:22:26.000Z</time>
      </trkpt>
      <trkpt lat="46.55352" lon="5.76941">
        <ele>627.59997558594</ele>
        <time>2013-04-28T08:22:33.000Z</time>
      </trkpt>
      <trkpt lat="46.55363" lon="5.76928">
        <ele>627.20001220703</ele>
        <time>2013-04-28T08:22:38.000Z</time>
      </trkpt>
      <trkpt lat="46.55372" lon="5.76913">
        <ele>626.59997558594</ele>
        <time>2013-04-28T08:22:43.000Z</time>
      </trkpt>
      <trkpt lat="46.5538" lon="5.76892">
        <ele>625.20001220703</ele>
        <time>2013-04-28T08:22:49.000Z</time>
      </trkpt>
      <trkpt lat="46.55387" lon="5.76868">
        <ele>623.59997558594</ele>
        <time>2013-04-28T08:22:55.000Z</time>
      </trkpt>
      <trkpt lat="46.55392" lon="5.76848">
        <ele>622.40002441406</ele>
        <time>2013-04-28T08:23:00.000Z</time>
      </trkpt>
      <trkpt lat="46.55398" lon="5.76828">
        <ele>621.20001220703</ele>
        <time>2013-04-28T08:23:05.000Z</time>
      </trkpt>
      <trkpt lat="46.55405" lon="5.76809">
        <ele>619.59997558594</ele>
        <time>2013-04-28T08:23:10.000Z</time>
      </trkpt>
      <trkpt lat="46.55412" lon="5.76796">
        <ele>619</ele>
        <time>2013-04-28T08:23:14.000Z</time>
      </trkpt>
      <trkpt lat="46.55423" lon="5.7678">
        <ele>618.40002441406</ele>
        <time>2013-04-28T08:23:20.000Z</time>
      </trkpt>
      <trkpt lat="46.55438" lon="5.76764">
        <ele>618.59997558594</ele>
        <time>2013-04-28T08:23:27.000Z</time>
      </trkpt>
      <trkpt lat="46.5545" lon="5.76754">
        <ele>619.20001220703</ele>
        <time>2013-04-28T08:23:32.000Z</time>
      </trkpt>
      <trkpt lat="46.55465" lon="5.76746">
        <ele>620.40002441406</ele>
        <time>2013-04-28T08:23:38.000Z</time>
      </trkpt>
      <trkpt lat="46.55481" lon="5.76737">
        <ele>622</ele>
        <time>2013-04-28T08:23:44.000Z</time>
      </trkpt>
      <trkpt lat="46.55494" lon="5.76731">
        <ele>623.40002441406</ele>
        <time>2013-04-28T08:23:49.000Z</time>
      </trkpt>
      <trkpt lat="46.55504" lon="5.76725">
        <ele>624.20001220703</ele>
        <time>2013-04-28T08:23:53.000Z</time>
      </trkpt>
      <trkpt lat="46.55521" lon="5.76716">
        <ele>625</ele>
        <time>2013-04-28T08:24:00.000Z</time>
      </trkpt>
      <trkpt lat="46.55536" lon="5.76707">
        <ele>626</ele>
        <time>2013-04-28T08:24:06.000Z</time>
      </trkpt>
      <trkpt lat="46.55548" lon="5.76699">
        <ele>626.79998779297</ele>
        <time>2013-04-28T08:24:11.000Z</time>
      </trkpt>
      <trkpt lat="46.55561" lon="5.7669">
        <ele>627.79998779297</ele>
        <time>2013-04-28T08:24:16.000Z</time>
      </trkpt>
      <trkpt lat="46.5558" lon="5.7668">
        <ele>629.40002441406</ele>
        <time>2013-04-28T08:24:23.000Z</time>
      </trkpt>
      <trkpt lat="46.55596" lon="5.7667">
        <ele>630.59997558594</ele>
        <time>2013-04-28T08:24:29.000Z</time>
      </trkpt>
      <trkpt lat="46.55607" lon="5.76658">
        <ele>632</ele>
        <time>2013-04-28T08:24:34.000Z</time>
      </trkpt>
      <trkpt lat="46.55621" lon="5.7665">
        <ele>633.79998779297</ele>
        <time>2013-04-28T08:24:39.000Z</time>
      </trkpt>
      <trkpt lat="46.55636" lon="5.76642">
        <ele>635.59997558594</ele>
        <time>2013-04-28T08:24:45.000Z</time>
      </trkpt>
      <trkpt lat="46.55652" lon="5.76632">
        <ele>638</ele>
        <time>2013-04-28T08:24:51.000Z</time>
      </trkpt>
      <trkpt lat="46.5566" lon="5.76623">
        <ele>639.59997558594</ele>
        <time>2013-04-28T08:24:55.000Z</time>
      </trkpt>
      <trkpt lat="46.55668" lon="5.7662">
        <ele>640.40002441406</ele>
        <time>2013-04-28T08:24:59.000Z</time>
      </trkpt>
      <trkpt lat="46.55673" lon="5.76623">
        <ele>640.20001220703</ele>
        <time>2013-04-28T08:25:03.000Z</time>
      </trkpt>
      <trkpt lat="46.55681" lon="5.76624">
        <ele>640</ele>
        <time>2013-04-28T08:25:07.000Z</time>
      </trkpt>
      <trkpt lat="46.55688" lon="5.76625">
        <ele>640</ele>
        <time>2013-04-28T08:25:10.000Z</time>
      </trkpt>
      <trkpt lat="46.55693" lon="5.76625">
        <ele>640</ele>
        <time>2013-04-28T08:25:12.000Z</time>
      </trkpt>
      <trkpt lat="46.55703" lon="5.76626">
        <ele>640</ele>
        <time>2013-04-28T08:25:16.000Z</time>
      </trkpt>
      <trkpt lat="46.55717" lon="5.76624">
        <ele>640.20001220703</ele>
        <time>2013-04-28T08:25:21.000Z</time>
      </trkpt>
      <trkpt lat="46.55721" lon="5.76623">
        <ele>640.40002441406</ele>
        <time>2013-04-28T08:25:22.000Z</time>
      </trkpt>
      <trkpt lat="46.55728" lon="5.7662">
        <ele>640.59997558594</ele>
        <time>2013-04-28T08:25:24.000Z</time>
      </trkpt>
      <trkpt lat="46.55738" lon="5.76618">
        <ele>640.59997558594</ele>
        <time>2013-04-28T08:25:28.000Z</time>
      </trkpt>
      <trkpt lat="46.55749" lon="5.76614">
        <ele>640.79998779297</ele>
        <time>2013-04-28T08:25:33.000Z</time>
      </trkpt>
      <trkpt lat="46.55754" lon="5.76614">
        <ele>640.59997558594</ele>
        <time>2013-04-28T08:25:35.000Z</time>
      </trkpt>
      <trkpt lat="46.5576" lon="5.76618">
        <ele>640.20001220703</ele>
        <time>2013-04-28T08:25:37.000Z</time>
      </trkpt>
      <trkpt lat="46.55768" lon="5.76622">
        <ele>639.59997558594</ele>
        <time>2013-04-28T08:25:39.000Z</time>
      </trkpt>
      <trkpt lat="46.55774" lon="5.76624">
        <ele>639.40002441406</ele>
        <time>2013-04-28T08:25:41.000Z</time>
      </trkpt>
      <trkpt lat="46.55782" lon="5.7663">
        <ele>639.20001220703</ele>
        <time>2013-04-28T08:25:45.000Z</time>
      </trkpt>
      <trkpt lat="46.55792" lon="5.76641">
        <ele>639.20001220703</ele>
        <time>2013-04-28T08:25:49.000Z</time>
      </trkpt>
      <trkpt lat="46.55804" lon="5.76656">
        <ele>639.59997558594</ele>
        <time>2013-04-28T08:25:54.000Z</time>
      </trkpt>
      <trkpt lat="46.55814" lon="5.76662">
        <ele>640.20001220703</ele>
        <time>2013-04-28T08:25:58.000Z</time>
      </trkpt>
      <trkpt lat="46.55824" lon="5.76668">
        <ele>640.59997558594</ele>
        <time>2013-04-28T08:26:02.000Z</time>
      </trkpt>
      <trkpt lat="46.55835" lon="5.76675">
        <ele>640.79998779297</ele>
        <time>2013-04-28T08:26:06.000Z</time>
      </trkpt>
      <trkpt lat="46.55838" lon="5.76675">
        <ele>641</ele>
        <time>2013-04-28T08:26:07.000Z</time>
      </trkpt>
      <trkpt lat="46.55853" lon="5.76672">
        <ele>641.40002441406</ele>
        <time>2013-04-28T08:26:12.000Z</time>
      </trkpt>
      <trkpt lat="46.55857" lon="5.76669">
        <ele>641.40002441406</ele>
        <time>2013-04-28T08:26:13.000Z</time>
      </trkpt>
      <trkpt lat="46.55864" lon="5.76664">
        <ele>641.40002441406</ele>
        <time>2013-04-28T08:26:15.000Z</time>
      </trkpt>
      <trkpt lat="46.55877" lon="5.76657">
        <ele>641.20001220703</ele>
        <time>2013-04-28T08:26:20.000Z</time>
      </trkpt>
      <trkpt lat="46.55886" lon="5.76652">
        <ele>641</ele>
        <time>2013-04-28T08:26:24.000Z</time>
      </trkpt>
      <trkpt lat="46.55895" lon="5.76644">
        <ele>640.59997558594</ele>
        <time>2013-04-28T08:26:28.000Z</time>
      </trkpt>
      <trkpt lat="46.55901" lon="5.76637">
        <ele>640.20001220703</ele>
        <time>2013-04-28T08:26:32.000Z</time>
      </trkpt>
      <trkpt lat="46.55902" lon="5.76634">
        <ele>640</ele>
        <time>2013-04-28T08:26:33.000Z</time>
      </trkpt>
      <trkpt lat="46.5591" lon="5.76616">
        <ele>639</ele>
        <time>2013-04-28T08:26:39.000Z</time>
      </trkpt>
      <trkpt lat="46.55916" lon="5.76599">
        <ele>638</ele>
        <time>2013-04-28T08:26:44.000Z</time>
      </trkpt>
      <trkpt lat="46.5592" lon="5.76574">
        <ele>635.59997558594</ele>
        <time>2013-04-28T08:26:51.000Z</time>
      </trkpt>
      <trkpt lat="46.55917" lon="5.76553">
        <ele>632.59997558594</ele>
        <time>2013-04-28T08:26:56.000Z</time>
      </trkpt>
      <trkpt lat="46.55918" lon="5.76537">
        <ele>630.40002441406</ele>
        <time>2013-04-28T08:27:01.000Z</time>
      </trkpt>
      <trkpt lat="46.55924" lon="5.7652">
        <ele>628.40002441406</ele>
        <time>2013-04-28T08:27:06.000Z</time>
      </trkpt>
      <trkpt lat="46.55929" lon="5.76501">
        <ele>626.40002441406</ele>
        <time>2013-04-28T08:27:11.000Z</time>
      </trkpt>
      <trkpt lat="46.55935" lon="5.76483">
        <ele>625.40002441406</ele>
        <time>2013-04-28T08:27:16.000Z</time>
      </trkpt>
      <trkpt lat="46.55941" lon="5.76469">
        <ele>624.79998779297</ele>
        <time>2013-04-28T08:27:20.000Z</time>
      </trkpt>
      <trkpt lat="46.55945" lon="5.76461">
        <ele>624.59997558594</ele>
        <time>2013-04-28T08:27:23.000Z</time>
      </trkpt>
      <trkpt lat="46.55948" lon="5.76455">
        <ele>624.59997558594</ele>
        <time>2013-04-28T08:27:25.000Z</time>
      </trkpt>
      <trkpt lat="46.55951" lon="5.76441">
        <ele>623.79998779297</ele>
        <time>2013-04-28T08:27:29.000Z</time>
      </trkpt>
      <trkpt lat="46.55953" lon="5.7643">
        <ele>623.20001220703</ele>
        <time>2013-04-28T08:27:32.000Z</time>
      </trkpt>
      <trkpt lat="46.55955" lon="5.7642">
        <ele>622.79998779297</ele>
        <time>2013-04-28T08:27:35.000Z</time>
      </trkpt>
      <trkpt lat="46.55957" lon="5.76412">
        <ele>622.59997558594</ele>
        <time>2013-04-28T08:27:37.000Z</time>
      </trkpt>
      <trkpt lat="46.55958" lon="5.76404">
        <ele>622.20001220703</ele>
        <time>2013-04-28T08:27:39.000Z</time>
      </trkpt>
      <trkpt lat="46.55959" lon="5.76397">
        <ele>622.20001220703</ele>
        <time>2013-04-28T08:27:41.000Z</time>
      </trkpt>
      <trkpt lat="46.5596" lon="5.76394">
        <ele>622.20001220703</ele>
        <time>2013-04-28T08:27:42.000Z</time>
      </trkpt>
      <trkpt lat="46.55961" lon="5.76391">
        <ele>622.20001220703</ele>
        <time>2013-04-28T08:27:43.000Z</time>
      </trkpt>
      <trkpt lat="46.55965" lon="5.76385">
        <ele>622.40002441406</ele>
        <time>2013-04-28T08:27:46.000Z</time>
      </trkpt>
      <trkpt lat="46.55971" lon="5.76375">
        <ele>622.59997558594</ele>
        <time>2013-04-28T08:27:50.000Z</time>
      </trkpt>
      <trkpt lat="46.55979" lon="5.76365">
        <ele>623</ele>
        <time>2013-04-28T08:27:54.000Z</time>
      </trkpt>
      <trkpt lat="46.55989" lon="5.76359">
        <ele>623.59997558594</ele>
        <time>2013-04-28T08:27:59.000Z</time>
      </trkpt>
      <trkpt lat="46.56001" lon="5.76354">
        <ele>624.40002441406</ele>
        <time>2013-04-28T08:28:04.000Z</time>
      </trkpt>
      <trkpt lat="46.56006" lon="5.76355">
        <ele>624.59997558594</ele>
        <time>2013-04-28T08:28:07.000Z</time>
      </trkpt>
      <trkpt lat="46.56008" lon="5.76358">
        <ele>624.79998779297</ele>
        <time>2013-04-28T08:28:09.000Z</time>
      </trkpt>
      <trkpt lat="46.56008" lon="5.7636">
        <ele>624.79998779297</ele>
        <time>2013-04-28T08:28:10.000Z</time>
      </trkpt>
      <trkpt lat="46.56007" lon="5.76363">
        <ele>625.20001220703</ele>
        <time>2013-04-28T08:28:14.000Z</time>
      </trkpt>
      <trkpt lat="46.56007" lon="5.76364">
        <ele>625.20001220703</ele>
        <time>2013-04-28T08:28:15.000Z</time>
      </trkpt>
      <trkpt lat="46.56005" lon="5.7637">
        <ele>625.59997558594</ele>
        <time>2013-04-28T08:28:21.000Z</time>
      </trkpt>
      <trkpt lat="46.56003" lon="5.76373">
        <ele>625.79998779297</ele>
        <time>2013-04-28T08:28:24.000Z</time>
      </trkpt>
      <trkpt lat="46.56002" lon="5.76376">
        <ele>626</ele>
        <time>2013-04-28T08:28:27.000Z</time>
      </trkpt>
      <trkpt lat="46.55998" lon="5.76399">
        <ele>627.40002441406</ele>
        <time>2013-04-28T08:28:43.000Z</time>
      </trkpt>
      <trkpt lat="46.56" lon="5.76409">
        <ele>628.40002441406</ele>
        <time>2013-04-28T08:28:47.000Z</time>
      </trkpt>
      <trkpt lat="46.56001" lon="5.76417">
        <ele>629</ele>
        <time>2013-04-28T08:28:49.000Z</time>
      </trkpt>
      <trkpt lat="46.56001" lon="5.7642">
        <ele>629.20001220703</ele>
        <time>2013-04-28T08:28:50.000Z</time>
      </trkpt>
      <trkpt lat="46.55996" lon="5.76436">
        <ele>629.59997558594</ele>
        <time>2013-04-28T08:28:55.000Z</time>
      </trkpt>
      <trkpt lat="46.55993" lon="5.76445">
        <ele>629.79998779297</ele>
        <time>2013-04-28T08:28:58.000Z</time>
      </trkpt>
      <trkpt lat="46.55993" lon="5.7645">
        <ele>630</ele>
        <time>2013-04-28T08:29:00.000Z</time>
      </trkpt>
      <trkpt lat="46.55992" lon="5.7646">
        <ele>630.59997558594</ele>
        <time>2013-04-28T08:29:03.000Z</time>
      </trkpt>
      <trkpt lat="46.55991" lon="5.76467">
        <ele>630.79998779297</ele>
        <time>2013-04-28T08:29:05.000Z</time>
      </trkpt>
      <trkpt lat="46.55991" lon="5.76474">
        <ele>631.20001220703</ele>
        <time>2013-04-28T08:29:07.000Z</time>
      </trkpt>
      <trkpt lat="46.55989" lon="5.76481">
        <ele>631.59997558594</ele>
        <time>2013-04-28T08:29:09.000Z</time>
      </trkpt>
      <trkpt lat="46.55989" lon="5.76488">
        <ele>632</ele>
        <time>2013-04-28T08:29:11.000Z</time>
      </trkpt>
      <trkpt lat="46.55987" lon="5.76499">
        <ele>632.40002441406</ele>
        <time>2013-04-28T08:29:14.000Z</time>
      </trkpt>
      <trkpt lat="46.55989" lon="5.76504">
        <ele>633</ele>
        <time>2013-04-28T08:29:16.000Z</time>
      </trkpt>
      <trkpt lat="46.5599" lon="5.7651">
        <ele>633.79998779297</ele>
        <time>2013-04-28T08:29:18.000Z</time>
      </trkpt>
      <trkpt lat="46.55993" lon="5.76519">
        <ele>634.79998779297</ele>
        <time>2013-04-28T08:29:22.000Z</time>
      </trkpt>
      <trkpt lat="46.55993" lon="5.76521">
        <ele>635</ele>
        <time>2013-04-28T08:29:23.000Z</time>
      </trkpt>
      <trkpt lat="46.55993" lon="5.76529">
        <ele>635.79998779297</ele>
        <time>2013-04-28T08:29:26.000Z</time>
      </trkpt>
      <trkpt lat="46.55994" lon="5.76532">
        <ele>636.20001220703</ele>
        <time>2013-04-28T08:29:27.000Z</time>
      </trkpt>
      <trkpt lat="46.55998" lon="5.76554">
        <ele>638.20001220703</ele>
        <time>2013-04-28T08:29:34.000Z</time>
      </trkpt>
      <trkpt lat="46.56002" lon="5.76572">
        <ele>639.79998779297</ele>
        <time>2013-04-28T08:29:40.000Z</time>
      </trkpt>
      <trkpt lat="46.56002" lon="5.76575">
        <ele>640</ele>
        <time>2013-04-28T08:29:41.000Z</time>
      </trkpt>
      <trkpt lat="46.56003" lon="5.76583">
        <ele>640.59997558594</ele>
        <time>2013-04-28T08:29:44.000Z</time>
      </trkpt>
      <trkpt lat="46.56007" lon="5.76593">
        <ele>640.79998779297</ele>
        <time>2013-04-28T08:29:48.000Z</time>
      </trkpt>
      <trkpt lat="46.56008" lon="5.76597">
        <ele>641</ele>
        <time>2013-04-28T08:29:50.000Z</time>
      </trkpt>
      <trkpt lat="46.56008" lon="5.766">
        <ele>641.20001220703</ele>
        <time>2013-04-28T08:29:51.000Z</time>
      </trkpt>
      <trkpt lat="46.56008" lon="5.76614">
        <ele>641.79998779297</ele>
        <time>2013-04-28T08:29:56.000Z</time>
      </trkpt>
      <trkpt lat="46.56008" lon="5.76623">
        <ele>642.20001220703</ele>
        <time>2013-04-28T08:30:00.000Z</time>
      </trkpt>
      <trkpt lat="46.56008" lon="5.76625">
        <ele>642.20001220703</ele>
        <time>2013-04-28T08:30:01.000Z</time>
      </trkpt>
      <trkpt lat="46.5601" lon="5.76634">
        <ele>642.59997558594</ele>
        <time>2013-04-28T08:30:06.000Z</time>
      </trkpt>
      <trkpt lat="46.5601" lon="5.76641">
        <ele>642.79998779297</ele>
        <time>2013-04-28T08:30:10.000Z</time>
      </trkpt>
      <trkpt lat="46.56011" lon="5.76643">
        <ele>643</ele>
        <time>2013-04-28T08:30:11.000Z</time>
      </trkpt>
      <trkpt lat="46.56012" lon="5.76648">
        <ele>643.20001220703</ele>
        <time>2013-04-28T08:30:14.000Z</time>
      </trkpt>
      <trkpt lat="46.56013" lon="5.76659">
        <ele>643.59997558594</ele>
        <time>2013-04-28T08:30:19.000Z</time>
      </trkpt>
      <trkpt lat="46.56013" lon="5.76666">
        <ele>644</ele>
        <time>2013-04-28T08:30:22.000Z</time>
      </trkpt>
      <trkpt lat="46.56014" lon="5.76674">
        <ele>644.59997558594</ele>
        <time>2013-04-28T08:30:25.000Z</time>
      </trkpt>
      <trkpt lat="46.56014" lon="5.76685">
        <ele>645.40002441406</ele>
        <time>2013-04-28T08:30:29.000Z</time>
      </trkpt>
      <trkpt lat="46.56014" lon="5.76693">
        <ele>646</ele>
        <time>2013-04-28T08:30:33.000Z</time>
      </trkpt>
      <trkpt lat="46.56012" lon="5.76704">
        <ele>646.79998779297</ele>
        <time>2013-04-28T08:30:38.000Z</time>
      </trkpt>
      <trkpt lat="46.5601" lon="5.76709">
        <ele>647</ele>
        <time>2013-04-28T08:30:41.000Z</time>
      </trkpt>
      <trkpt lat="46.5601" lon="5.76711">
        <ele>647.20001220703</ele>
        <time>2013-04-28T08:30:42.000Z</time>
      </trkpt>
      <trkpt lat="46.56011" lon="5.76713">
        <ele>647.40002441406</ele>
        <time>2013-04-28T08:30:44.000Z</time>
      </trkpt>
      <trkpt lat="46.56011" lon="5.76723">
        <ele>648.20001220703</ele>
        <time>2013-04-28T08:30:49.000Z</time>
      </trkpt>
      <trkpt lat="46.56009" lon="5.76735">
        <ele>649</ele>
        <time>2013-04-28T08:30:53.000Z</time>
      </trkpt>
      <trkpt lat="46.56009" lon="5.76737">
        <ele>649</ele>
        <time>2013-04-28T08:30:54.000Z</time>
      </trkpt>
      <trkpt lat="46.5601" lon="5.7674">
        <ele>649.20001220703</ele>
        <time>2013-04-28T08:30:55.000Z</time>
      </trkpt>
      <trkpt lat="46.5601" lon="5.76746">
        <ele>649.79998779297</ele>
        <time>2013-04-28T08:30:58.000Z</time>
      </trkpt>
      <trkpt lat="46.56009" lon="5.76748">
        <ele>649.79998779297</ele>
        <time>2013-04-28T08:30:59.000Z</time>
      </trkpt>
      <trkpt lat="46.56008" lon="5.76755">
        <ele>650.20001220703</ele>
        <time>2013-04-28T08:31:02.000Z</time>
      </trkpt>
      <trkpt lat="46.56007" lon="5.76759">
        <ele>650.40002441406</ele>
        <time>2013-04-28T08:31:04.000Z</time>
      </trkpt>
      <trkpt lat="46.56006" lon="5.76765">
        <ele>650.79998779297</ele>
        <time>2013-04-28T08:31:06.000Z</time>
      </trkpt>
      <trkpt lat="46.56005" lon="5.76775">
        <ele>651.40002441406</ele>
        <time>2013-04-28T08:31:10.000Z</time>
      </trkpt>
      <trkpt lat="46.56002" lon="5.76785">
        <ele>652</ele>
        <time>2013-04-28T08:31:15.000Z</time>
      </trkpt>
      <trkpt lat="46.56002" lon="5.76787">
        <ele>652.20001220703</ele>
        <time>2013-04-28T08:31:16.000Z</time>
      </trkpt>
      <trkpt lat="46.56002" lon="5.76795">
        <ele>652.59997558594</ele>
        <time>2013-04-28T08:31:18.000Z</time>
      </trkpt>
      <trkpt lat="46.55998" lon="5.76811">
        <ele>653.40002441406</ele>
        <time>2013-04-28T08:31:23.000Z</time>
      </trkpt>
      <trkpt lat="46.55996" lon="5.76817">
        <ele>653.59997558594</ele>
        <time>2013-04-28T08:31:25.000Z</time>
      </trkpt>
      <trkpt lat="46.55992" lon="5.76828">
        <ele>653.59997558594</ele>
        <time>2013-04-28T08:31:29.000Z</time>
      </trkpt>
      <trkpt lat="46.55984" lon="5.7684">
        <ele>653.40002441406</ele>
        <time>2013-04-28T08:31:34.000Z</time>
      </trkpt>
      <trkpt lat="46.55978" lon="5.76848">
        <ele>653</ele>
        <time>2013-04-28T08:31:37.000Z</time>
      </trkpt>
      <trkpt lat="46.55974" lon="5.76854">
        <ele>652.79998779297</ele>
        <time>2013-04-28T08:31:39.000Z</time>
      </trkpt>
      <trkpt lat="46.55963" lon="5.76874">
        <ele>652.59997558594</ele>
        <time>2013-04-28T08:31:46.000Z</time>
      </trkpt>
      <trkpt lat="46.55958" lon="5.76892">
        <ele>653</ele>
        <time>2013-04-28T08:31:51.000Z</time>
      </trkpt>
      <trkpt lat="46.55958" lon="5.76907">
        <ele>653.79998779297</ele>
        <time>2013-04-28T08:31:55.000Z</time>
      </trkpt>
      <trkpt lat="46.5596" lon="5.76909">
        <ele>654.20001220703</ele>
        <time>2013-04-28T08:31:56.000Z</time>
      </trkpt>
      <trkpt lat="46.55969" lon="5.76922">
        <ele>655.59997558594</ele>
        <time>2013-04-28T08:32:02.000Z</time>
      </trkpt>
      <trkpt lat="46.55971" lon="5.76923">
        <ele>655.79998779297</ele>
        <time>2013-04-28T08:32:03.000Z</time>
      </trkpt>
      <trkpt lat="46.55977" lon="5.76926">
        <ele>656.40002441406</ele>
        <time>2013-04-28T08:32:06.000Z</time>
      </trkpt>
      <trkpt lat="46.55988" lon="5.76938">
        <ele>657.40002441406</ele>
        <time>2013-04-28T08:32:11.000Z</time>
      </trkpt>
      <trkpt lat="46.5599" lon="5.76942">
        <ele>657.59997558594</ele>
        <time>2013-04-28T08:32:12.000Z</time>
      </trkpt>
      <trkpt lat="46.5599" lon="5.76945">
        <ele>657.59997558594</ele>
        <time>2013-04-28T08:32:13.000Z</time>
      </trkpt>
      <trkpt lat="46.55988" lon="5.7695">
        <ele>657.40002441406</ele>
        <time>2013-04-28T08:32:15.000Z</time>
      </trkpt>
      <trkpt lat="46.55983" lon="5.76957">
        <ele>657</ele>
        <time>2013-04-28T08:32:18.000Z</time>
      </trkpt>
      <trkpt lat="46.5598" lon="5.76963">
        <ele>656.59997558594</ele>
        <time>2013-04-28T08:32:20.000Z</time>
      </trkpt>
      <trkpt lat="46.55977" lon="5.76969">
        <ele>656.40002441406</ele>
        <time>2013-04-28T08:32:23.000Z</time>
      </trkpt>
      <trkpt lat="46.55972" lon="5.76977">
        <ele>656</ele>
        <time>2013-04-28T08:32:26.000Z</time>
      </trkpt>
      <trkpt lat="46.55971" lon="5.76981">
        <ele>655.79998779297</ele>
        <time>2013-04-28T08:32:27.000Z</time>
      </trkpt>
      <trkpt lat="46.55969" lon="5.76984">
        <ele>655.59997558594</ele>
        <time>2013-04-28T08:32:28.000Z</time>
      </trkpt>
      <trkpt lat="46.55964" lon="5.76992">
        <ele>655.40002441406</ele>
        <time>2013-04-28T08:32:31.000Z</time>
      </trkpt>
      <trkpt lat="46.55953" lon="5.77011">
        <ele>654</ele>
        <time>2013-04-28T08:32:37.000Z</time>
      </trkpt>
      <trkpt lat="46.55945" lon="5.77025">
        <ele>653</ele>
        <time>2013-04-28T08:32:42.000Z</time>
      </trkpt>
      <trkpt lat="46.55936" lon="5.77039">
        <ele>652.20001220703</ele>
        <time>2013-04-28T08:32:47.000Z</time>
      </trkpt>
      <trkpt lat="46.55926" lon="5.77057">
        <ele>651.40002441406</ele>
        <time>2013-04-28T08:32:53.000Z</time>
      </trkpt>
      <trkpt lat="46.55919" lon="5.77068">
        <ele>651.20001220703</ele>
        <time>2013-04-28T08:32:58.000Z</time>
      </trkpt>
      <trkpt lat="46.55911" lon="5.77079">
        <ele>651</ele>
        <time>2013-04-28T08:33:03.000Z</time>
      </trkpt>
      <trkpt lat="46.55909" lon="5.77081">
        <ele>651</ele>
        <time>2013-04-28T08:33:04.000Z</time>
      </trkpt>
      <trkpt lat="46.55902" lon="5.77088">
        <ele>651.20001220703</ele>
        <time>2013-04-28T08:33:07.000Z</time>
      </trkpt>
      <trkpt lat="46.55894" lon="5.77098">
        <ele>651.59997558594</ele>
        <time>2013-04-28T08:33:11.000Z</time>
      </trkpt>
      <trkpt lat="46.55884" lon="5.77109">
        <ele>651.79998779297</ele>
        <time>2013-04-28T08:33:15.000Z</time>
      </trkpt>
      <trkpt lat="46.5588" lon="5.77112">
        <ele>652</ele>
        <time>2013-04-28T08:33:17.000Z</time>
      </trkpt>
      <trkpt lat="46.55874" lon="5.77118">
        <ele>652.20001220703</ele>
        <time>2013-04-28T08:33:20.000Z</time>
      </trkpt>
      <trkpt lat="46.55862" lon="5.77128">
        <ele>652.40002441406</ele>
        <time>2013-04-28T08:33:26.000Z</time>
      </trkpt>
      <trkpt lat="46.55855" lon="5.77131">
        <ele>652.59997558594</ele>
        <time>2013-04-28T08:33:29.000Z</time>
      </trkpt>
      <trkpt lat="46.55846" lon="5.77135">
        <ele>652.59997558594</ele>
        <time>2013-04-28T08:33:33.000Z</time>
      </trkpt>
      <trkpt lat="46.5584" lon="5.77138">
        <ele>652.79998779297</ele>
        <time>2013-04-28T08:33:36.000Z</time>
      </trkpt>
      <trkpt lat="46.55833" lon="5.77143">
        <ele>652.79998779297</ele>
        <time>2013-04-28T08:33:39.000Z</time>
      </trkpt>
      <trkpt lat="46.55825" lon="5.77152">
        <ele>652.40002441406</ele>
        <time>2013-04-28T08:33:43.000Z</time>
      </trkpt>
      <trkpt lat="46.55823" lon="5.77153">
        <ele>652.40002441406</ele>
        <time>2013-04-28T08:33:44.000Z</time>
      </trkpt>
      <trkpt lat="46.55818" lon="5.77159">
        <ele>652.20001220703</ele>
        <time>2013-04-28T08:33:47.000Z</time>
      </trkpt>
      <trkpt lat="46.55816" lon="5.77162">
        <ele>652</ele>
        <time>2013-04-28T08:33:48.000Z</time>
      </trkpt>
      <trkpt lat="46.55809" lon="5.77175">
        <ele>652.20001220703</ele>
        <time>2013-04-28T08:33:53.000Z</time>
      </trkpt>
      <trkpt lat="46.55802" lon="5.77196">
        <ele>652.79998779297</ele>
        <time>2013-04-28T08:33:59.000Z</time>
      </trkpt>
      <trkpt lat="46.55795" lon="5.77218">
        <ele>653.59997558594</ele>
        <time>2013-04-28T08:34:05.000Z</time>
      </trkpt>
      <trkpt lat="46.55789" lon="5.77246">
        <ele>654.59997558594</ele>
        <time>2013-04-28T08:34:12.000Z</time>
      </trkpt>
      <trkpt lat="46.55783" lon="5.77267">
        <ele>655.59997558594</ele>
        <time>2013-04-28T08:34:18.000Z</time>
      </trkpt>
      <trkpt lat="46.55778" lon="5.77282">
        <ele>656.20001220703</ele>
        <time>2013-04-28T08:34:23.000Z</time>
      </trkpt>
      <trkpt lat="46.55769" lon="5.77298">
        <ele>656.59997558594</ele>
        <time>2013-04-28T08:34:28.000Z</time>
      </trkpt>
      <trkpt lat="46.55759" lon="5.77311">
        <ele>656.40002441406</ele>
        <time>2013-04-28T08:34:33.000Z</time>
      </trkpt>
      <trkpt lat="46.5575" lon="5.77319">
        <ele>656.20001220703</ele>
        <time>2013-04-28T08:34:37.000Z</time>
      </trkpt>
      <trkpt lat="46.55738" lon="5.77328">
        <ele>657.59997558594</ele>
        <time>2013-04-28T08:34:43.000Z</time>
      </trkpt>
      <trkpt lat="46.55725" lon="5.7734">
        <ele>659.40002441406</ele>
        <time>2013-04-28T08:34:49.000Z</time>
      </trkpt>
      <trkpt lat="46.55718" lon="5.77349">
        <ele>660.59997558594</ele>
        <time>2013-04-28T08:34:54.000Z</time>
      </trkpt>
      <trkpt lat="46.55715" lon="5.77354">
        <ele>661.20001220703</ele>
        <time>2013-04-28T08:34:56.000Z</time>
      </trkpt>
      <trkpt lat="46.55711" lon="5.77359">
        <ele>661.79998779297</ele>
        <time>2013-04-28T08:34:58.000Z</time>
      </trkpt>
      <trkpt lat="46.5571" lon="5.77361">
        <ele>662.20001220703</ele>
        <time>2013-04-28T08:34:59.000Z</time>
      </trkpt>
      <trkpt lat="46.55704" lon="5.77375">
        <ele>663.40002441406</ele>
        <time>2013-04-28T08:35:04.000Z</time>
      </trkpt>
      <trkpt lat="46.55695" lon="5.7739">
        <ele>665</ele>
        <time>2013-04-28T08:35:09.000Z</time>
      </trkpt>
      <trkpt lat="46.5569" lon="5.77402">
        <ele>666</ele>
        <time>2013-04-28T08:35:13.000Z</time>
      </trkpt>
      <trkpt lat="46.55688" lon="5.77404">
        <ele>666.20001220703</ele>
        <time>2013-04-28T08:35:14.000Z</time>
      </trkpt>
      <trkpt lat="46.55681" lon="5.77412">
        <ele>667</ele>
        <time>2013-04-28T08:35:18.000Z</time>
      </trkpt>
      <trkpt lat="46.55679" lon="5.77412">
        <ele>667</ele>
        <time>2013-04-28T08:35:19.000Z</time>
      </trkpt>
      <trkpt lat="46.55673" lon="5.77421">
        <ele>667.79998779297</ele>
        <time>2013-04-28T08:35:23.000Z</time>
      </trkpt>
      <trkpt lat="46.5567" lon="5.77424">
        <ele>668.20001220703</ele>
        <time>2013-04-28T08:35:24.000Z</time>
      </trkpt>
      <trkpt lat="46.55666" lon="5.77431">
        <ele>668.59997558594</ele>
        <time>2013-04-28T08:35:26.000Z</time>
      </trkpt>
      <trkpt lat="46.55664" lon="5.77434">
        <ele>668.79998779297</ele>
        <time>2013-04-28T08:35:27.000Z</time>
      </trkpt>
      <trkpt lat="46.55653" lon="5.77453">
        <ele>670</ele>
        <time>2013-04-28T08:35:33.000Z</time>
      </trkpt>
      <trkpt lat="46.5565" lon="5.77459">
        <ele>670.40002441406</ele>
        <time>2013-04-28T08:35:35.000Z</time>
      </trkpt>
      <trkpt lat="46.55648" lon="5.77464">
        <ele>670.40002441406</ele>
        <time>2013-04-28T08:35:37.000Z</time>
      </trkpt>
      <trkpt lat="46.55645" lon="5.7747">
        <ele>670.59997558594</ele>
        <time>2013-04-28T08:35:39.000Z</time>
      </trkpt>
      <trkpt lat="46.55643" lon="5.77473">
        <ele>670.79998779297</ele>
        <time>2013-04-28T08:35:41.000Z</time>
      </trkpt>
      <trkpt lat="46.55636" lon="5.77487">
        <ele>671</ele>
        <time>2013-04-28T08:35:46.000Z</time>
      </trkpt>
      <trkpt lat="46.55634" lon="5.77491">
        <ele>671</ele>
        <time>2013-04-28T08:35:47.000Z</time>
      </trkpt>
      <trkpt lat="46.5563" lon="5.77498">
        <ele>671</ele>
        <time>2013-04-28T08:35:49.000Z</time>
      </trkpt>
      <trkpt lat="46.55626" lon="5.77505">
        <ele>671.40002441406</ele>
        <time>2013-04-28T08:35:52.000Z</time>
      </trkpt>
      <trkpt lat="46.55624" lon="5.77508">
        <ele>671.40002441406</ele>
        <time>2013-04-28T08:35:53.000Z</time>
      </trkpt>
      <trkpt lat="46.55621" lon="5.77511">
        <ele>671.59997558594</ele>
        <time>2013-04-28T08:35:55.000Z</time>
      </trkpt>
      <trkpt lat="46.55615" lon="5.77515">
        <ele>671.79998779297</ele>
        <time>2013-04-28T08:35:58.000Z</time>
      </trkpt>
      <trkpt lat="46.5561" lon="5.77521">
        <ele>671.79998779297</ele>
        <time>2013-04-28T08:36:01.000Z</time>
      </trkpt>
      <trkpt lat="46.55607" lon="5.77523">
        <ele>671.79998779297</ele>
        <time>2013-04-28T08:36:02.000Z</time>
      </trkpt>
      <trkpt lat="46.55605" lon="5.77526">
        <ele>672</ele>
        <time>2013-04-28T08:36:03.000Z</time>
      </trkpt>
      <trkpt lat="46.55594" lon="5.77539">
        <ele>672</ele>
        <time>2013-04-28T08:36:08.000Z</time>
      </trkpt>
      <trkpt lat="46.55589" lon="5.77546">
        <ele>672</ele>
        <time>2013-04-28T08:36:11.000Z</time>
      </trkpt>
      <trkpt lat="46.55586" lon="5.77552">
        <ele>672</ele>
        <time>2013-04-28T08:36:13.000Z</time>
      </trkpt>
      <trkpt lat="46.55583" lon="5.77566">
        <ele>672.20001220703</ele>
        <time>2013-04-28T08:36:17.000Z</time>
      </trkpt>
      <trkpt lat="46.55583" lon="5.7757">
        <ele>672.40002441406</ele>
        <time>2013-04-28T08:36:18.000Z</time>
      </trkpt>
      <trkpt lat="46.55581" lon="5.77585">
        <ele>673</ele>
        <time>2013-04-28T08:36:22.000Z</time>
      </trkpt>
      <trkpt lat="46.55582" lon="5.7759">
        <ele>673.40002441406</ele>
        <time>2013-04-28T08:36:23.000Z</time>
      </trkpt>
      <trkpt lat="46.55581" lon="5.77594">
        <ele>673.59997558594</ele>
        <time>2013-04-28T08:36:24.000Z</time>
      </trkpt>
      <trkpt lat="46.5558" lon="5.77597">
        <ele>674</ele>
        <time>2013-04-28T08:36:25.000Z</time>
      </trkpt>
      <trkpt lat="46.55578" lon="5.77606">
        <ele>674.59997558594</ele>
        <time>2013-04-28T08:36:28.000Z</time>
      </trkpt>
      <trkpt lat="46.55577" lon="5.77609">
        <ele>674.79998779297</ele>
        <time>2013-04-28T08:36:29.000Z</time>
      </trkpt>
      <trkpt lat="46.55575" lon="5.7762">
        <ele>675.59997558594</ele>
        <time>2013-04-28T08:36:32.000Z</time>
      </trkpt>
      <trkpt lat="46.55572" lon="5.77637">
        <ele>676.59997558594</ele>
        <time>2013-04-28T08:36:36.000Z</time>
      </trkpt>
      <trkpt lat="46.55568" lon="5.77647">
        <ele>677.20001220703</ele>
        <time>2013-04-28T08:36:40.000Z</time>
      </trkpt>
      <trkpt lat="46.55568" lon="5.77648">
        <ele>677.40002441406</ele>
        <time>2013-04-28T08:36:41.000Z</time>
      </trkpt>
      <trkpt lat="46.55564" lon="5.7766">
        <ele>678</ele>
        <time>2013-04-28T08:36:45.000Z</time>
      </trkpt>
      <trkpt lat="46.55563" lon="5.77664">
        <ele>678.20001220703</ele>
        <time>2013-04-28T08:36:46.000Z</time>
      </trkpt>
      <trkpt lat="46.5556" lon="5.77682">
        <ele>679.59997558594</ele>
        <time>2013-04-28T08:36:51.000Z</time>
      </trkpt>
      <trkpt lat="46.55561" lon="5.77685">
        <ele>679.79998779297</ele>
        <time>2013-04-28T08:36:52.000Z</time>
      </trkpt>
      <trkpt lat="46.55564" lon="5.77692">
        <ele>680.40002441406</ele>
        <time>2013-04-28T08:36:55.000Z</time>
      </trkpt>
      <trkpt lat="46.55568" lon="5.777">
        <ele>681.20001220703</ele>
        <time>2013-04-28T08:37:00.000Z</time>
      </trkpt>
      <trkpt lat="46.5557" lon="5.77704">
        <ele>681.59997558594</ele>
        <time>2013-04-28T08:37:04.000Z</time>
      </trkpt>
      <trkpt lat="46.55574" lon="5.7771">
        <ele>682.20001220703</ele>
        <time>2013-04-28T08:37:08.000Z</time>
      </trkpt>
      <trkpt lat="46.55575" lon="5.77711">
        <ele>682.20001220703</ele>
        <time>2013-04-28T08:37:09.000Z</time>
      </trkpt>
      <trkpt lat="46.55577" lon="5.77712">
        <ele>682.40002441406</ele>
        <time>2013-04-28T08:37:10.000Z</time>
      </trkpt>
      <trkpt lat="46.5558" lon="5.77717">
        <ele>682.79998779297</ele>
        <time>2013-04-28T08:37:13.000Z</time>
      </trkpt>
      <trkpt lat="46.5558" lon="5.77718">
        <ele>682.79998779297</ele>
        <time>2013-04-28T08:37:14.000Z</time>
      </trkpt>
      <trkpt lat="46.55581" lon="5.77719">
        <ele>683</ele>
        <time>2013-04-28T08:37:15.000Z</time>
      </trkpt>
      <trkpt lat="46.55584" lon="5.77722">
        <ele>683.20001220703</ele>
        <time>2013-04-28T08:37:18.000Z</time>
      </trkpt>
      <trkpt lat="46.55585" lon="5.77722">
        <ele>683.40002441406</ele>
        <time>2013-04-28T08:37:19.000Z</time>
      </trkpt>
      <trkpt lat="46.55592" lon="5.77729">
        <ele>684.40002441406</ele>
        <time>2013-04-28T08:37:23.000Z</time>
      </trkpt>
      <trkpt lat="46.55593" lon="5.77731">
        <ele>684.59997558594</ele>
        <time>2013-04-28T08:37:24.000Z</time>
      </trkpt>
      <trkpt lat="46.55596" lon="5.77737">
        <ele>685.20001220703</ele>
        <time>2013-04-28T08:37:27.000Z</time>
      </trkpt>
      <trkpt lat="46.55601" lon="5.77745">
        <ele>686</ele>
        <time>2013-04-28T08:37:32.000Z</time>
      </trkpt>
      <trkpt lat="46.55602" lon="5.7775">
        <ele>686.20001220703</ele>
        <time>2013-04-28T08:37:35.000Z</time>
      </trkpt>
      <trkpt lat="46.55604" lon="5.77752">
        <ele>686.40002441406</ele>
        <time>2013-04-28T08:37:36.000Z</time>
      </trkpt>
      <trkpt lat="46.55607" lon="5.77762">
        <ele>687</ele>
        <time>2013-04-28T08:37:40.000Z</time>
      </trkpt>
      <trkpt lat="46.55607" lon="5.77764">
        <ele>687.20001220703</ele>
        <time>2013-04-28T08:37:41.000Z</time>
      </trkpt>
      <trkpt lat="46.55611" lon="5.77768">
        <ele>687.40002441406</ele>
        <time>2013-04-28T08:37:43.000Z</time>
      </trkpt>
      <trkpt lat="46.55611" lon="5.7777">
        <ele>687.59997558594</ele>
        <time>2013-04-28T08:37:44.000Z</time>
      </trkpt>
      <trkpt lat="46.55613" lon="5.7777">
        <ele>687.59997558594</ele>
        <time>2013-04-28T08:37:45.000Z</time>
      </trkpt>
      <trkpt lat="46.55615" lon="5.77772">
        <ele>687.79998779297</ele>
        <time>2013-04-28T08:37:47.000Z</time>
      </trkpt>
      <trkpt lat="46.55615" lon="5.77777">
        <ele>688</ele>
        <time>2013-04-28T08:37:49.000Z</time>
      </trkpt>
      <trkpt lat="46.55616" lon="5.77779">
        <ele>688</ele>
        <time>2013-04-28T08:37:51.000Z</time>
      </trkpt>
      <trkpt lat="46.55617" lon="5.7778">
        <ele>688</ele>
        <time>2013-04-28T08:37:52.000Z</time>
      </trkpt>
      <trkpt lat="46.55617" lon="5.77782">
        <ele>688.20001220703</ele>
        <time>2013-04-28T08:37:53.000Z</time>
      </trkpt>
      <trkpt lat="46.55618" lon="5.77794">
        <ele>688.40002441406</ele>
        <time>2013-04-28T08:37:57.000Z</time>
      </trkpt>
      <trkpt lat="46.55618" lon="5.77797">
        <ele>688.59997558594</ele>
        <time>2013-04-28T08:37:58.000Z</time>
      </trkpt>
      <trkpt lat="46.55618" lon="5.77802">
        <ele>688.59997558594</ele>
        <time>2013-04-28T08:38:00.000Z</time>
      </trkpt>
      <trkpt lat="46.55618" lon="5.77806">
        <ele>688.79998779297</ele>
        <time>2013-04-28T08:38:02.000Z</time>
      </trkpt>
      <trkpt lat="46.55616" lon="5.77817">
        <ele>689</ele>
        <time>2013-04-28T08:38:06.000Z</time>
      </trkpt>
      <trkpt lat="46.55613" lon="5.77827">
        <ele>689.40002441406</ele>
        <time>2013-04-28T08:38:11.000Z</time>
      </trkpt>
      <trkpt lat="46.55613" lon="5.77834">
        <ele>689.59997558594</ele>
        <time>2013-04-28T08:38:14.000Z</time>
      </trkpt>
      <trkpt lat="46.55613" lon="5.77839">
        <ele>689.79998779297</ele>
        <time>2013-04-28T08:38:16.000Z</time>
      </trkpt>
      <trkpt lat="46.55613" lon="5.77842">
        <ele>689.79998779297</ele>
        <time>2013-04-28T08:38:17.000Z</time>
      </trkpt>
      <trkpt lat="46.55614" lon="5.7785">
        <ele>690</ele>
        <time>2013-04-28T08:38:20.000Z</time>
      </trkpt>
      <trkpt lat="46.55613" lon="5.77859">
        <ele>690.20001220703</ele>
        <time>2013-04-28T08:38:24.000Z</time>
      </trkpt>
      <trkpt lat="46.55613" lon="5.77868">
        <ele>690.59997558594</ele>
        <time>2013-04-28T08:38:28.000Z</time>
      </trkpt>
      <trkpt lat="46.55613" lon="5.77871">
        <ele>690.59997558594</ele>
        <time>2013-04-28T08:38:29.000Z</time>
      </trkpt>
      <trkpt lat="46.55613" lon="5.77881">
        <ele>690.79998779297</ele>
        <time>2013-04-28T08:38:34.000Z</time>
      </trkpt>
      <trkpt lat="46.55612" lon="5.77886">
        <ele>691</ele>
        <time>2013-04-28T08:38:36.000Z</time>
      </trkpt>
      <trkpt lat="46.55609" lon="5.77898">
        <ele>691.40002441406</ele>
        <time>2013-04-28T08:38:41.000Z</time>
      </trkpt>
      <trkpt lat="46.5561" lon="5.77901">
        <ele>691.59997558594</ele>
        <time>2013-04-28T08:38:42.000Z</time>
      </trkpt>
      <trkpt lat="46.55609" lon="5.77911">
        <ele>691.79998779297</ele>
        <time>2013-04-28T08:38:45.000Z</time>
      </trkpt>
      <trkpt lat="46.55609" lon="5.77913">
        <ele>691.79998779297</ele>
        <time>2013-04-28T08:38:46.000Z</time>
      </trkpt>
      <trkpt lat="46.55611" lon="5.77922">
        <ele>692</ele>
        <time>2013-04-28T08:38:49.000Z</time>
      </trkpt>
      <trkpt lat="46.55614" lon="5.77932">
        <ele>692.40002441406</ele>
        <time>2013-04-28T08:38:54.000Z</time>
      </trkpt>
      <trkpt lat="46.55618" lon="5.7794">
        <ele>692.40002441406</ele>
        <time>2013-04-28T08:38:58.000Z</time>
      </trkpt>
      <trkpt lat="46.5562" lon="5.77943">
        <ele>692.40002441406</ele>
        <time>2013-04-28T08:39:00.000Z</time>
      </trkpt>
      <trkpt lat="46.55624" lon="5.7795">
        <ele>692.59997558594</ele>
        <time>2013-04-28T08:39:05.000Z</time>
      </trkpt>
      <trkpt lat="46.55629" lon="5.77955">
        <ele>692.59997558594</ele>
        <time>2013-04-28T08:39:10.000Z</time>
      </trkpt>
      <trkpt lat="46.55634" lon="5.77957">
        <ele>692.59997558594</ele>
        <time>2013-04-28T08:39:15.000Z</time>
      </trkpt>
      <trkpt lat="46.55637" lon="5.77958">
        <ele>692.59997558594</ele>
        <time>2013-04-28T08:39:18.000Z</time>
      </trkpt>
      <trkpt lat="46.55639" lon="5.77958">
        <ele>692.59997558594</ele>
        <time>2013-04-28T08:39:19.000Z</time>
      </trkpt>
      <trkpt lat="46.5564" lon="5.77959">
        <ele>692.59997558594</ele>
        <time>2013-04-28T08:39:21.000Z</time>
      </trkpt>
      <trkpt lat="46.55645" lon="5.77959">
        <ele>692.40002441406</ele>
        <time>2013-04-28T08:39:24.000Z</time>
      </trkpt>
      <trkpt lat="46.55649" lon="5.77958">
        <ele>692.20001220703</ele>
        <time>2013-04-28T08:39:28.000Z</time>
      </trkpt>
      <trkpt lat="46.5565" lon="5.77957">
        <ele>692.20001220703</ele>
        <time>2013-04-28T08:39:29.000Z</time>
      </trkpt>
      <trkpt lat="46.55654" lon="5.77956">
        <ele>692</ele>
        <time>2013-04-28T08:39:33.000Z</time>
      </trkpt>
      <trkpt lat="46.55659" lon="5.77953">
        <ele>691.79998779297</ele>
        <time>2013-04-28T08:39:38.000Z</time>
      </trkpt>
      <trkpt lat="46.55661" lon="5.77952">
        <ele>691.79998779297</ele>
        <time>2013-04-28T08:39:39.000Z</time>
      </trkpt>
      <trkpt lat="46.55663" lon="5.77953">
        <ele>691.79998779297</ele>
        <time>2013-04-28T08:39:42.000Z</time>
      </trkpt>
      <trkpt lat="46.55664" lon="5.77953">
        <ele>691.79998779297</ele>
        <time>2013-04-28T08:39:43.000Z</time>
      </trkpt>
      <trkpt lat="46.5567" lon="5.77955">
        <ele>692</ele>
        <time>2013-04-28T08:39:48.000Z</time>
      </trkpt>
      <trkpt lat="46.55673" lon="5.77955">
        <ele>692.20001220703</ele>
        <time>2013-04-28T08:39:51.000Z</time>
      </trkpt>
      <trkpt lat="46.55674" lon="5.77955">
        <ele>692.20001220703</ele>
        <time>2013-04-28T08:39:52.000Z</time>
      </trkpt>
      <trkpt lat="46.55675" lon="5.77954">
        <ele>692.40002441406</ele>
        <time>2013-04-28T08:39:53.000Z</time>
      </trkpt>
      <trkpt lat="46.55681" lon="5.77957">
        <ele>692.79998779297</ele>
        <time>2013-04-28T08:39:58.000Z</time>
      </trkpt>
      <trkpt lat="46.55687" lon="5.77958">
        <ele>693.40002441406</ele>
        <time>2013-04-28T08:40:03.000Z</time>
      </trkpt>
      <trkpt lat="46.55689" lon="5.77959">
        <ele>693.59997558594</ele>
        <time>2013-04-28T08:40:05.000Z</time>
      </trkpt>
      <trkpt lat="46.55691" lon="5.77959">
        <ele>693.79998779297</ele>
        <time>2013-04-28T08:40:07.000Z</time>
      </trkpt>
      <trkpt lat="46.55692" lon="5.7796">
        <ele>693.79998779297</ele>
        <time>2013-04-28T08:40:08.000Z</time>
      </trkpt>
      <trkpt lat="46.55695" lon="5.77962">
        <ele>694.20001220703</ele>
        <time>2013-04-28T08:40:10.000Z</time>
      </trkpt>
      <trkpt lat="46.55697" lon="5.77963">
        <ele>694.40002441406</ele>
        <time>2013-04-28T08:40:13.000Z</time>
      </trkpt>
      <trkpt lat="46.557" lon="5.77965">
        <ele>694.79998779297</ele>
        <time>2013-04-28T08:40:15.000Z</time>
      </trkpt>
      <trkpt lat="46.55703" lon="5.77966">
        <ele>695</ele>
        <time>2013-04-28T08:40:17.000Z</time>
      </trkpt>
      <trkpt lat="46.55705" lon="5.77967">
        <ele>695.40002441406</ele>
        <time>2013-04-28T08:40:19.000Z</time>
      </trkpt>
      <trkpt lat="46.55712" lon="5.77972">
        <ele>696.20001220703</ele>
        <time>2013-04-28T08:40:23.000Z</time>
      </trkpt>
      <trkpt lat="46.55715" lon="5.77976">
        <ele>696.79998779297</ele>
        <time>2013-04-28T08:40:25.000Z</time>
      </trkpt>
      <trkpt lat="46.55718" lon="5.77984">
        <ele>697.59997558594</ele>
        <time>2013-04-28T08:40:28.000Z</time>
      </trkpt>
      <trkpt lat="46.5572" lon="5.77991">
        <ele>698.40002441406</ele>
        <time>2013-04-28T08:40:31.000Z</time>
      </trkpt>
      <trkpt lat="46.55723" lon="5.77995">
        <ele>698.79998779297</ele>
        <time>2013-04-28T08:40:33.000Z</time>
      </trkpt>
      <trkpt lat="46.55726" lon="5.78">
        <ele>699.59997558594</ele>
        <time>2013-04-28T08:40:36.000Z</time>
      </trkpt>
      <trkpt lat="46.55727" lon="5.78001">
        <ele>699.79998779297</ele>
        <time>2013-04-28T08:40:37.000Z</time>
      </trkpt>
      <trkpt lat="46.55731" lon="5.78004">
        <ele>700.40002441406</ele>
        <time>2013-04-28T08:40:39.000Z</time>
      </trkpt>
      <trkpt lat="46.55732" lon="5.78005">
        <ele>700.59997558594</ele>
        <time>2013-04-28T08:40:40.000Z</time>
      </trkpt>
      <trkpt lat="46.55738" lon="5.78003">
        <ele>701</ele>
        <time>2013-04-28T08:40:43.000Z</time>
      </trkpt>
      <trkpt lat="46.5575" lon="5.77991">
        <ele>701</ele>
        <time>2013-04-28T08:40:48.000Z</time>
      </trkpt>
      <trkpt lat="46.55762" lon="5.7797">
        <ele>700.59997558594</ele>
        <time>2013-04-28T08:40:54.000Z</time>
      </trkpt>
      <trkpt lat="46.55764" lon="5.77966">
        <ele>700.59997558594</ele>
        <time>2013-04-28T08:40:55.000Z</time>
      </trkpt>
      <trkpt lat="46.55774" lon="5.77949">
        <ele>700</ele>
        <time>2013-04-28T08:41:00.000Z</time>
      </trkpt>
      <trkpt lat="46.55785" lon="5.77932">
        <ele>699.40002441406</ele>
        <time>2013-04-28T08:41:05.000Z</time>
      </trkpt>
      <trkpt lat="46.55795" lon="5.77914">
        <ele>698.40002441406</ele>
        <time>2013-04-28T08:41:10.000Z</time>
      </trkpt>
      <trkpt lat="46.55807" lon="5.77892">
        <ele>697.20001220703</ele>
        <time>2013-04-28T08:41:16.000Z</time>
      </trkpt>
      <trkpt lat="46.55819" lon="5.7787">
        <ele>695.20001220703</ele>
        <time>2013-04-28T08:41:22.000Z</time>
      </trkpt>
      <trkpt lat="46.55822" lon="5.77865">
        <ele>694.79998779297</ele>
        <time>2013-04-28T08:41:23.000Z</time>
      </trkpt>
      <trkpt lat="46.5583" lon="5.77849">
        <ele>693</ele>
        <time>2013-04-28T08:41:27.000Z</time>
      </trkpt>
      <trkpt lat="46.5584" lon="5.7783">
        <ele>691.40002441406</ele>
        <time>2013-04-28T08:41:32.000Z</time>
      </trkpt>
      <trkpt lat="46.55848" lon="5.77816">
        <ele>691.20001220703</ele>
        <time>2013-04-28T08:41:36.000Z</time>
      </trkpt>
      <trkpt lat="46.55855" lon="5.77801">
        <ele>690.79998779297</ele>
        <time>2013-04-28T08:41:40.000Z</time>
      </trkpt>
      <trkpt lat="46.5586" lon="5.77791">
        <ele>690.59997558594</ele>
        <time>2013-04-28T08:41:43.000Z</time>
      </trkpt>
      <trkpt lat="46.55864" lon="5.77785">
        <ele>690.59997558594</ele>
        <time>2013-04-28T08:41:45.000Z</time>
      </trkpt>
      <trkpt lat="46.55876" lon="5.77762">
        <ele>689.79998779297</ele>
        <time>2013-04-28T08:41:51.000Z</time>
      </trkpt>
      <trkpt lat="46.55878" lon="5.77758">
        <ele>689.79998779297</ele>
        <time>2013-04-28T08:41:52.000Z</time>
      </trkpt>
      <trkpt lat="46.55889" lon="5.77736">
        <ele>688.79998779297</ele>
        <time>2013-04-28T08:41:58.000Z</time>
      </trkpt>
      <trkpt lat="46.559" lon="5.77714">
        <ele>687.59997558594</ele>
        <time>2013-04-28T08:42:04.000Z</time>
      </trkpt>
      <trkpt lat="46.55902" lon="5.77711">
        <ele>687.40002441406</ele>
        <time>2013-04-28T08:42:05.000Z</time>
      </trkpt>
      <trkpt lat="46.55913" lon="5.77689">
        <ele>686</ele>
        <time>2013-04-28T08:42:11.000Z</time>
      </trkpt>
      <trkpt lat="46.55927" lon="5.77671">
        <ele>685.20001220703</ele>
        <time>2013-04-28T08:42:17.000Z</time>
      </trkpt>
      <trkpt lat="46.55938" lon="5.77655">
        <ele>684.59997558594</ele>
        <time>2013-04-28T08:42:22.000Z</time>
      </trkpt>
      <trkpt lat="46.55949" lon="5.77639">
        <ele>684.20001220703</ele>
        <time>2013-04-28T08:42:27.000Z</time>
      </trkpt>
      <trkpt lat="46.55962" lon="5.7762">
        <ele>683.79998779297</ele>
        <time>2013-04-28T08:42:33.000Z</time>
      </trkpt>
      <trkpt lat="46.55964" lon="5.77617">
        <ele>683.79998779297</ele>
        <time>2013-04-28T08:42:34.000Z</time>
      </trkpt>
      <trkpt lat="46.55974" lon="5.77601">
        <ele>683.40002441406</ele>
        <time>2013-04-28T08:42:39.000Z</time>
      </trkpt>
      <trkpt lat="46.55981" lon="5.77586">
        <ele>683</ele>
        <time>2013-04-28T08:42:43.000Z</time>
      </trkpt>
      <trkpt lat="46.5599" lon="5.77568">
        <ele>682.79998779297</ele>
        <time>2013-04-28T08:42:48.000Z</time>
      </trkpt>
      <trkpt lat="46.56003" lon="5.77548">
        <ele>682.40002441406</ele>
        <time>2013-04-28T08:42:54.000Z</time>
      </trkpt>
      <trkpt lat="46.56005" lon="5.77544">
        <ele>682</ele>
        <time>2013-04-28T08:42:55.000Z</time>
      </trkpt>
      <trkpt lat="46.56012" lon="5.77531">
        <ele>681</ele>
        <time>2013-04-28T08:42:59.000Z</time>
      </trkpt>
      <trkpt lat="46.56021" lon="5.7752">
        <ele>680</ele>
        <time>2013-04-28T08:43:03.000Z</time>
      </trkpt>
      <trkpt lat="46.56035" lon="5.77507">
        <ele>678.59997558594</ele>
        <time>2013-04-28T08:43:08.000Z</time>
      </trkpt>
      <trkpt lat="46.56048" lon="5.77491">
        <ele>677.20001220703</ele>
        <time>2013-04-28T08:43:13.000Z</time>
      </trkpt>
      <trkpt lat="46.56063" lon="5.77473">
        <ele>675.59997558594</ele>
        <time>2013-04-28T08:43:19.000Z</time>
      </trkpt>
      <trkpt lat="46.56074" lon="5.77456">
        <ele>674.40002441406</ele>
        <time>2013-04-28T08:43:24.000Z</time>
      </trkpt>
      <trkpt lat="46.56083" lon="5.77442">
        <ele>673.40002441406</ele>
        <time>2013-04-28T08:43:28.000Z</time>
      </trkpt>
      <trkpt lat="46.56094" lon="5.77426">
        <ele>673</ele>
        <time>2013-04-28T08:43:33.000Z</time>
      </trkpt>
      <trkpt lat="46.56102" lon="5.77413">
        <ele>672.59997558594</ele>
        <time>2013-04-28T08:43:37.000Z</time>
      </trkpt>
      <trkpt lat="46.56116" lon="5.77394">
        <ele>672</ele>
        <time>2013-04-28T08:43:43.000Z</time>
      </trkpt>
      <trkpt lat="46.56127" lon="5.77372">
        <ele>671</ele>
        <time>2013-04-28T08:43:48.000Z</time>
      </trkpt>
      <trkpt lat="46.56137" lon="5.7735">
        <ele>670</ele>
        <time>2013-04-28T08:43:53.000Z</time>
      </trkpt>
      <trkpt lat="46.56138" lon="5.77346">
        <ele>669.79998779297</ele>
        <time>2013-04-28T08:43:54.000Z</time>
      </trkpt>
      <trkpt lat="46.56146" lon="5.77327">
        <ele>668.59997558594</ele>
        <time>2013-04-28T08:43:59.000Z</time>
      </trkpt>
      <trkpt lat="46.56157" lon="5.77302">
        <ele>667.40002441406</ele>
        <time>2013-04-28T08:44:05.000Z</time>
      </trkpt>
      <trkpt lat="46.56165" lon="5.77283">
        <ele>666.20001220703</ele>
        <time>2013-04-28T08:44:10.000Z</time>
      </trkpt>
      <trkpt lat="46.56173" lon="5.77259">
        <ele>664.40002441406</ele>
        <time>2013-04-28T08:44:16.000Z</time>
      </trkpt>
      <trkpt lat="46.56181" lon="5.77236">
        <ele>662.79998779297</ele>
        <time>2013-04-28T08:44:22.000Z</time>
      </trkpt>
      <trkpt lat="46.56185" lon="5.7722">
        <ele>661.79998779297</ele>
        <time>2013-04-28T08:44:26.000Z</time>
      </trkpt>
      <trkpt lat="46.5619" lon="5.77206">
        <ele>660.79998779297</ele>
        <time>2013-04-28T08:44:30.000Z</time>
      </trkpt>
      <trkpt lat="46.56194" lon="5.77186">
        <ele>659.59997558594</ele>
        <time>2013-04-28T08:44:35.000Z</time>
      </trkpt>
      <trkpt lat="46.56195" lon="5.77168">
        <ele>658.20001220703</ele>
        <time>2013-04-28T08:44:39.000Z</time>
      </trkpt>
      <trkpt lat="46.56198" lon="5.77143">
        <ele>656.59997558594</ele>
        <time>2013-04-28T08:44:44.000Z</time>
      </trkpt>
      <trkpt lat="46.562" lon="5.77124">
        <ele>655.20001220703</ele>
        <time>2013-04-28T08:44:48.000Z</time>
      </trkpt>
      <trkpt lat="46.56201" lon="5.77106">
        <ele>654</ele>
        <time>2013-04-28T08:44:52.000Z</time>
      </trkpt>
      <trkpt lat="46.56203" lon="5.77087">
        <ele>652.79998779297</ele>
        <time>2013-04-28T08:44:56.000Z</time>
      </trkpt>
      <trkpt lat="46.56203" lon="5.77082">
        <ele>652.40002441406</ele>
        <time>2013-04-28T08:44:57.000Z</time>
      </trkpt>
      <trkpt lat="46.56206" lon="5.77067">
        <ele>651.20001220703</ele>
        <time>2013-04-28T08:45:00.000Z</time>
      </trkpt>
      <trkpt lat="46.56212" lon="5.77044">
        <ele>649.40002441406</ele>
        <time>2013-04-28T08:45:05.000Z</time>
      </trkpt>
      <trkpt lat="46.56219" lon="5.77021">
        <ele>647.59997558594</ele>
        <time>2013-04-28T08:45:10.000Z</time>
      </trkpt>
      <trkpt lat="46.56227" lon="5.76997">
        <ele>645.59997558594</ele>
        <time>2013-04-28T08:45:15.000Z</time>
      </trkpt>
      <trkpt lat="46.56231" lon="5.7699">
        <ele>644.79998779297</ele>
        <time>2013-04-28T08:45:17.000Z</time>
      </trkpt>
      <trkpt lat="46.56239" lon="5.76991">
        <ele>644.59997558594</ele>
        <time>2013-04-28T08:45:19.000Z</time>
      </trkpt>
      <trkpt lat="46.56247" lon="5.77001">
        <ele>645.20001220703</ele>
        <time>2013-04-28T08:45:22.000Z</time>
      </trkpt>
      <trkpt lat="46.5625" lon="5.77005">
        <ele>645.40002441406</ele>
        <time>2013-04-28T08:45:23.000Z</time>
      </trkpt>
      <trkpt lat="46.56256" lon="5.77021">
        <ele>646</ele>
        <time>2013-04-28T08:45:27.000Z</time>
      </trkpt>
      <trkpt lat="46.56256" lon="5.77025">
        <ele>646.40002441406</ele>
        <time>2013-04-28T08:45:28.000Z</time>
      </trkpt>
      <trkpt lat="46.56256" lon="5.77039">
        <ele>647.59997558594</ele>
        <time>2013-04-28T08:45:33.000Z</time>
      </trkpt>
      <trkpt lat="46.56258" lon="5.77054">
        <ele>648.79998779297</ele>
        <time>2013-04-28T08:45:38.000Z</time>
      </trkpt>
      <trkpt lat="46.56259" lon="5.77067">
        <ele>649.59997558594</ele>
        <time>2013-04-28T08:45:42.000Z</time>
      </trkpt>
      <trkpt lat="46.5626" lon="5.77072">
        <ele>650</ele>
        <time>2013-04-28T08:45:44.000Z</time>
      </trkpt>
      <trkpt lat="46.5626" lon="5.77078">
        <ele>650.40002441406</ele>
        <time>2013-04-28T08:45:46.000Z</time>
      </trkpt>
      <trkpt lat="46.5626" lon="5.7709">
        <ele>651.40002441406</ele>
        <time>2013-04-28T08:45:50.000Z</time>
      </trkpt>
      <trkpt lat="46.56261" lon="5.77101">
        <ele>651.79998779297</ele>
        <time>2013-04-28T08:45:54.000Z</time>
      </trkpt>
      <trkpt lat="46.56265" lon="5.77112">
        <ele>652.20001220703</ele>
        <time>2013-04-28T08:45:58.000Z</time>
      </trkpt>
      <trkpt lat="46.56265" lon="5.77115">
        <ele>652.40002441406</ele>
        <time>2013-04-28T08:46:00.000Z</time>
      </trkpt>
      <trkpt lat="46.56266" lon="5.77118">
        <ele>652.59997558594</ele>
        <time>2013-04-28T08:46:01.000Z</time>
      </trkpt>
      <trkpt lat="46.56265" lon="5.77132">
        <ele>653.59997558594</ele>
        <time>2013-04-28T08:46:06.000Z</time>
      </trkpt>
      <trkpt lat="46.56265" lon="5.77135">
        <ele>653.59997558594</ele>
        <time>2013-04-28T08:46:07.000Z</time>
      </trkpt>
      <trkpt lat="46.56263" lon="5.77146">
        <ele>654.59997558594</ele>
        <time>2013-04-28T08:46:11.000Z</time>
      </trkpt>
      <trkpt lat="46.56261" lon="5.77152">
        <ele>655.20001220703</ele>
        <time>2013-04-28T08:46:14.000Z</time>
      </trkpt>
      <trkpt lat="46.5626" lon="5.77155">
        <ele>655.40002441406</ele>
        <time>2013-04-28T08:46:15.000Z</time>
      </trkpt>
      <trkpt lat="46.56259" lon="5.77163">
        <ele>656</ele>
        <time>2013-04-28T08:46:18.000Z</time>
      </trkpt>
      <trkpt lat="46.56259" lon="5.77166">
        <ele>656.20001220703</ele>
        <time>2013-04-28T08:46:20.000Z</time>
      </trkpt>
      <trkpt lat="46.56257" lon="5.77178">
        <ele>657</ele>
        <time>2013-04-28T08:46:25.000Z</time>
      </trkpt>
      <trkpt lat="46.56259" lon="5.7719">
        <ele>657.79998779297</ele>
        <time>2013-04-28T08:46:30.000Z</time>
      </trkpt>
      <trkpt lat="46.56259" lon="5.77202">
        <ele>658.59997558594</ele>
        <time>2013-04-28T08:46:35.000Z</time>
      </trkpt>
      <trkpt lat="46.5626" lon="5.77206">
        <ele>658.79998779297</ele>
        <time>2013-04-28T08:46:37.000Z</time>
      </trkpt>
      <trkpt lat="46.5626" lon="5.77209">
        <ele>659</ele>
        <time>2013-04-28T08:46:38.000Z</time>
      </trkpt>
      <trkpt lat="46.5626" lon="5.77211">
        <ele>659</ele>
        <time>2013-04-28T08:46:39.000Z</time>
      </trkpt>
      <trkpt lat="46.56263" lon="5.77221">
        <ele>659.59997558594</ele>
        <time>2013-04-28T08:46:44.000Z</time>
      </trkpt>
      <trkpt lat="46.56265" lon="5.77228">
        <ele>659.79998779297</ele>
        <time>2013-04-28T08:46:48.000Z</time>
      </trkpt>
      <trkpt lat="46.56265" lon="5.77234">
        <ele>660.20001220703</ele>
        <time>2013-04-28T08:46:51.000Z</time>
      </trkpt>
      <trkpt lat="46.56266" lon="5.77237">
        <ele>660.40002441406</ele>
        <time>2013-04-28T08:46:52.000Z</time>
      </trkpt>
      <trkpt lat="46.56267" lon="5.77251">
        <ele>661.20001220703</ele>
        <time>2013-04-28T08:46:57.000Z</time>
      </trkpt>
      <trkpt lat="46.56267" lon="5.77253">
        <ele>661.40002441406</ele>
        <time>2013-04-28T08:46:58.000Z</time>
      </trkpt>
      <trkpt lat="46.56268" lon="5.77261">
        <ele>661.59997558594</ele>
        <time>2013-04-28T08:47:01.000Z</time>
      </trkpt>
      <trkpt lat="46.56268" lon="5.77264">
        <ele>661.79998779297</ele>
        <time>2013-04-28T08:47:02.000Z</time>
      </trkpt>
      <trkpt lat="46.56268" lon="5.77267">
        <ele>662</ele>
        <time>2013-04-28T08:47:03.000Z</time>
      </trkpt>
      <trkpt lat="46.56268" lon="5.77275">
        <ele>662.59997558594</ele>
        <time>2013-04-28T08:47:06.000Z</time>
      </trkpt>
      <trkpt lat="46.56269" lon="5.7728">
        <ele>662.79998779297</ele>
        <time>2013-04-28T08:47:08.000Z</time>
      </trkpt>
      <trkpt lat="46.56271" lon="5.77285">
        <ele>663</ele>
        <time>2013-04-28T08:47:10.000Z</time>
      </trkpt>
      <trkpt lat="46.56272" lon="5.77289">
        <ele>663</ele>
        <time>2013-04-28T08:47:12.000Z</time>
      </trkpt>
      <trkpt lat="46.56273" lon="5.77305">
        <ele>664</ele>
        <time>2013-04-28T08:47:18.000Z</time>
      </trkpt>
      <trkpt lat="46.56274" lon="5.77314">
        <ele>664.40002441406</ele>
        <time>2013-04-28T08:47:21.000Z</time>
      </trkpt>
      <trkpt lat="46.56275" lon="5.77317">
        <ele>664.59997558594</ele>
        <time>2013-04-28T08:47:22.000Z</time>
      </trkpt>
      <trkpt lat="46.56277" lon="5.77332">
        <ele>665.20001220703</ele>
        <time>2013-04-28T08:47:28.000Z</time>
      </trkpt>
      <trkpt lat="46.56283" lon="5.77349">
        <ele>666</ele>
        <time>2013-04-28T08:47:35.000Z</time>
      </trkpt>
      <trkpt lat="46.56288" lon="5.77362">
        <ele>666.79998779297</ele>
        <time>2013-04-28T08:47:41.000Z</time>
      </trkpt>
      <trkpt lat="46.5629" lon="5.77373">
        <ele>667.59997558594</ele>
        <time>2013-04-28T08:47:45.000Z</time>
      </trkpt>
      <trkpt lat="46.5629" lon="5.77385">
        <ele>668.79998779297</ele>
        <time>2013-04-28T08:47:50.000Z</time>
      </trkpt>
      <trkpt lat="46.56285" lon="5.77399">
        <ele>670.59997558594</ele>
        <time>2013-04-28T08:47:54.000Z</time>
      </trkpt>
      <trkpt lat="46.56288" lon="5.77414">
        <ele>671.79998779297</ele>
        <time>2013-04-28T08:47:59.000Z</time>
      </trkpt>
      <trkpt lat="46.56293" lon="5.77424">
        <ele>672.20001220703</ele>
        <time>2013-04-28T08:48:04.000Z</time>
      </trkpt>
      <trkpt lat="46.56294" lon="5.77433">
        <ele>672.59997558594</ele>
        <time>2013-04-28T08:48:07.000Z</time>
      </trkpt>
      <trkpt lat="46.56294" lon="5.77435">
        <ele>672.59997558594</ele>
        <time>2013-04-28T08:48:08.000Z</time>
      </trkpt>
      <trkpt lat="46.56295" lon="5.77437">
        <ele>672.59997558594</ele>
        <time>2013-04-28T08:48:09.000Z</time>
      </trkpt>
      <trkpt lat="46.56294" lon="5.77449">
        <ele>673.40002441406</ele>
        <time>2013-04-28T08:48:14.000Z</time>
      </trkpt>
      <trkpt lat="46.56289" lon="5.77456">
        <ele>674</ele>
        <time>2013-04-28T08:48:19.000Z</time>
      </trkpt>
      <trkpt lat="46.56284" lon="5.77465">
        <ele>674.79998779297</ele>
        <time>2013-04-28T08:48:24.000Z</time>
      </trkpt>
      <trkpt lat="46.56279" lon="5.77477">
        <ele>675.79998779297</ele>
        <time>2013-04-28T08:48:29.000Z</time>
      </trkpt>
      <trkpt lat="46.56274" lon="5.77486">
        <ele>676.59997558594</ele>
        <time>2013-04-28T08:48:33.000Z</time>
      </trkpt>
      <trkpt lat="46.56273" lon="5.77487">
        <ele>676.59997558594</ele>
        <time>2013-04-28T08:48:34.000Z</time>
      </trkpt>
      <trkpt lat="46.56271" lon="5.77493">
        <ele>677</ele>
        <time>2013-04-28T08:48:39.000Z</time>
      </trkpt>
      <trkpt lat="46.56269" lon="5.775">
        <ele>677.59997558594</ele>
        <time>2013-04-28T08:48:42.000Z</time>
      </trkpt>
      <trkpt lat="46.56268" lon="5.77504">
        <ele>677.79998779297</ele>
        <time>2013-04-28T08:48:44.000Z</time>
      </trkpt>
      <trkpt lat="46.56268" lon="5.77513">
        <ele>678.59997558594</ele>
        <time>2013-04-28T08:48:48.000Z</time>
      </trkpt>
      <trkpt lat="46.56268" lon="5.77515">
        <ele>678.59997558594</ele>
        <time>2013-04-28T08:48:49.000Z</time>
      </trkpt>
      <trkpt lat="46.56272" lon="5.77526">
        <ele>679.20001220703</ele>
        <time>2013-04-28T08:48:53.000Z</time>
      </trkpt>
      <trkpt lat="46.56279" lon="5.77537">
        <ele>679.40002441406</ele>
        <time>2013-04-28T08:48:58.000Z</time>
      </trkpt>
      <trkpt lat="46.5628" lon="5.77539">
        <ele>679.59997558594</ele>
        <time>2013-04-28T08:48:59.000Z</time>
      </trkpt>
      <trkpt lat="46.56283" lon="5.77544">
        <ele>679.79998779297</ele>
        <time>2013-04-28T08:49:02.000Z</time>
      </trkpt>
      <trkpt lat="46.5629" lon="5.77548">
        <ele>679.40002441406</ele>
        <time>2013-04-28T08:49:06.000Z</time>
      </trkpt>
      <trkpt lat="46.56291" lon="5.77549">
        <ele>679.40002441406</ele>
        <time>2013-04-28T08:49:07.000Z</time>
      </trkpt>
      <trkpt lat="46.56293" lon="5.77551">
        <ele>679.40002441406</ele>
        <time>2013-04-28T08:49:09.000Z</time>
      </trkpt>
      <trkpt lat="46.56297" lon="5.77555">
        <ele>679.40002441406</ele>
        <time>2013-04-28T08:49:11.000Z</time>
      </trkpt>
      <trkpt lat="46.56301" lon="5.77568">
        <ele>680</ele>
        <time>2013-04-28T08:49:15.000Z</time>
      </trkpt>
      <trkpt lat="46.56303" lon="5.77575">
        <ele>680.40002441406</ele>
        <time>2013-04-28T08:49:17.000Z</time>
      </trkpt>
      <trkpt lat="46.56305" lon="5.77577">
        <ele>680.40002441406</ele>
        <time>2013-04-28T08:49:18.000Z</time>
      </trkpt>
      <trkpt lat="46.56307" lon="5.77581">
        <ele>680.59997558594</ele>
        <time>2013-04-28T08:49:19.000Z</time>
      </trkpt>
      <trkpt lat="46.5631" lon="5.77593">
        <ele>681.20001220703</ele>
        <time>2013-04-28T08:49:23.000Z</time>
      </trkpt>
      <trkpt lat="46.56312" lon="5.77598">
        <ele>681.40002441406</ele>
        <time>2013-04-28T08:49:25.000Z</time>
      </trkpt>
      <trkpt lat="46.56313" lon="5.77605">
        <ele>681.59997558594</ele>
        <time>2013-04-28T08:49:27.000Z</time>
      </trkpt>
      <trkpt lat="46.56313" lon="5.77622">
        <ele>682.59997558594</ele>
        <time>2013-04-28T08:49:32.000Z</time>
      </trkpt>
      <trkpt lat="46.56312" lon="5.77637">
        <ele>683.59997558594</ele>
        <time>2013-04-28T08:49:36.000Z</time>
      </trkpt>
      <trkpt lat="46.56312" lon="5.77652">
        <ele>684.59997558594</ele>
        <time>2013-04-28T08:49:41.000Z</time>
      </trkpt>
      <trkpt lat="46.56312" lon="5.77661">
        <ele>685.20001220703</ele>
        <time>2013-04-28T08:49:44.000Z</time>
      </trkpt>
      <trkpt lat="46.56311" lon="5.77673">
        <ele>686</ele>
        <time>2013-04-28T08:49:48.000Z</time>
      </trkpt>
      <trkpt lat="46.56311" lon="5.77675">
        <ele>686</ele>
        <time>2013-04-28T08:49:49.000Z</time>
      </trkpt>
      <trkpt lat="46.56312" lon="5.77678">
        <ele>686.20001220703</ele>
        <time>2013-04-28T08:49:50.000Z</time>
      </trkpt>
      <trkpt lat="46.56312" lon="5.77687">
        <ele>686.79998779297</ele>
        <time>2013-04-28T08:49:53.000Z</time>
      </trkpt>
      <trkpt lat="46.56311" lon="5.777">
        <ele>687.79998779297</ele>
        <time>2013-04-28T08:49:57.000Z</time>
      </trkpt>
      <trkpt lat="46.5631" lon="5.77703">
        <ele>688</ele>
        <time>2013-04-28T08:49:58.000Z</time>
      </trkpt>
      <trkpt lat="46.5631" lon="5.77705">
        <ele>688.20001220703</ele>
        <time>2013-04-28T08:49:59.000Z</time>
      </trkpt>
      <trkpt lat="46.5631" lon="5.77712">
        <ele>688.59997558594</ele>
        <time>2013-04-28T08:50:01.000Z</time>
      </trkpt>
      <trkpt lat="46.56312" lon="5.77722">
        <ele>689.20001220703</ele>
        <time>2013-04-28T08:50:04.000Z</time>
      </trkpt>
      <trkpt lat="46.56313" lon="5.7773">
        <ele>689.59997558594</ele>
        <time>2013-04-28T08:50:07.000Z</time>
      </trkpt>
      <trkpt lat="46.56313" lon="5.77736">
        <ele>690</ele>
        <time>2013-04-28T08:50:09.000Z</time>
      </trkpt>
      <trkpt lat="46.56314" lon="5.77748">
        <ele>690.59997558594</ele>
        <time>2013-04-28T08:50:13.000Z</time>
      </trkpt>
      <trkpt lat="46.56316" lon="5.7775">
        <ele>690.59997558594</ele>
        <time>2013-04-28T08:50:14.000Z</time>
      </trkpt>
      <trkpt lat="46.56319" lon="5.77756">
        <ele>690.59997558594</ele>
        <time>2013-04-28T08:50:17.000Z</time>
      </trkpt>
      <trkpt lat="46.56322" lon="5.77758">
        <ele>690.59997558594</ele>
        <time>2013-04-28T08:50:19.000Z</time>
      </trkpt>
      <trkpt lat="46.56323" lon="5.7776">
        <ele>690.59997558594</ele>
        <time>2013-04-28T08:50:20.000Z</time>
      </trkpt>
      <trkpt lat="46.56326" lon="5.77767">
        <ele>690.59997558594</ele>
        <time>2013-04-28T08:50:23.000Z</time>
      </trkpt>
      <trkpt lat="46.56329" lon="5.77769">
        <ele>690.59997558594</ele>
        <time>2013-04-28T08:50:24.000Z</time>
      </trkpt>
      <trkpt lat="46.56334" lon="5.77779">
        <ele>690.59997558594</ele>
        <time>2013-04-28T08:50:29.000Z</time>
      </trkpt>
      <trkpt lat="46.56338" lon="5.77791">
        <ele>690.40002441406</ele>
        <time>2013-04-28T08:50:33.000Z</time>
      </trkpt>
      <trkpt lat="46.56342" lon="5.77801">
        <ele>690.40002441406</ele>
        <time>2013-04-28T08:50:38.000Z</time>
      </trkpt>
      <trkpt lat="46.56343" lon="5.77802">
        <ele>690.40002441406</ele>
        <time>2013-04-28T08:50:39.000Z</time>
      </trkpt>
      <trkpt lat="46.56348" lon="5.77805">
        <ele>689.79998779297</ele>
        <time>2013-04-28T08:50:42.000Z</time>
      </trkpt>
      <trkpt lat="46.56352" lon="5.77807">
        <ele>689.20001220703</ele>
        <time>2013-04-28T08:50:45.000Z</time>
      </trkpt>
      <trkpt lat="46.56356" lon="5.77809">
        <ele>688.79998779297</ele>
        <time>2013-04-28T08:50:47.000Z</time>
      </trkpt>
      <trkpt lat="46.56357" lon="5.7781">
        <ele>688.59997558594</ele>
        <time>2013-04-28T08:50:48.000Z</time>
      </trkpt>
      <trkpt lat="46.56359" lon="5.77818">
        <ele>688.79998779297</ele>
        <time>2013-04-28T08:50:51.000Z</time>
      </trkpt>
      <trkpt lat="46.56361" lon="5.7782">
        <ele>688.59997558594</ele>
        <time>2013-04-28T08:50:52.000Z</time>
      </trkpt>
      <trkpt lat="46.56365" lon="5.77828">
        <ele>688.59997558594</ele>
        <time>2013-04-28T08:50:55.000Z</time>
      </trkpt>
      <trkpt lat="46.5637" lon="5.77832">
        <ele>688.20001220703</ele>
        <time>2013-04-28T08:50:57.000Z</time>
      </trkpt>
      <trkpt lat="46.56375" lon="5.77842">
        <ele>688.40002441406</ele>
        <time>2013-04-28T08:51:01.000Z</time>
      </trkpt>
      <trkpt lat="46.56379" lon="5.77853">
        <ele>689.20001220703</ele>
        <time>2013-04-28T08:51:05.000Z</time>
      </trkpt>
      <trkpt lat="46.56387" lon="5.77859">
        <ele>689</ele>
        <time>2013-04-28T08:51:09.000Z</time>
      </trkpt>
      <trkpt lat="46.56395" lon="5.77862">
        <ele>688.20001220703</ele>
        <time>2013-04-28T08:51:13.000Z</time>
      </trkpt>
      <trkpt lat="46.56406" lon="5.77867">
        <ele>687.59997558594</ele>
        <time>2013-04-28T08:51:18.000Z</time>
      </trkpt>
      <trkpt lat="46.56419" lon="5.77871">
        <ele>686.59997558594</ele>
        <time>2013-04-28T08:51:23.000Z</time>
      </trkpt>
      <trkpt lat="46.56422" lon="5.77871">
        <ele>686.59997558594</ele>
        <time>2013-04-28T08:51:24.000Z</time>
      </trkpt>
      <trkpt lat="46.56428" lon="5.77873">
        <ele>686.59997558594</ele>
        <time>2013-04-28T08:51:27.000Z</time>
      </trkpt>
      <trkpt lat="46.5644" lon="5.7788">
        <ele>687.20001220703</ele>
        <time>2013-04-28T08:51:33.000Z</time>
      </trkpt>
      <trkpt lat="46.56443" lon="5.7788">
        <ele>687</ele>
        <time>2013-04-28T08:51:34.000Z</time>
      </trkpt>
      <trkpt lat="46.56447" lon="5.77884">
        <ele>687.40002441406</ele>
        <time>2013-04-28T08:51:37.000Z</time>
      </trkpt>
      <trkpt lat="46.56448" lon="5.77885">
        <ele>687.59997558594</ele>
        <time>2013-04-28T08:51:38.000Z</time>
      </trkpt>
      <trkpt lat="46.56454" lon="5.77889">
        <ele>687.79998779297</ele>
        <time>2013-04-28T08:51:42.000Z</time>
      </trkpt>
      <trkpt lat="46.56455" lon="5.7789">
        <ele>688</ele>
        <time>2013-04-28T08:51:43.000Z</time>
      </trkpt>
      <trkpt lat="46.56459" lon="5.77894">
        <ele>688.59997558594</ele>
        <time>2013-04-28T08:51:47.000Z</time>
      </trkpt>
      <trkpt lat="46.5646" lon="5.77895">
        <ele>688.59997558594</ele>
        <time>2013-04-28T08:51:48.000Z</time>
      </trkpt>
      <trkpt lat="46.56462" lon="5.77896">
        <ele>688.79998779297</ele>
        <time>2013-04-28T08:51:50.000Z</time>
      </trkpt>
      <trkpt lat="46.56463" lon="5.77897">
        <ele>688.79998779297</ele>
        <time>2013-04-28T08:51:51.000Z</time>
      </trkpt>
      <trkpt lat="46.56468" lon="5.77902">
        <ele>689.20001220703</ele>
        <time>2013-04-28T08:51:55.000Z</time>
      </trkpt>
      <trkpt lat="46.56469" lon="5.77902">
        <ele>689.20001220703</ele>
        <time>2013-04-28T08:51:56.000Z</time>
      </trkpt>
      <trkpt lat="46.56477" lon="5.7791">
        <ele>690</ele>
        <time>2013-04-28T08:52:01.000Z</time>
      </trkpt>
      <trkpt lat="46.56484" lon="5.77919">
        <ele>691</ele>
        <time>2013-04-28T08:52:06.000Z</time>
      </trkpt>
      <trkpt lat="46.5649" lon="5.77926">
        <ele>691.20001220703</ele>
        <time>2013-04-28T08:52:09.000Z</time>
      </trkpt>
      <trkpt lat="46.56494" lon="5.77929">
        <ele>691.40002441406</ele>
        <time>2013-04-28T08:52:11.000Z</time>
      </trkpt>
      <trkpt lat="46.56504" lon="5.77935">
        <ele>691.79998779297</ele>
        <time>2013-04-28T08:52:16.000Z</time>
      </trkpt>
      <trkpt lat="46.56508" lon="5.77939">
        <ele>692.20001220703</ele>
        <time>2013-04-28T08:52:17.000Z</time>
      </trkpt>
      <trkpt lat="46.56511" lon="5.77941">
        <ele>692.40002441406</ele>
        <time>2013-04-28T08:52:18.000Z</time>
      </trkpt>
      <trkpt lat="46.56517" lon="5.77946">
        <ele>693</ele>
        <time>2013-04-28T08:52:21.000Z</time>
      </trkpt>
      <trkpt lat="46.56519" lon="5.77948">
        <ele>693.20001220703</ele>
        <time>2013-04-28T08:52:22.000Z</time>
      </trkpt>
      <trkpt lat="46.5652" lon="5.7795">
        <ele>693.40002441406</ele>
        <time>2013-04-28T08:52:23.000Z</time>
      </trkpt>
      <trkpt lat="46.56523" lon="5.77954">
        <ele>693.79998779297</ele>
        <time>2013-04-28T08:52:26.000Z</time>
      </trkpt>
      <trkpt lat="46.56525" lon="5.77956">
        <ele>693.79998779297</ele>
        <time>2013-04-28T08:52:29.000Z</time>
      </trkpt>
      <trkpt lat="46.56525" lon="5.77957">
        <ele>694</ele>
        <time>2013-04-28T08:52:30.000Z</time>
      </trkpt>
      <trkpt lat="46.56527" lon="5.77958">
        <ele>694</ele>
        <time>2013-04-28T08:52:31.000Z</time>
      </trkpt>
      <trkpt lat="46.56528" lon="5.7796">
        <ele>694.20001220703</ele>
        <time>2013-04-28T08:52:32.000Z</time>
      </trkpt>
      <trkpt lat="46.56531" lon="5.77962">
        <ele>694.40002441406</ele>
        <time>2013-04-28T08:52:34.000Z</time>
      </trkpt>
      <trkpt lat="46.5654" lon="5.77971">
        <ele>695</ele>
        <time>2013-04-28T08:52:39.000Z</time>
      </trkpt>
      <trkpt lat="46.56546" lon="5.77979">
        <ele>695.40002441406</ele>
        <time>2013-04-28T08:52:43.000Z</time>
      </trkpt>
      <trkpt lat="46.56552" lon="5.77981">
        <ele>695.59997558594</ele>
        <time>2013-04-28T08:52:46.000Z</time>
      </trkpt>
      <trkpt lat="46.56554" lon="5.77982">
        <ele>695.59997558594</ele>
        <time>2013-04-28T08:52:47.000Z</time>
      </trkpt>
      <trkpt lat="46.56561" lon="5.77983">
        <ele>695.59997558594</ele>
        <time>2013-04-28T08:52:50.000Z</time>
      </trkpt>
      <trkpt lat="46.56573" lon="5.77988">
        <ele>695.59997558594</ele>
        <time>2013-04-28T08:52:55.000Z</time>
      </trkpt>
      <trkpt lat="46.56584" lon="5.77997">
        <ele>695.79998779297</ele>
        <time>2013-04-28T08:53:01.000Z</time>
      </trkpt>
      <trkpt lat="46.56588" lon="5.78001">
        <ele>696</ele>
        <time>2013-04-28T08:53:03.000Z</time>
      </trkpt>
      <trkpt lat="46.56591" lon="5.78006">
        <ele>696.40002441406</ele>
        <time>2013-04-28T08:53:05.000Z</time>
      </trkpt>
      <trkpt lat="46.56594" lon="5.78012">
        <ele>696.79998779297</ele>
        <time>2013-04-28T08:53:07.000Z</time>
      </trkpt>
      <trkpt lat="46.56597" lon="5.78013">
        <ele>697</ele>
        <time>2013-04-28T08:53:08.000Z</time>
      </trkpt>
      <trkpt lat="46.56605" lon="5.78016">
        <ele>697.20001220703</ele>
        <time>2013-04-28T08:53:11.000Z</time>
      </trkpt>
      <trkpt lat="46.56608" lon="5.78017">
        <ele>697.40002441406</ele>
        <time>2013-04-28T08:53:12.000Z</time>
      </trkpt>
      <trkpt lat="46.56615" lon="5.78019">
        <ele>697.59997558594</ele>
        <time>2013-04-28T08:53:15.000Z</time>
      </trkpt>
      <trkpt lat="46.56621" lon="5.78019">
        <ele>697.59997558594</ele>
        <time>2013-04-28T08:53:17.000Z</time>
      </trkpt>
      <trkpt lat="46.56634" lon="5.7802">
        <ele>697.79998779297</ele>
        <time>2013-04-28T08:53:22.000Z</time>
      </trkpt>
      <trkpt lat="46.56647" lon="5.78026">
        <ele>698.40002441406</ele>
        <time>2013-04-28T08:53:26.000Z</time>
      </trkpt>
      <trkpt lat="46.56665" lon="5.78039">
        <ele>699.20001220703</ele>
        <time>2013-04-28T08:53:33.000Z</time>
      </trkpt>
      <trkpt lat="46.5667" lon="5.78044">
        <ele>699.40002441406</ele>
        <time>2013-04-28T08:53:36.000Z</time>
      </trkpt>
      <trkpt lat="46.56674" lon="5.78049">
        <ele>699.59997558594</ele>
        <time>2013-04-28T08:53:38.000Z</time>
      </trkpt>
      <trkpt lat="46.5668" lon="5.78067">
        <ele>700.59997558594</ele>
        <time>2013-04-28T08:53:43.000Z</time>
      </trkpt>
      <trkpt lat="46.5668" lon="5.78079">
        <ele>701.20001220703</ele>
        <time>2013-04-28T08:53:47.000Z</time>
      </trkpt>
      <trkpt lat="46.56681" lon="5.78094">
        <ele>701.59997558594</ele>
        <time>2013-04-28T08:53:53.000Z</time>
      </trkpt>
      <trkpt lat="46.5668" lon="5.78096">
        <ele>701.79998779297</ele>
        <time>2013-04-28T08:53:54.000Z</time>
      </trkpt>
      <trkpt lat="46.5668" lon="5.78103">
        <ele>702</ele>
        <time>2013-04-28T08:53:57.000Z</time>
      </trkpt>
      <trkpt lat="46.56679" lon="5.78114">
        <ele>702.40002441406</ele>
        <time>2013-04-28T08:54:02.000Z</time>
      </trkpt>
      <trkpt lat="46.56684" lon="5.78122">
        <ele>702.40002441406</ele>
        <time>2013-04-28T08:54:07.000Z</time>
      </trkpt>
      <trkpt lat="46.56686" lon="5.78131">
        <ele>702.59997558594</ele>
        <time>2013-04-28T08:54:11.000Z</time>
      </trkpt>
      <trkpt lat="46.56688" lon="5.7814">
        <ele>702.59997558594</ele>
        <time>2013-04-28T08:54:14.000Z</time>
      </trkpt>
      <trkpt lat="46.56688" lon="5.78143">
        <ele>702.79998779297</ele>
        <time>2013-04-28T08:54:15.000Z</time>
      </trkpt>
      <trkpt lat="46.5669" lon="5.78158">
        <ele>703</ele>
        <time>2013-04-28T08:54:20.000Z</time>
      </trkpt>
      <trkpt lat="46.56692" lon="5.78175">
        <ele>704</ele>
        <time>2013-04-28T08:54:25.000Z</time>
      </trkpt>
      <trkpt lat="46.56697" lon="5.78189">
        <ele>705.40002441406</ele>
        <time>2013-04-28T08:54:31.000Z</time>
      </trkpt>
      <trkpt lat="46.56705" lon="5.78201">
        <ele>706.20001220703</ele>
        <time>2013-04-28T08:54:37.000Z</time>
      </trkpt>
      <trkpt lat="46.56713" lon="5.78208">
        <ele>706.40002441406</ele>
        <time>2013-04-28T08:54:42.000Z</time>
      </trkpt>
      <trkpt lat="46.56724" lon="5.78215">
        <ele>706.59997558594</ele>
        <time>2013-04-28T08:54:48.000Z</time>
      </trkpt>
      <trkpt lat="46.56731" lon="5.78221">
        <ele>706.79998779297</ele>
        <time>2013-04-28T08:54:53.000Z</time>
      </trkpt>
      <trkpt lat="46.56732" lon="5.78223">
        <ele>707</ele>
        <time>2013-04-28T08:54:54.000Z</time>
      </trkpt>
      <trkpt lat="46.56733" lon="5.78226">
        <ele>707.20001220703</ele>
        <time>2013-04-28T08:54:56.000Z</time>
      </trkpt>
      <trkpt lat="46.56733" lon="5.78229">
        <ele>707.59997558594</ele>
        <time>2013-04-28T08:54:58.000Z</time>
      </trkpt>
      <trkpt lat="46.56734" lon="5.7823">
        <ele>707.59997558594</ele>
        <time>2013-04-28T08:54:59.000Z</time>
      </trkpt>
      <trkpt lat="46.56739" lon="5.78236">
        <ele>708</ele>
        <time>2013-04-28T08:55:03.000Z</time>
      </trkpt>
      <trkpt lat="46.56742" lon="5.78238">
        <ele>708</ele>
        <time>2013-04-28T08:55:05.000Z</time>
      </trkpt>
      <trkpt lat="46.56746" lon="5.78244">
        <ele>708.40002441406</ele>
        <time>2013-04-28T08:55:09.000Z</time>
      </trkpt>
      <trkpt lat="46.56751" lon="5.7825">
        <ele>709</ele>
        <time>2013-04-28T08:55:14.000Z</time>
      </trkpt>
      <trkpt lat="46.56755" lon="5.78257">
        <ele>710.40002441406</ele>
        <time>2013-04-28T08:55:19.000Z</time>
      </trkpt>
      <trkpt lat="46.56756" lon="5.78259">
        <ele>710.59997558594</ele>
        <time>2013-04-28T08:55:20.000Z</time>
      </trkpt>
      <trkpt lat="46.56766" lon="5.78269">
        <ele>712.79998779297</ele>
        <time>2013-04-28T08:55:27.000Z</time>
      </trkpt>
      <trkpt lat="46.5677" lon="5.78278">
        <ele>714.59997558594</ele>
        <time>2013-04-28T08:55:32.000Z</time>
      </trkpt>
      <trkpt lat="46.56772" lon="5.78279">
        <ele>715</ele>
        <time>2013-04-28T08:55:33.000Z</time>
      </trkpt>
      <trkpt lat="46.56773" lon="5.78281">
        <ele>715.20001220703</ele>
        <time>2013-04-28T08:55:34.000Z</time>
      </trkpt>
      <trkpt lat="46.56778" lon="5.78288">
        <ele>716.79998779297</ele>
        <time>2013-04-28T08:55:40.000Z</time>
      </trkpt>
      <trkpt lat="46.56783" lon="5.78294">
        <ele>718</ele>
        <time>2013-04-28T08:55:45.000Z</time>
      </trkpt>
      <trkpt lat="46.56786" lon="5.78299">
        <ele>718.79998779297</ele>
        <time>2013-04-28T08:55:49.000Z</time>
      </trkpt>
      <trkpt lat="46.56787" lon="5.783">
        <ele>719</ele>
        <time>2013-04-28T08:55:50.000Z</time>
      </trkpt>
      <trkpt lat="46.56789" lon="5.78301">
        <ele>719.40002441406</ele>
        <time>2013-04-28T08:55:52.000Z</time>
      </trkpt>
      <trkpt lat="46.56793" lon="5.78305">
        <ele>720.20001220703</ele>
        <time>2013-04-28T08:55:55.000Z</time>
      </trkpt>
      <trkpt lat="46.56797" lon="5.78312">
        <ele>721.59997558594</ele>
        <time>2013-04-28T08:56:01.000Z</time>
      </trkpt>
      <trkpt lat="46.56801" lon="5.78319">
        <ele>723</ele>
        <time>2013-04-28T08:56:06.000Z</time>
      </trkpt>
      <trkpt lat="46.56804" lon="5.78323">
        <ele>723.79998779297</ele>
        <time>2013-04-28T08:56:09.000Z</time>
      </trkpt>
      <trkpt lat="46.56807" lon="5.78327">
        <ele>724.40002441406</ele>
        <time>2013-04-28T08:56:12.000Z</time>
      </trkpt>
      <trkpt lat="46.56809" lon="5.7833">
        <ele>725</ele>
        <time>2013-04-28T08:56:14.000Z</time>
      </trkpt>
      <trkpt lat="46.56814" lon="5.78333">
        <ele>725.59997558594</ele>
        <time>2013-04-28T08:56:18.000Z</time>
      </trkpt>
      <trkpt lat="46.56816" lon="5.78335">
        <ele>726</ele>
        <time>2013-04-28T08:56:21.000Z</time>
      </trkpt>
      <trkpt lat="46.56818" lon="5.78336">
        <ele>726.40002441406</ele>
        <time>2013-04-28T08:56:23.000Z</time>
      </trkpt>
      <trkpt lat="46.56821" lon="5.78338">
        <ele>726.79998779297</ele>
        <time>2013-04-28T08:56:25.000Z</time>
      </trkpt>
      <trkpt lat="46.56823" lon="5.7834">
        <ele>727.20001220703</ele>
        <time>2013-04-28T08:56:27.000Z</time>
      </trkpt>
      <trkpt lat="46.56826" lon="5.78341">
        <ele>727.59997558594</ele>
        <time>2013-04-28T08:56:29.000Z</time>
      </trkpt>
      <trkpt lat="46.56831" lon="5.78344">
        <ele>728.40002441406</ele>
        <time>2013-04-28T08:56:34.000Z</time>
      </trkpt>
      <trkpt lat="46.56833" lon="5.78345">
        <ele>728.59997558594</ele>
        <time>2013-04-28T08:56:35.000Z</time>
      </trkpt>
      <trkpt lat="46.56834" lon="5.78345">
        <ele>728.79998779297</ele>
        <time>2013-04-28T08:56:36.000Z</time>
      </trkpt>
      <trkpt lat="46.56841" lon="5.78349">
        <ele>729.79998779297</ele>
        <time>2013-04-28T08:56:41.000Z</time>
      </trkpt>
      <trkpt lat="46.56848" lon="5.78356">
        <ele>731.59997558594</ele>
        <time>2013-04-28T08:56:46.000Z</time>
      </trkpt>
      <trkpt lat="46.56853" lon="5.78363">
        <ele>733.20001220703</ele>
        <time>2013-04-28T08:56:51.000Z</time>
      </trkpt>
      <trkpt lat="46.56858" lon="5.78373">
        <ele>735.40002441406</ele>
        <time>2013-04-28T08:56:56.000Z</time>
      </trkpt>
      <trkpt lat="46.56864" lon="5.78381">
        <ele>737.20001220703</ele>
        <time>2013-04-28T08:57:01.000Z</time>
      </trkpt>
      <trkpt lat="46.56867" lon="5.78386">
        <ele>738.20001220703</ele>
        <time>2013-04-28T08:57:05.000Z</time>
      </trkpt>
      <trkpt lat="46.56869" lon="5.78388">
        <ele>738.79998779297</ele>
        <time>2013-04-28T08:57:07.000Z</time>
      </trkpt>
      <trkpt lat="46.56876" lon="5.78396">
        <ele>740.20001220703</ele>
        <time>2013-04-28T08:57:12.000Z</time>
      </trkpt>
      <trkpt lat="46.56881" lon="5.78404">
        <ele>741.59997558594</ele>
        <time>2013-04-28T08:57:17.000Z</time>
      </trkpt>
      <trkpt lat="46.5689" lon="5.78411">
        <ele>742.79998779297</ele>
        <time>2013-04-28T08:57:23.000Z</time>
      </trkpt>
      <trkpt lat="46.56897" lon="5.78422">
        <ele>744</ele>
        <time>2013-04-28T08:57:30.000Z</time>
      </trkpt>
      <trkpt lat="46.56904" lon="5.78434">
        <ele>744.40002441406</ele>
        <time>2013-04-28T08:57:36.000Z</time>
      </trkpt>
      <trkpt lat="46.56905" lon="5.7844">
        <ele>744.59997558594</ele>
        <time>2013-04-28T08:57:39.000Z</time>
      </trkpt>
      <trkpt lat="46.56908" lon="5.78445">
        <ele>744.79998779297</ele>
        <time>2013-04-28T08:57:42.000Z</time>
      </trkpt>
      <trkpt lat="46.56911" lon="5.7845">
        <ele>744.79998779297</ele>
        <time>2013-04-28T08:57:44.000Z</time>
      </trkpt>
      <trkpt lat="46.56916" lon="5.78465">
        <ele>745.20001220703</ele>
        <time>2013-04-28T08:57:49.000Z</time>
      </trkpt>
      <trkpt lat="46.56917" lon="5.78474">
        <ele>745.59997558594</ele>
        <time>2013-04-28T08:57:52.000Z</time>
      </trkpt>
      <trkpt lat="46.56918" lon="5.7849">
        <ele>746.40002441406</ele>
        <time>2013-04-28T08:57:56.000Z</time>
      </trkpt>
      <trkpt lat="46.56917" lon="5.78499">
        <ele>746.79998779297</ele>
        <time>2013-04-28T08:57:59.000Z</time>
      </trkpt>
      <trkpt lat="46.56918" lon="5.78502">
        <ele>747</ele>
        <time>2013-04-28T08:58:00.000Z</time>
      </trkpt>
      <trkpt lat="46.56917" lon="5.78507">
        <ele>747.40002441406</ele>
        <time>2013-04-28T08:58:02.000Z</time>
      </trkpt>
      <trkpt lat="46.56916" lon="5.7852">
        <ele>748.20001220703</ele>
        <time>2013-04-28T08:58:06.000Z</time>
      </trkpt>
      <trkpt lat="46.56915" lon="5.78527">
        <ele>748.59997558594</ele>
        <time>2013-04-28T08:58:08.000Z</time>
      </trkpt>
      <trkpt lat="46.56914" lon="5.78534">
        <ele>749.20001220703</ele>
        <time>2013-04-28T08:58:10.000Z</time>
      </trkpt>
      <trkpt lat="46.56914" lon="5.78538">
        <ele>749.40002441406</ele>
        <time>2013-04-28T08:58:11.000Z</time>
      </trkpt>
      <trkpt lat="46.56915" lon="5.78544">
        <ele>749.79998779297</ele>
        <time>2013-04-28T08:58:13.000Z</time>
      </trkpt>
      <trkpt lat="46.56916" lon="5.7855">
        <ele>750</ele>
        <time>2013-04-28T08:58:15.000Z</time>
      </trkpt>
      <trkpt lat="46.56916" lon="5.78552">
        <ele>750</ele>
        <time>2013-04-28T08:58:16.000Z</time>
      </trkpt>
      <trkpt lat="46.56917" lon="5.7856">
        <ele>750.40002441406</ele>
        <time>2013-04-28T08:58:19.000Z</time>
      </trkpt>
      <trkpt lat="46.56921" lon="5.78569">
        <ele>751.20001220703</ele>
        <time>2013-04-28T08:58:23.000Z</time>
      </trkpt>
      <trkpt lat="46.56924" lon="5.78573">
        <ele>751.79998779297</ele>
        <time>2013-04-28T08:58:25.000Z</time>
      </trkpt>
      <trkpt lat="46.5693" lon="5.78584">
        <ele>753</ele>
        <time>2013-04-28T08:58:28.000Z</time>
      </trkpt>
      <trkpt lat="46.56937" lon="5.78599">
        <ele>754.40002441406</ele>
        <time>2013-04-28T08:58:33.000Z</time>
      </trkpt>
      <trkpt lat="46.56936" lon="5.78605">
        <ele>754.79998779297</ele>
        <time>2013-04-28T08:58:35.000Z</time>
      </trkpt>
      <trkpt lat="46.56937" lon="5.78614">
        <ele>755.40002441406</ele>
        <time>2013-04-28T08:58:37.000Z</time>
      </trkpt>
      <trkpt lat="46.56938" lon="5.78622">
        <ele>756</ele>
        <time>2013-04-28T08:58:41.000Z</time>
      </trkpt>
      <trkpt lat="46.56941" lon="5.78627">
        <ele>756.40002441406</ele>
        <time>2013-04-28T08:58:45.000Z</time>
      </trkpt>
      <trkpt lat="46.56942" lon="5.78628">
        <ele>756.40002441406</ele>
        <time>2013-04-28T08:58:46.000Z</time>
      </trkpt>
      <trkpt lat="46.56942" lon="5.78629">
        <ele>756.59997558594</ele>
        <time>2013-04-28T08:58:48.000Z</time>
      </trkpt>
      <trkpt lat="46.56941" lon="5.78623">
        <ele>756.20001220703</ele>
        <time>2013-04-28T08:59:11.000Z</time>
      </trkpt>
      <trkpt lat="46.56942" lon="5.78621">
        <ele>756</ele>
        <time>2013-04-28T08:59:12.000Z</time>
      </trkpt>
      <trkpt lat="46.56949" lon="5.78608">
        <ele>755.59997558594</ele>
        <time>2013-04-28T08:59:16.000Z</time>
      </trkpt>
      <trkpt lat="46.56956" lon="5.78603">
        <ele>755.79998779297</ele>
        <time>2013-04-28T08:59:19.000Z</time>
      </trkpt>
      <trkpt lat="46.56958" lon="5.78603">
        <ele>755.79998779297</ele>
        <time>2013-04-28T08:59:20.000Z</time>
      </trkpt>
      <trkpt lat="46.56971" lon="5.78601">
        <ele>756.40002441406</ele>
        <time>2013-04-28T08:59:25.000Z</time>
      </trkpt>
      <trkpt lat="46.56976" lon="5.78598">
        <ele>756.59997558594</ele>
        <time>2013-04-28T08:59:28.000Z</time>
      </trkpt>
      <trkpt lat="46.56978" lon="5.78596">
        <ele>756.79998779297</ele>
        <time>2013-04-28T08:59:29.000Z</time>
      </trkpt>
      <trkpt lat="46.56985" lon="5.78594">
        <ele>757</ele>
        <time>2013-04-28T08:59:32.000Z</time>
      </trkpt>
      <trkpt lat="46.5699" lon="5.78598">
        <ele>757.40002441406</ele>
        <time>2013-04-28T08:59:34.000Z</time>
      </trkpt>
      <trkpt lat="46.56995" lon="5.78599">
        <ele>757.79998779297</ele>
        <time>2013-04-28T08:59:36.000Z</time>
      </trkpt>
      <trkpt lat="46.56997" lon="5.78601">
        <ele>758</ele>
        <time>2013-04-28T08:59:37.000Z</time>
      </trkpt>
      <trkpt lat="46.57002" lon="5.78603">
        <ele>758</ele>
        <time>2013-04-28T08:59:39.000Z</time>
      </trkpt>
      <trkpt lat="46.57007" lon="5.78606">
        <ele>757.79998779297</ele>
        <time>2013-04-28T08:59:41.000Z</time>
      </trkpt>
      <trkpt lat="46.57015" lon="5.7861">
        <ele>757.20001220703</ele>
        <time>2013-04-28T08:59:44.000Z</time>
      </trkpt>
      <trkpt lat="46.5703" lon="5.78615">
        <ele>756.20001220703</ele>
        <time>2013-04-28T08:59:49.000Z</time>
      </trkpt>
      <trkpt lat="46.57041" lon="5.78616">
        <ele>755.40002441406</ele>
        <time>2013-04-28T08:59:53.000Z</time>
      </trkpt>
      <trkpt lat="46.57058" lon="5.78615">
        <ele>754.20001220703</ele>
        <time>2013-04-28T08:59:59.000Z</time>
      </trkpt>
      <trkpt lat="46.57067" lon="5.78612">
        <ele>753.79998779297</ele>
        <time>2013-04-28T09:00:03.000Z</time>
      </trkpt>
      <trkpt lat="46.57076" lon="5.7861">
        <ele>753.40002441406</ele>
        <time>2013-04-28T09:00:07.000Z</time>
      </trkpt>
      <trkpt lat="46.57087" lon="5.78605">
        <ele>752.20001220703</ele>
        <time>2013-04-28T09:00:11.000Z</time>
      </trkpt>
      <trkpt lat="46.57102" lon="5.78603">
        <ele>748.20001220703</ele>
        <time>2013-04-28T09:00:16.000Z</time>
      </trkpt>
      <trkpt lat="46.57112" lon="5.78603">
        <ele>745</ele>
        <time>2013-04-28T09:00:19.000Z</time>
      </trkpt>
      <trkpt lat="46.57118" lon="5.78603">
        <ele>743</ele>
        <time>2013-04-28T09:00:21.000Z</time>
      </trkpt>
      <trkpt lat="46.5713" lon="5.78598">
        <ele>740.79998779297</ele>
        <time>2013-04-28T09:00:26.000Z</time>
      </trkpt>
      <trkpt lat="46.57139" lon="5.78591">
        <ele>740</ele>
        <time>2013-04-28T09:00:30.000Z</time>
      </trkpt>
      <trkpt lat="46.57143" lon="5.78585">
        <ele>740.40002441406</ele>
        <time>2013-04-28T09:00:33.000Z</time>
      </trkpt>
      <trkpt lat="46.57148" lon="5.78579">
        <ele>739.59997558594</ele>
        <time>2013-04-28T09:00:35.000Z</time>
      </trkpt>
      <trkpt lat="46.5715" lon="5.78577">
        <ele>739</ele>
        <time>2013-04-28T09:00:36.000Z</time>
      </trkpt>
      <trkpt lat="46.5716" lon="5.7857">
        <ele>736.79998779297</ele>
        <time>2013-04-28T09:00:40.000Z</time>
      </trkpt>
      <trkpt lat="46.57162" lon="5.78568">
        <ele>736.20001220703</ele>
        <time>2013-04-28T09:00:41.000Z</time>
      </trkpt>
      <trkpt lat="46.57165" lon="5.78565">
        <ele>735.79998779297</ele>
        <time>2013-04-28T09:00:42.000Z</time>
      </trkpt>
      <trkpt lat="46.57169" lon="5.78557">
        <ele>734.20001220703</ele>
        <time>2013-04-28T09:00:45.000Z</time>
      </trkpt>
      <trkpt lat="46.57175" lon="5.78546">
        <ele>731.79998779297</ele>
        <time>2013-04-28T09:00:49.000Z</time>
      </trkpt>
      <trkpt lat="46.57178" lon="5.7854">
        <ele>730.79998779297</ele>
        <time>2013-04-28T09:00:52.000Z</time>
      </trkpt>
      <trkpt lat="46.5718" lon="5.78538">
        <ele>729.59997558594</ele>
        <time>2013-04-28T09:00:54.000Z</time>
      </trkpt>
      <trkpt lat="46.57192" lon="5.78538">
        <ele>724</ele>
        <time>2013-04-28T09:00:59.000Z</time>
      </trkpt>
      <trkpt lat="46.572" lon="5.78533">
        <ele>721.40002441406</ele>
        <time>2013-04-28T09:01:03.000Z</time>
      </trkpt>
      <trkpt lat="46.57207" lon="5.78524">
        <ele>720</ele>
        <time>2013-04-28T09:01:07.000Z</time>
      </trkpt>
      <trkpt lat="46.57212" lon="5.7852">
        <ele>718.40002441406</ele>
        <time>2013-04-28T09:01:11.000Z</time>
      </trkpt>
      <trkpt lat="46.57219" lon="5.78509">
        <ele>718.40002441406</ele>
        <time>2013-04-28T09:01:17.000Z</time>
      </trkpt>
      <trkpt lat="46.57225" lon="5.78505">
        <ele>717.59997558594</ele>
        <time>2013-04-28T09:01:20.000Z</time>
      </trkpt>
      <trkpt lat="46.57234" lon="5.78493">
        <ele>715.59997558594</ele>
        <time>2013-04-28T09:01:25.000Z</time>
      </trkpt>
      <trkpt lat="46.57242" lon="5.78481">
        <ele>712.79998779297</ele>
        <time>2013-04-28T09:01:30.000Z</time>
      </trkpt>
      <trkpt lat="46.5725" lon="5.78474">
        <ele>710.40002441406</ele>
        <time>2013-04-28T09:01:34.000Z</time>
      </trkpt>
      <trkpt lat="46.57259" lon="5.78466">
        <ele>705</ele>
        <time>2013-04-28T09:01:40.000Z</time>
      </trkpt>
      <trkpt lat="46.57262" lon="5.78459">
        <ele>703.59997558594</ele>
        <time>2013-04-28T09:01:43.000Z</time>
      </trkpt>
      <trkpt lat="46.57265" lon="5.78452">
        <ele>702.40002441406</ele>
        <time>2013-04-28T09:01:47.000Z</time>
      </trkpt>
      <trkpt lat="46.57272" lon="5.78444">
        <ele>699.40002441406</ele>
        <time>2013-04-28T09:01:51.000Z</time>
      </trkpt>
      <trkpt lat="46.57277" lon="5.78442">
        <ele>696.79998779297</ele>
        <time>2013-04-28T09:01:53.000Z</time>
      </trkpt>
      <trkpt lat="46.57285" lon="5.78431">
        <ele>694.59997558594</ele>
        <time>2013-04-28T09:01:57.000Z</time>
      </trkpt>
      <trkpt lat="46.5729" lon="5.78421">
        <ele>693.59997558594</ele>
        <time>2013-04-28T09:02:00.000Z</time>
      </trkpt>
      <trkpt lat="46.57292" lon="5.78419">
        <ele>693.40002441406</ele>
        <time>2013-04-28T09:02:01.000Z</time>
      </trkpt>
      <trkpt lat="46.57297" lon="5.7841">
        <ele>692</ele>
        <time>2013-04-28T09:02:04.000Z</time>
      </trkpt>
      <trkpt lat="46.573" lon="5.78403">
        <ele>691.40002441406</ele>
        <time>2013-04-28T09:02:06.000Z</time>
      </trkpt>
      <trkpt lat="46.573" lon="5.78399">
        <ele>691.40002441406</ele>
        <time>2013-04-28T09:02:07.000Z</time>
      </trkpt>
      <trkpt lat="46.57304" lon="5.78386">
        <ele>690.79998779297</ele>
        <time>2013-04-28T09:02:11.000Z</time>
      </trkpt>
      <trkpt lat="46.57308" lon="5.78374">
        <ele>690.40002441406</ele>
        <time>2013-04-28T09:02:14.000Z</time>
      </trkpt>
      <trkpt lat="46.57315" lon="5.78363">
        <ele>689.79998779297</ele>
        <time>2013-04-28T09:02:18.000Z</time>
      </trkpt>
      <trkpt lat="46.57319" lon="5.78357">
        <ele>689.40002441406</ele>
        <time>2013-04-28T09:02:20.000Z</time>
      </trkpt>
      <trkpt lat="46.57324" lon="5.7835">
        <ele>689.20001220703</ele>
        <time>2013-04-28T09:02:23.000Z</time>
      </trkpt>
      <trkpt lat="46.57332" lon="5.78341">
        <ele>689</ele>
        <time>2013-04-28T09:02:27.000Z</time>
      </trkpt>
      <trkpt lat="46.57338" lon="5.78332">
        <ele>687.20001220703</ele>
        <time>2013-04-28T09:02:30.000Z</time>
      </trkpt>
      <trkpt lat="46.5734" lon="5.7833">
        <ele>685.40002441406</ele>
        <time>2013-04-28T09:02:31.000Z</time>
      </trkpt>
      <trkpt lat="46.5735" lon="5.78312">
        <ele>679.40002441406</ele>
        <time>2013-04-28T09:02:37.000Z</time>
      </trkpt>
      <trkpt lat="46.57351" lon="5.78311">
        <ele>678.79998779297</ele>
        <time>2013-04-28T09:02:38.000Z</time>
      </trkpt>
      <trkpt lat="46.57354" lon="5.78307">
        <ele>677</ele>
        <time>2013-04-28T09:02:40.000Z</time>
      </trkpt>
      <trkpt lat="46.57355" lon="5.78305">
        <ele>676.59997558594</ele>
        <time>2013-04-28T09:02:41.000Z</time>
      </trkpt>
      <trkpt lat="46.57358" lon="5.7829">
        <ele>675.59997558594</ele>
        <time>2013-04-28T09:02:45.000Z</time>
      </trkpt>
      <trkpt lat="46.57361" lon="5.78277">
        <ele>674.40002441406</ele>
        <time>2013-04-28T09:02:49.000Z</time>
      </trkpt>
      <trkpt lat="46.57366" lon="5.78266">
        <ele>673</ele>
        <time>2013-04-28T09:02:53.000Z</time>
      </trkpt>
      <trkpt lat="46.57366" lon="5.78263">
        <ele>673.20001220703</ele>
        <time>2013-04-28T09:02:54.000Z</time>
      </trkpt>
      <trkpt lat="46.57363" lon="5.78257">
        <ele>674.59997558594</ele>
        <time>2013-04-28T09:02:58.000Z</time>
      </trkpt>
      <trkpt lat="46.57358" lon="5.7825">
        <ele>676</ele>
        <time>2013-04-28T09:03:02.000Z</time>
      </trkpt>
      <trkpt lat="46.57356" lon="5.78248">
        <ele>676.40002441406</ele>
        <time>2013-04-28T09:03:03.000Z</time>
      </trkpt>
      <trkpt lat="46.57355" lon="5.78245">
        <ele>676.79998779297</ele>
        <time>2013-04-28T09:03:05.000Z</time>
      </trkpt>
      <trkpt lat="46.57356" lon="5.78242">
        <ele>676.40002441406</ele>
        <time>2013-04-28T09:03:06.000Z</time>
      </trkpt>
      <trkpt lat="46.57355" lon="5.78231">
        <ele>676</ele>
        <time>2013-04-28T09:03:09.000Z</time>
      </trkpt>
      <trkpt lat="46.57355" lon="5.78227">
        <ele>675.79998779297</ele>
        <time>2013-04-28T09:03:10.000Z</time>
      </trkpt>
      <trkpt lat="46.57356" lon="5.78223">
        <ele>675.59997558594</ele>
        <time>2013-04-28T09:03:11.000Z</time>
      </trkpt>
      <trkpt lat="46.57357" lon="5.78211">
        <ele>674.59997558594</ele>
        <time>2013-04-28T09:03:14.000Z</time>
      </trkpt>
      <trkpt lat="46.57358" lon="5.78208">
        <ele>674.40002441406</ele>
        <time>2013-04-28T09:03:15.000Z</time>
      </trkpt>
      <trkpt lat="46.57367" lon="5.78194">
        <ele>672</ele>
        <time>2013-04-28T09:03:20.000Z</time>
      </trkpt>
      <trkpt lat="46.57375" lon="5.7818">
        <ele>670.20001220703</ele>
        <time>2013-04-28T09:03:26.000Z</time>
      </trkpt>
      <trkpt lat="46.57378" lon="5.7817">
        <ele>669.40002441406</ele>
        <time>2013-04-28T09:03:29.000Z</time>
      </trkpt>
      <trkpt lat="46.57378" lon="5.78157">
        <ele>669</ele>
        <time>2013-04-28T09:03:33.000Z</time>
      </trkpt>
      <trkpt lat="46.57377" lon="5.78155">
        <ele>669</ele>
        <time>2013-04-28T09:03:34.000Z</time>
      </trkpt>
      <trkpt lat="46.57376" lon="5.7815">
        <ele>669</ele>
        <time>2013-04-28T09:03:36.000Z</time>
      </trkpt>
      <trkpt lat="46.57375" lon="5.78143">
        <ele>669</ele>
        <time>2013-04-28T09:03:38.000Z</time>
      </trkpt>
      <trkpt lat="46.57375" lon="5.78128">
        <ele>668.40002441406</ele>
        <time>2013-04-28T09:03:42.000Z</time>
      </trkpt>
      <trkpt lat="46.57375" lon="5.78127">
        <ele>668.59997558594</ele>
        <time>2013-04-28T09:03:44.000Z</time>
      </trkpt>
      <trkpt lat="46.57376" lon="5.78122">
        <ele>668.20001220703</ele>
        <time>2013-04-28T09:03:45.000Z</time>
      </trkpt>
      <trkpt lat="46.57379" lon="5.7811">
        <ele>667.20001220703</ele>
        <time>2013-04-28T09:03:49.000Z</time>
      </trkpt>
      <trkpt lat="46.57382" lon="5.78104">
        <ele>666.59997558594</ele>
        <time>2013-04-28T09:03:51.000Z</time>
      </trkpt>
      <trkpt lat="46.57387" lon="5.78097">
        <ele>665.40002441406</ele>
        <time>2013-04-28T09:03:54.000Z</time>
      </trkpt>
      <trkpt lat="46.57388" lon="5.78096">
        <ele>665.20001220703</ele>
        <time>2013-04-28T09:03:55.000Z</time>
      </trkpt>
      <trkpt lat="46.57393" lon="5.7809">
        <ele>664</ele>
        <time>2013-04-28T09:03:58.000Z</time>
      </trkpt>
      <trkpt lat="46.57399" lon="5.78084">
        <ele>663</ele>
        <time>2013-04-28T09:04:02.000Z</time>
      </trkpt>
      <trkpt lat="46.57404" lon="5.78079">
        <ele>661.79998779297</ele>
        <time>2013-04-28T09:04:06.000Z</time>
      </trkpt>
      <trkpt lat="46.57405" lon="5.78077">
        <ele>661.59997558594</ele>
        <time>2013-04-28T09:04:07.000Z</time>
      </trkpt>
      <trkpt lat="46.57409" lon="5.7807">
        <ele>660.79998779297</ele>
        <time>2013-04-28T09:04:11.000Z</time>
      </trkpt>
      <trkpt lat="46.5741" lon="5.78065">
        <ele>660.59997558594</ele>
        <time>2013-04-28T09:04:13.000Z</time>
      </trkpt>
      <trkpt lat="46.57411" lon="5.78056">
        <ele>660.20001220703</ele>
        <time>2013-04-28T09:04:16.000Z</time>
      </trkpt>
      <trkpt lat="46.5741" lon="5.78049">
        <ele>660.20001220703</ele>
        <time>2013-04-28T09:04:18.000Z</time>
      </trkpt>
      <trkpt lat="46.5741" lon="5.78039">
        <ele>660</ele>
        <time>2013-04-28T09:04:21.000Z</time>
      </trkpt>
      <trkpt lat="46.57409" lon="5.78023">
        <ele>659.79998779297</ele>
        <time>2013-04-28T09:04:25.000Z</time>
      </trkpt>
      <trkpt lat="46.57408" lon="5.78019">
        <ele>659.79998779297</ele>
        <time>2013-04-28T09:04:26.000Z</time>
      </trkpt>
      <trkpt lat="46.57406" lon="5.78013">
        <ele>660</ele>
        <time>2013-04-28T09:04:28.000Z</time>
      </trkpt>
      <trkpt lat="46.57403" lon="5.78002">
        <ele>660.20001220703</ele>
        <time>2013-04-28T09:04:32.000Z</time>
      </trkpt>
      <trkpt lat="46.57402" lon="5.77994">
        <ele>660.40002441406</ele>
        <time>2013-04-28T09:04:37.000Z</time>
      </trkpt>
      <trkpt lat="46.57401" lon="5.77993">
        <ele>660.59997558594</ele>
        <time>2013-04-28T09:04:40.000Z</time>
      </trkpt>
      <trkpt lat="46.57399" lon="5.77997">
        <ele>661</ele>
        <time>2013-04-28T09:04:44.000Z</time>
      </trkpt>
      <trkpt lat="46.57398" lon="5.78">
        <ele>661</ele>
        <time>2013-04-28T09:04:45.000Z</time>
      </trkpt>
      <trkpt lat="46.57404" lon="5.78001">
        <ele>660.20001220703</ele>
        <time>2013-04-28T09:04:48.000Z</time>
      </trkpt>
      <trkpt lat="46.5741" lon="5.77999">
        <ele>659</ele>
        <time>2013-04-28T09:04:51.000Z</time>
      </trkpt>
      <trkpt lat="46.57416" lon="5.77993">
        <ele>657.79998779297</ele>
        <time>2013-04-28T09:04:55.000Z</time>
      </trkpt>
      <trkpt lat="46.5742" lon="5.77985">
        <ele>656.20001220703</ele>
        <time>2013-04-28T09:04:58.000Z</time>
      </trkpt>
      <trkpt lat="46.57426" lon="5.77975">
        <ele>653.79998779297</ele>
        <time>2013-04-28T09:05:03.000Z</time>
      </trkpt>
      <trkpt lat="46.57427" lon="5.77971">
        <ele>653.20001220703</ele>
        <time>2013-04-28T09:05:04.000Z</time>
      </trkpt>
      <trkpt lat="46.57432" lon="5.77962">
        <ele>650.79998779297</ele>
        <time>2013-04-28T09:05:07.000Z</time>
      </trkpt>
      <trkpt lat="46.57442" lon="5.77951">
        <ele>646.79998779297</ele>
        <time>2013-04-28T09:05:12.000Z</time>
      </trkpt>
      <trkpt lat="46.57448" lon="5.77943">
        <ele>644.59997558594</ele>
        <time>2013-04-28T09:05:15.000Z</time>
      </trkpt>
      <trkpt lat="46.5745" lon="5.77941">
        <ele>644</ele>
        <time>2013-04-28T09:05:16.000Z</time>
      </trkpt>
      <trkpt lat="46.5746" lon="5.77933">
        <ele>640.20001220703</ele>
        <time>2013-04-28T09:05:21.000Z</time>
      </trkpt>
      <trkpt lat="46.57472" lon="5.77924">
        <ele>636</ele>
        <time>2013-04-28T09:05:27.000Z</time>
      </trkpt>
      <trkpt lat="46.57481" lon="5.77913">
        <ele>632.79998779297</ele>
        <time>2013-04-28T09:05:32.000Z</time>
      </trkpt>
      <trkpt lat="46.57484" lon="5.77902">
        <ele>632</ele>
        <time>2013-04-28T09:05:37.000Z</time>
      </trkpt>
      <trkpt lat="46.57479" lon="5.77897">
        <ele>634</ele>
        <time>2013-04-28T09:05:42.000Z</time>
      </trkpt>
      <trkpt lat="46.57471" lon="5.77895">
        <ele>636.79998779297</ele>
        <time>2013-04-28T09:05:47.000Z</time>
      </trkpt>
      <trkpt lat="46.57467" lon="5.77893">
        <ele>638.40002441406</ele>
        <time>2013-04-28T09:05:50.000Z</time>
      </trkpt>
      <trkpt lat="46.57459" lon="5.77893">
        <ele>641</ele>
        <time>2013-04-28T09:05:54.000Z</time>
      </trkpt>
      <trkpt lat="46.57458" lon="5.77893">
        <ele>641.40002441406</ele>
        <time>2013-04-28T09:05:55.000Z</time>
      </trkpt>
      <trkpt lat="46.57457" lon="5.77892">
        <ele>641.59997558594</ele>
        <time>2013-04-28T09:05:56.000Z</time>
      </trkpt>
      <trkpt lat="46.57455" lon="5.77888">
        <ele>642.79998779297</ele>
        <time>2013-04-28T09:05:58.000Z</time>
      </trkpt>
      <trkpt lat="46.57452" lon="5.77884">
        <ele>643.59997558594</ele>
        <time>2013-04-28T09:06:01.000Z</time>
      </trkpt>
      <trkpt lat="46.57451" lon="5.77879">
        <ele>644</ele>
        <time>2013-04-28T09:06:03.000Z</time>
      </trkpt>
      <trkpt lat="46.57452" lon="5.77873">
        <ele>643.79998779297</ele>
        <time>2013-04-28T09:06:05.000Z</time>
      </trkpt>
      <trkpt lat="46.57453" lon="5.77867">
        <ele>643.79998779297</ele>
        <time>2013-04-28T09:06:07.000Z</time>
      </trkpt>
      <trkpt lat="46.57457" lon="5.77852">
        <ele>642.59997558594</ele>
        <time>2013-04-28T09:06:13.000Z</time>
      </trkpt>
      <trkpt lat="46.57457" lon="5.77845">
        <ele>642.40002441406</ele>
        <time>2013-04-28T09:06:16.000Z</time>
      </trkpt>
      <trkpt lat="46.57457" lon="5.77839">
        <ele>642.79998779297</ele>
        <time>2013-04-28T09:06:18.000Z</time>
      </trkpt>
      <trkpt lat="46.57455" lon="5.77828">
        <ele>643.59997558594</ele>
        <time>2013-04-28T09:06:21.000Z</time>
      </trkpt>
      <trkpt lat="46.57455" lon="5.7782">
        <ele>643.79998779297</ele>
        <time>2013-04-28T09:06:24.000Z</time>
      </trkpt>
      <trkpt lat="46.57454" lon="5.77806">
        <ele>644.79998779297</ele>
        <time>2013-04-28T09:06:29.000Z</time>
      </trkpt>
      <trkpt lat="46.57451" lon="5.77795">
        <ele>645.79998779297</ele>
        <time>2013-04-28T09:06:33.000Z</time>
      </trkpt>
      <trkpt lat="46.57448" lon="5.77786">
        <ele>647.20001220703</ele>
        <time>2013-04-28T09:06:37.000Z</time>
      </trkpt>
      <trkpt lat="46.57446" lon="5.77781">
        <ele>648</ele>
        <time>2013-04-28T09:06:39.000Z</time>
      </trkpt>
      <trkpt lat="46.57446" lon="5.7777">
        <ele>648.20001220703</ele>
        <time>2013-04-28T09:06:43.000Z</time>
      </trkpt>
      <trkpt lat="46.57447" lon="5.77759">
        <ele>648.40002441406</ele>
        <time>2013-04-28T09:06:48.000Z</time>
      </trkpt>
      <trkpt lat="46.57448" lon="5.77748">
        <ele>648.20001220703</ele>
        <time>2013-04-28T09:06:53.000Z</time>
      </trkpt>
      <trkpt lat="46.57448" lon="5.77737">
        <ele>648.20001220703</ele>
        <time>2013-04-28T09:06:57.000Z</time>
      </trkpt>
      <trkpt lat="46.57451" lon="5.77729">
        <ele>647.20001220703</ele>
        <time>2013-04-28T09:07:01.000Z</time>
      </trkpt>
      <trkpt lat="46.57457" lon="5.77725">
        <ele>645.20001220703</ele>
        <time>2013-04-28T09:07:04.000Z</time>
      </trkpt>
      <trkpt lat="46.57459" lon="5.77723">
        <ele>644.20001220703</ele>
        <time>2013-04-28T09:07:05.000Z</time>
      </trkpt>
      <trkpt lat="46.57467" lon="5.77715">
        <ele>641.40002441406</ele>
        <time>2013-04-28T09:07:10.000Z</time>
      </trkpt>
      <trkpt lat="46.57469" lon="5.77712">
        <ele>640.59997558594</ele>
        <time>2013-04-28T09:07:11.000Z</time>
      </trkpt>
      <trkpt lat="46.57472" lon="5.77709">
        <ele>639.59997558594</ele>
        <time>2013-04-28T09:07:13.000Z</time>
      </trkpt>
      <trkpt lat="46.57473" lon="5.7771">
        <ele>639.40002441406</ele>
        <time>2013-04-28T09:07:14.000Z</time>
      </trkpt>
      <trkpt lat="46.57476" lon="5.77704">
        <ele>637.79998779297</ele>
        <time>2013-04-28T09:07:17.000Z</time>
      </trkpt>
      <trkpt lat="46.5748" lon="5.77697">
        <ele>636.20001220703</ele>
        <time>2013-04-28T09:07:21.000Z</time>
      </trkpt>
      <trkpt lat="46.57483" lon="5.77689">
        <ele>635</ele>
        <time>2013-04-28T09:07:25.000Z</time>
      </trkpt>
      <trkpt lat="46.57482" lon="5.77683">
        <ele>635.20001220703</ele>
        <time>2013-04-28T09:07:29.000Z</time>
      </trkpt>
      <trkpt lat="46.57476" lon="5.77678">
        <ele>637.40002441406</ele>
        <time>2013-04-28T09:07:33.000Z</time>
      </trkpt>
      <trkpt lat="46.5747" lon="5.77669">
        <ele>639.40002441406</ele>
        <time>2013-04-28T09:07:38.000Z</time>
      </trkpt>
      <trkpt lat="46.57468" lon="5.77657">
        <ele>639.59997558594</ele>
        <time>2013-04-28T09:07:42.000Z</time>
      </trkpt>
      <trkpt lat="46.57466" lon="5.77648">
        <ele>639.59997558594</ele>
        <time>2013-04-28T09:07:45.000Z</time>
      </trkpt>
      <trkpt lat="46.57466" lon="5.77636">
        <ele>638.59997558594</ele>
        <time>2013-04-28T09:07:49.000Z</time>
      </trkpt>
      <trkpt lat="46.57467" lon="5.77628">
        <ele>637.40002441406</ele>
        <time>2013-04-28T09:07:52.000Z</time>
      </trkpt>
      <trkpt lat="46.57465" lon="5.77621">
        <ele>638</ele>
        <time>2013-04-28T09:07:54.000Z</time>
      </trkpt>
      <trkpt lat="46.57462" lon="5.77613">
        <ele>638.59997558594</ele>
        <time>2013-04-28T09:07:58.000Z</time>
      </trkpt>
      <trkpt lat="46.57464" lon="5.77607">
        <ele>637.40002441406</ele>
        <time>2013-04-28T09:08:01.000Z</time>
      </trkpt>
      <trkpt lat="46.57463" lon="5.77604">
        <ele>637.40002441406</ele>
        <time>2013-04-28T09:08:03.000Z</time>
      </trkpt>
      <trkpt lat="46.57463" lon="5.77599">
        <ele>637.20001220703</ele>
        <time>2013-04-28T09:08:05.000Z</time>
      </trkpt>
      <trkpt lat="46.57462" lon="5.77596">
        <ele>637.59997558594</ele>
        <time>2013-04-28T09:08:07.000Z</time>
      </trkpt>
      <trkpt lat="46.5746" lon="5.77591">
        <ele>638.20001220703</ele>
        <time>2013-04-28T09:08:10.000Z</time>
      </trkpt>
      <trkpt lat="46.5746" lon="5.77589">
        <ele>638.20001220703</ele>
        <time>2013-04-28T09:08:11.000Z</time>
      </trkpt>
      <trkpt lat="46.57458" lon="5.7758">
        <ele>638.20001220703</ele>
        <time>2013-04-28T09:08:15.000Z</time>
      </trkpt>
      <trkpt lat="46.57457" lon="5.77563">
        <ele>637.40002441406</ele>
        <time>2013-04-28T09:08:21.000Z</time>
      </trkpt>
      <trkpt lat="46.57457" lon="5.77559">
        <ele>637.20001220703</ele>
        <time>2013-04-28T09:08:22.000Z</time>
      </trkpt>
      <trkpt lat="46.57457" lon="5.77552">
        <ele>636.40002441406</ele>
        <time>2013-04-28T09:08:25.000Z</time>
      </trkpt>
      <trkpt lat="46.57459" lon="5.77542">
        <ele>635</ele>
        <time>2013-04-28T09:08:29.000Z</time>
      </trkpt>
      <trkpt lat="46.57454" lon="5.77529">
        <ele>636.20001220703</ele>
        <time>2013-04-28T09:08:33.000Z</time>
      </trkpt>
      <trkpt lat="46.57452" lon="5.77515">
        <ele>636.40002441406</ele>
        <time>2013-04-28T09:08:37.000Z</time>
      </trkpt>
      <trkpt lat="46.57451" lon="5.77499">
        <ele>635.59997558594</ele>
        <time>2013-04-28T09:08:42.000Z</time>
      </trkpt>
      <trkpt lat="46.57454" lon="5.77484">
        <ele>632.79998779297</ele>
        <time>2013-04-28T09:08:47.000Z</time>
      </trkpt>
      <trkpt lat="46.57455" lon="5.77473">
        <ele>631.59997558594</ele>
        <time>2013-04-28T09:08:50.000Z</time>
      </trkpt>
      <trkpt lat="46.57456" lon="5.77462">
        <ele>630.40002441406</ele>
        <time>2013-04-28T09:08:54.000Z</time>
      </trkpt>
      <trkpt lat="46.57455" lon="5.77459">
        <ele>630.20001220703</ele>
        <time>2013-04-28T09:08:56.000Z</time>
      </trkpt>
      <trkpt lat="46.57455" lon="5.77452">
        <ele>630</ele>
        <time>2013-04-28T09:08:59.000Z</time>
      </trkpt>
      <trkpt lat="46.57456" lon="5.77449">
        <ele>629.40002441406</ele>
        <time>2013-04-28T09:09:01.000Z</time>
      </trkpt>
      <trkpt lat="46.57456" lon="5.77446">
        <ele>629</ele>
        <time>2013-04-28T09:09:03.000Z</time>
      </trkpt>
      <trkpt lat="46.57457" lon="5.77444">
        <ele>628.40002441406</ele>
        <time>2013-04-28T09:09:06.000Z</time>
      </trkpt>
      <trkpt lat="46.57457" lon="5.77441">
        <ele>628</ele>
        <time>2013-04-28T09:09:07.000Z</time>
      </trkpt>
      <trkpt lat="46.57456" lon="5.77427">
        <ele>627.40002441406</ele>
        <time>2013-04-28T09:09:12.000Z</time>
      </trkpt>
      <trkpt lat="46.57456" lon="5.77425">
        <ele>627.20001220703</ele>
        <time>2013-04-28T09:09:13.000Z</time>
      </trkpt>
      <trkpt lat="46.57458" lon="5.77418">
        <ele>625.79998779297</ele>
        <time>2013-04-28T09:09:16.000Z</time>
      </trkpt>
      <trkpt lat="46.57461" lon="5.77407">
        <ele>623.40002441406</ele>
        <time>2013-04-28T09:09:21.000Z</time>
      </trkpt>
      <trkpt lat="46.57462" lon="5.77405">
        <ele>622.79998779297</ele>
        <time>2013-04-28T09:09:22.000Z</time>
      </trkpt>
      <trkpt lat="46.57462" lon="5.77401">
        <ele>622.79998779297</ele>
        <time>2013-04-28T09:09:24.000Z</time>
      </trkpt>
      <trkpt lat="46.57463" lon="5.77397">
        <ele>622.40002441406</ele>
        <time>2013-04-28T09:09:26.000Z</time>
      </trkpt>
      <trkpt lat="46.57464" lon="5.77383">
        <ele>621.20001220703</ele>
        <time>2013-04-28T09:09:31.000Z</time>
      </trkpt>
      <trkpt lat="46.57467" lon="5.77377">
        <ele>619.20001220703</ele>
        <time>2013-04-28T09:09:33.000Z</time>
      </trkpt>
      <trkpt lat="46.57469" lon="5.77371">
        <ele>618.20001220703</ele>
        <time>2013-04-28T09:09:35.000Z</time>
      </trkpt>
      <trkpt lat="46.5747" lon="5.77359">
        <ele>617.20001220703</ele>
        <time>2013-04-28T09:09:38.000Z</time>
      </trkpt>
      <trkpt lat="46.57474" lon="5.7734">
        <ele>614.40002441406</ele>
        <time>2013-04-28T09:09:43.000Z</time>
      </trkpt>
      <trkpt lat="46.57474" lon="5.77337">
        <ele>614.59997558594</ele>
        <time>2013-04-28T09:09:44.000Z</time>
      </trkpt>
      <trkpt lat="46.57474" lon="5.77328">
        <ele>613.79998779297</ele>
        <time>2013-04-28T09:09:47.000Z</time>
      </trkpt>
      <trkpt lat="46.57474" lon="5.7732">
        <ele>612.79998779297</ele>
        <time>2013-04-28T09:09:49.000Z</time>
      </trkpt>
      <trkpt lat="46.57476" lon="5.77308">
        <ele>610.59997558594</ele>
        <time>2013-04-28T09:09:52.000Z</time>
      </trkpt>
      <trkpt lat="46.57477" lon="5.77304">
        <ele>609.40002441406</ele>
        <time>2013-04-28T09:09:53.000Z</time>
      </trkpt>
      <trkpt lat="46.57479" lon="5.77298">
        <ele>608.40002441406</ele>
        <time>2013-04-28T09:09:55.000Z</time>
      </trkpt>
      <trkpt lat="46.57475" lon="5.77288">
        <ele>609</ele>
        <time>2013-04-28T09:09:58.000Z</time>
      </trkpt>
      <trkpt lat="46.57474" lon="5.77284">
        <ele>608.79998779297</ele>
        <time>2013-04-28T09:09:59.000Z</time>
      </trkpt>
      <trkpt lat="46.57472" lon="5.77271">
        <ele>608.40002441406</ele>
        <time>2013-04-28T09:10:03.000Z</time>
      </trkpt>
      <trkpt lat="46.57471" lon="5.77256">
        <ele>607</ele>
        <time>2013-04-28T09:10:07.000Z</time>
      </trkpt>
      <trkpt lat="46.57471" lon="5.77252">
        <ele>606.79998779297</ele>
        <time>2013-04-28T09:10:08.000Z</time>
      </trkpt>
      <trkpt lat="46.57468" lon="5.77239">
        <ele>606.59997558594</ele>
        <time>2013-04-28T09:10:12.000Z</time>
      </trkpt>
      <trkpt lat="46.57466" lon="5.7723">
        <ele>607.20001220703</ele>
        <time>2013-04-28T09:10:14.000Z</time>
      </trkpt>
      <trkpt lat="46.57464" lon="5.77226">
        <ele>607.40002441406</ele>
        <time>2013-04-28T09:10:15.000Z</time>
      </trkpt>
      <trkpt lat="46.57461" lon="5.77211">
        <ele>607.40002441406</ele>
        <time>2013-04-28T09:10:19.000Z</time>
      </trkpt>
      <trkpt lat="46.57458" lon="5.77188">
        <ele>606.79998779297</ele>
        <time>2013-04-28T09:10:24.000Z</time>
      </trkpt>
      <trkpt lat="46.57453" lon="5.77167">
        <ele>607.40002441406</ele>
        <time>2013-04-28T09:10:29.000Z</time>
      </trkpt>
      <trkpt lat="46.57453" lon="5.77151">
        <ele>606.40002441406</ele>
        <time>2013-04-28T09:10:33.000Z</time>
      </trkpt>
      <trkpt lat="46.57451" lon="5.77148">
        <ele>606.79998779297</ele>
        <time>2013-04-28T09:10:34.000Z</time>
      </trkpt>
      <trkpt lat="46.57449" lon="5.7714">
        <ele>607</ele>
        <time>2013-04-28T09:10:36.000Z</time>
      </trkpt>
      <trkpt lat="46.57446" lon="5.77119">
        <ele>606.79998779297</ele>
        <time>2013-04-28T09:10:41.000Z</time>
      </trkpt>
      <trkpt lat="46.57445" lon="5.77115">
        <ele>606.79998779297</ele>
        <time>2013-04-28T09:10:42.000Z</time>
      </trkpt>
      <trkpt lat="46.57443" lon="5.77103">
        <ele>606.79998779297</ele>
        <time>2013-04-28T09:10:45.000Z</time>
      </trkpt>
      <trkpt lat="46.57443" lon="5.77099">
        <ele>606.40002441406</ele>
        <time>2013-04-28T09:10:46.000Z</time>
      </trkpt>
      <trkpt lat="46.57442" lon="5.77078">
        <ele>605</ele>
        <time>2013-04-28T09:10:51.000Z</time>
      </trkpt>
      <trkpt lat="46.57442" lon="5.77061">
        <ele>604</ele>
        <time>2013-04-28T09:10:55.000Z</time>
      </trkpt>
      <trkpt lat="46.57441" lon="5.77051">
        <ele>603.79998779297</ele>
        <time>2013-04-28T09:10:58.000Z</time>
      </trkpt>
      <trkpt lat="46.57441" lon="5.77048">
        <ele>603.40002441406</ele>
        <time>2013-04-28T09:10:59.000Z</time>
      </trkpt>
      <trkpt lat="46.57436" lon="5.77032">
        <ele>604.20001220703</ele>
        <time>2013-04-28T09:11:04.000Z</time>
      </trkpt>
      <trkpt lat="46.57431" lon="5.77017">
        <ele>605.20001220703</ele>
        <time>2013-04-28T09:11:08.000Z</time>
      </trkpt>
      <trkpt lat="46.57431" lon="5.77013">
        <ele>605</ele>
        <time>2013-04-28T09:11:09.000Z</time>
      </trkpt>
      <trkpt lat="46.57426" lon="5.76995">
        <ele>605.40002441406</ele>
        <time>2013-04-28T09:11:14.000Z</time>
      </trkpt>
      <trkpt lat="46.5742" lon="5.76984">
        <ele>606.40002441406</ele>
        <time>2013-04-28T09:11:18.000Z</time>
      </trkpt>
      <trkpt lat="46.57416" lon="5.76972">
        <ele>606.40002441406</ele>
        <time>2013-04-28T09:11:21.000Z</time>
      </trkpt>
      <trkpt lat="46.57414" lon="5.76966">
        <ele>605.79998779297</ele>
        <time>2013-04-28T09:11:23.000Z</time>
      </trkpt>
      <trkpt lat="46.57413" lon="5.76962">
        <ele>605.59997558594</ele>
        <time>2013-04-28T09:11:24.000Z</time>
      </trkpt>
      <trkpt lat="46.57404" lon="5.76947">
        <ele>605.79998779297</ele>
        <time>2013-04-28T09:11:29.000Z</time>
      </trkpt>
      <trkpt lat="46.57395" lon="5.76931">
        <ele>606</ele>
        <time>2013-04-28T09:11:35.000Z</time>
      </trkpt>
      <trkpt lat="46.57388" lon="5.76926">
        <ele>607</ele>
        <time>2013-04-28T09:11:39.000Z</time>
      </trkpt>
      <trkpt lat="46.57385" lon="5.76926">
        <ele>607.59997558594</ele>
        <time>2013-04-28T09:11:40.000Z</time>
      </trkpt>
      <trkpt lat="46.57376" lon="5.76924">
        <ele>609.59997558594</ele>
        <time>2013-04-28T09:11:44.000Z</time>
      </trkpt>
      <trkpt lat="46.57371" lon="5.76923">
        <ele>610.59997558594</ele>
        <time>2013-04-28T09:11:46.000Z</time>
      </trkpt>
      <trkpt lat="46.5736" lon="5.76919">
        <ele>612.79998779297</ele>
        <time>2013-04-28T09:11:51.000Z</time>
      </trkpt>
      <trkpt lat="46.57354" lon="5.76915">
        <ele>614</ele>
        <time>2013-04-28T09:11:54.000Z</time>
      </trkpt>
      <trkpt lat="46.57351" lon="5.76911">
        <ele>615</ele>
        <time>2013-04-28T09:11:56.000Z</time>
      </trkpt>
      <trkpt lat="46.57349" lon="5.76897">
        <ele>616</ele>
        <time>2013-04-28T09:12:00.000Z</time>
      </trkpt>
      <trkpt lat="46.57349" lon="5.76888">
        <ele>616.59997558594</ele>
        <time>2013-04-28T09:12:03.000Z</time>
      </trkpt>
      <trkpt lat="46.57351" lon="5.76879">
        <ele>616.40002441406</ele>
        <time>2013-04-28T09:12:07.000Z</time>
      </trkpt>
      <trkpt lat="46.57352" lon="5.76874">
        <ele>616.20001220703</ele>
        <time>2013-04-28T09:12:09.000Z</time>
      </trkpt>
      <trkpt lat="46.57353" lon="5.76867">
        <ele>616</ele>
        <time>2013-04-28T09:12:12.000Z</time>
      </trkpt>
      <trkpt lat="46.57356" lon="5.76854">
        <ele>615.59997558594</ele>
        <time>2013-04-28T09:12:16.000Z</time>
      </trkpt>
      <trkpt lat="46.57357" lon="5.76849">
        <ele>615.59997558594</ele>
        <time>2013-04-28T09:12:18.000Z</time>
      </trkpt>
      <trkpt lat="46.57357" lon="5.76841">
        <ele>615.79998779297</ele>
        <time>2013-04-28T09:12:20.000Z</time>
      </trkpt>
      <trkpt lat="46.57358" lon="5.76823">
        <ele>617.20001220703</ele>
        <time>2013-04-28T09:12:26.000Z</time>
      </trkpt>
      <trkpt lat="46.57359" lon="5.76815">
        <ele>617.40002441406</ele>
        <time>2013-04-28T09:12:29.000Z</time>
      </trkpt>
      <trkpt lat="46.5736" lon="5.76809">
        <ele>617.59997558594</ele>
        <time>2013-04-28T09:12:31.000Z</time>
      </trkpt>
      <trkpt lat="46.57361" lon="5.76795">
        <ele>619</ele>
        <time>2013-04-28T09:12:36.000Z</time>
      </trkpt>
      <trkpt lat="46.5736" lon="5.76793">
        <ele>619.40002441406</ele>
        <time>2013-04-28T09:12:37.000Z</time>
      </trkpt>
      <trkpt lat="46.57361" lon="5.7679">
        <ele>619.40002441406</ele>
        <time>2013-04-28T09:12:38.000Z</time>
      </trkpt>
      <trkpt lat="46.57361" lon="5.76784">
        <ele>620</ele>
        <time>2013-04-28T09:12:41.000Z</time>
      </trkpt>
      <trkpt lat="46.5736" lon="5.76776">
        <ele>621.40002441406</ele>
        <time>2013-04-28T09:12:45.000Z</time>
      </trkpt>
      <trkpt lat="46.57361" lon="5.7677">
        <ele>621.79998779297</ele>
        <time>2013-04-28T09:12:48.000Z</time>
      </trkpt>
      <trkpt lat="46.57361" lon="5.76766">
        <ele>622</ele>
        <time>2013-04-28T09:12:50.000Z</time>
      </trkpt>
      <trkpt lat="46.57362" lon="5.76757">
        <ele>623</ele>
        <time>2013-04-28T09:12:55.000Z</time>
      </trkpt>
      <trkpt lat="46.57361" lon="5.76755">
        <ele>623.40002441406</ele>
        <time>2013-04-28T09:12:57.000Z</time>
      </trkpt>
      <trkpt lat="46.5736" lon="5.76753">
        <ele>623.79998779297</ele>
        <time>2013-04-28T09:12:58.000Z</time>
      </trkpt>
      <trkpt lat="46.5736" lon="5.76751">
        <ele>624.40002441406</ele>
        <time>2013-04-28T09:12:59.000Z</time>
      </trkpt>
      <trkpt lat="46.57357" lon="5.76743">
        <ele>626</ele>
        <time>2013-04-28T09:13:05.000Z</time>
      </trkpt>
      <trkpt lat="46.57357" lon="5.76742">
        <ele>626.20001220703</ele>
        <time>2013-04-28T09:13:06.000Z</time>
      </trkpt>
      <trkpt lat="46.57354" lon="5.76738">
        <ele>627.40002441406</ele>
        <time>2013-04-28T09:13:09.000Z</time>
      </trkpt>
      <trkpt lat="46.57354" lon="5.76735">
        <ele>627.59997558594</ele>
        <time>2013-04-28T09:13:11.000Z</time>
      </trkpt>
      <trkpt lat="46.57354" lon="5.7673">
        <ele>628</ele>
        <time>2013-04-28T09:13:14.000Z</time>
      </trkpt>
      <trkpt lat="46.57353" lon="5.76727">
        <ele>628.40002441406</ele>
        <time>2013-04-28T09:13:18.000Z</time>
      </trkpt>
      <trkpt lat="46.57353" lon="5.76726">
        <ele>628.59997558594</ele>
        <time>2013-04-28T09:13:19.000Z</time>
      </trkpt>
      <trkpt lat="46.57352" lon="5.76724">
        <ele>629</ele>
        <time>2013-04-28T09:13:21.000Z</time>
      </trkpt>
      <trkpt lat="46.57351" lon="5.76721">
        <ele>629.79998779297</ele>
        <time>2013-04-28T09:13:24.000Z</time>
      </trkpt>
      <trkpt lat="46.57349" lon="5.76718">
        <ele>630.59997558594</ele>
        <time>2013-04-28T09:13:29.000Z</time>
      </trkpt>
      <trkpt lat="46.57346" lon="5.76716">
        <ele>631.79998779297</ele>
        <time>2013-04-28T09:13:33.000Z</time>
      </trkpt>
      <trkpt lat="46.57344" lon="5.76711">
        <ele>633</ele>
        <time>2013-04-28T09:13:37.000Z</time>
      </trkpt>
      <trkpt lat="46.57341" lon="5.76705">
        <ele>634.40002441406</ele>
        <time>2013-04-28T09:13:43.000Z</time>
      </trkpt>
      <trkpt lat="46.5734" lon="5.76704">
        <ele>634.59997558594</ele>
        <time>2013-04-28T09:13:44.000Z</time>
      </trkpt>
      <trkpt lat="46.57337" lon="5.767">
        <ele>636.20001220703</ele>
        <time>2013-04-28T09:13:50.000Z</time>
      </trkpt>
      <trkpt lat="46.57335" lon="5.76697">
        <ele>637.20001220703</ele>
        <time>2013-04-28T09:13:53.000Z</time>
      </trkpt>
      <trkpt lat="46.57333" lon="5.76696">
        <ele>637.79998779297</ele>
        <time>2013-04-28T09:13:55.000Z</time>
      </trkpt>
      <trkpt lat="46.57328" lon="5.76696">
        <ele>637.79998779297</ele>
        <time>2013-04-28T09:14:00.000Z</time>
      </trkpt>
      <trkpt lat="46.57327" lon="5.76696">
        <ele>637.59997558594</ele>
        <time>2013-04-28T09:14:01.000Z</time>
      </trkpt>
      <trkpt lat="46.57323" lon="5.76698">
        <ele>637.59997558594</ele>
        <time>2013-04-28T09:14:04.000Z</time>
      </trkpt>
      <trkpt lat="46.57323" lon="5.76698">
        <ele>637.59997558594</ele>
        <time>2013-04-28T09:14:05.000Z</time>
      </trkpt>
      <trkpt lat="46.57322" lon="5.76699">
        <ele>637.59997558594</ele>
        <time>2013-04-28T09:14:06.000Z</time>
      </trkpt>
      <trkpt lat="46.57319" lon="5.76699">
        <ele>637.40002441406</ele>
        <time>2013-04-28T09:14:09.000Z</time>
      </trkpt>
      <trkpt lat="46.57314" lon="5.76697">
        <ele>637.40002441406</ele>
        <time>2013-04-28T09:14:13.000Z</time>
      </trkpt>
      <trkpt lat="46.57312" lon="5.76697">
        <ele>637.40002441406</ele>
        <time>2013-04-28T09:14:14.000Z</time>
      </trkpt>
      <trkpt lat="46.57308" lon="5.76695">
        <ele>637.20001220703</ele>
        <time>2013-04-28T09:14:17.000Z</time>
      </trkpt>
      <trkpt lat="46.57306" lon="5.76694">
        <ele>637.20001220703</ele>
        <time>2013-04-28T09:14:18.000Z</time>
      </trkpt>
      <trkpt lat="46.57302" lon="5.76689">
        <ele>637.20001220703</ele>
        <time>2013-04-28T09:14:23.000Z</time>
      </trkpt>
      <trkpt lat="46.57301" lon="5.76688">
        <ele>637.20001220703</ele>
        <time>2013-04-28T09:14:24.000Z</time>
      </trkpt>
      <trkpt lat="46.57296" lon="5.76686">
        <ele>637.20001220703</ele>
        <time>2013-04-28T09:14:27.000Z</time>
      </trkpt>
      <trkpt lat="46.57293" lon="5.76686">
        <ele>637</ele>
        <time>2013-04-28T09:14:29.000Z</time>
      </trkpt>
      <trkpt lat="46.5729" lon="5.76685">
        <ele>637</ele>
        <time>2013-04-28T09:14:31.000Z</time>
      </trkpt>
      <trkpt lat="46.57288" lon="5.76684">
        <ele>637</ele>
        <time>2013-04-28T09:14:33.000Z</time>
      </trkpt>
      <trkpt lat="46.57285" lon="5.76683">
        <ele>637</ele>
        <time>2013-04-28T09:14:36.000Z</time>
      </trkpt>
      <trkpt lat="46.57284" lon="5.76682">
        <ele>637</ele>
        <time>2013-04-28T09:14:37.000Z</time>
      </trkpt>
      <trkpt lat="46.57279" lon="5.76674">
        <ele>636.79998779297</ele>
        <time>2013-04-28T09:14:42.000Z</time>
      </trkpt>
      <trkpt lat="46.57278" lon="5.76673">
        <ele>636.79998779297</ele>
        <time>2013-04-28T09:14:43.000Z</time>
      </trkpt>
      <trkpt lat="46.57276" lon="5.76669">
        <ele>636.79998779297</ele>
        <time>2013-04-28T09:14:46.000Z</time>
      </trkpt>
      <trkpt lat="46.5727" lon="5.76663">
        <ele>636.40002441406</ele>
        <time>2013-04-28T09:14:50.000Z</time>
      </trkpt>
      <trkpt lat="46.57269" lon="5.76662">
        <ele>636.40002441406</ele>
        <time>2013-04-28T09:14:51.000Z</time>
      </trkpt>
      <trkpt lat="46.57265" lon="5.76654">
        <ele>635.79998779297</ele>
        <time>2013-04-28T09:14:55.000Z</time>
      </trkpt>
      <trkpt lat="46.57265" lon="5.76642">
        <ele>635.20001220703</ele>
        <time>2013-04-28T09:14:59.000Z</time>
      </trkpt>
      <trkpt lat="46.5726" lon="5.76625">
        <ele>634.20001220703</ele>
        <time>2013-04-28T09:15:05.000Z</time>
      </trkpt>
      <trkpt lat="46.57257" lon="5.76616">
        <ele>633.59997558594</ele>
        <time>2013-04-28T09:15:08.000Z</time>
      </trkpt>
      <trkpt lat="46.57251" lon="5.76612">
        <ele>633.40002441406</ele>
        <time>2013-04-28T09:15:10.000Z</time>
      </trkpt>
      <trkpt lat="46.57246" lon="5.76609">
        <ele>633</ele>
        <time>2013-04-28T09:15:12.000Z</time>
      </trkpt>
      <trkpt lat="46.57243" lon="5.76605">
        <ele>632.79998779297</ele>
        <time>2013-04-28T09:15:14.000Z</time>
      </trkpt>
      <trkpt lat="46.57238" lon="5.76602">
        <ele>632.59997558594</ele>
        <time>2013-04-28T09:15:17.000Z</time>
      </trkpt>
      <trkpt lat="46.57236" lon="5.766">
        <ele>632.40002441406</ele>
        <time>2013-04-28T09:15:19.000Z</time>
      </trkpt>
      <trkpt lat="46.57231" lon="5.76594">
        <ele>632</ele>
        <time>2013-04-28T09:15:24.000Z</time>
      </trkpt>
      <trkpt lat="46.5723" lon="5.76593">
        <ele>632</ele>
        <time>2013-04-28T09:15:25.000Z</time>
      </trkpt>
      <trkpt lat="46.57228" lon="5.7659">
        <ele>631.79998779297</ele>
        <time>2013-04-28T09:15:27.000Z</time>
      </trkpt>
      <trkpt lat="46.57224" lon="5.76584">
        <ele>631.59997558594</ele>
        <time>2013-04-28T09:15:31.000Z</time>
      </trkpt>
      <trkpt lat="46.57219" lon="5.76576">
        <ele>631</ele>
        <time>2013-04-28T09:15:37.000Z</time>
      </trkpt>
      <trkpt lat="46.57218" lon="5.76574">
        <ele>630.79998779297</ele>
        <time>2013-04-28T09:15:38.000Z</time>
      </trkpt>
      <trkpt lat="46.57207" lon="5.76564">
        <ele>630</ele>
        <time>2013-04-28T09:15:43.000Z</time>
      </trkpt>
      <trkpt lat="46.57204" lon="5.76562">
        <ele>629.79998779297</ele>
        <time>2013-04-28T09:15:44.000Z</time>
      </trkpt>
      <trkpt lat="46.57196" lon="5.76551">
        <ele>628.79998779297</ele>
        <time>2013-04-28T09:15:48.000Z</time>
      </trkpt>
      <trkpt lat="46.57195" lon="5.76547">
        <ele>628.40002441406</ele>
        <time>2013-04-28T09:15:49.000Z</time>
      </trkpt>
      <trkpt lat="46.57189" lon="5.76525">
        <ele>626.79998779297</ele>
        <time>2013-04-28T09:15:54.000Z</time>
      </trkpt>
      <trkpt lat="46.57184" lon="5.76501">
        <ele>625</ele>
        <time>2013-04-28T09:15:59.000Z</time>
      </trkpt>
      <trkpt lat="46.5718" lon="5.76473">
        <ele>623.79998779297</ele>
        <time>2013-04-28T09:16:06.000Z</time>
      </trkpt>
      <trkpt lat="46.57176" lon="5.7645">
        <ele>623</ele>
        <time>2013-04-28T09:16:11.000Z</time>
      </trkpt>
      <trkpt lat="46.57174" lon="5.76425">
        <ele>622</ele>
        <time>2013-04-28T09:16:17.000Z</time>
      </trkpt>
      <trkpt lat="46.57171" lon="5.76401">
        <ele>620.79998779297</ele>
        <time>2013-04-28T09:16:23.000Z</time>
      </trkpt>
      <trkpt lat="46.57167" lon="5.76378">
        <ele>619.59997558594</ele>
        <time>2013-04-28T09:16:29.000Z</time>
      </trkpt>
      <trkpt lat="46.57157" lon="5.76359">
        <ele>618.40002441406</ele>
        <time>2013-04-28T09:16:35.000Z</time>
      </trkpt>
      <trkpt lat="46.57151" lon="5.76339">
        <ele>617.20001220703</ele>
        <time>2013-04-28T09:16:41.000Z</time>
      </trkpt>
      <trkpt lat="46.57149" lon="5.76316">
        <ele>615.59997558594</ele>
        <time>2013-04-28T09:16:47.000Z</time>
      </trkpt>
      <trkpt lat="46.5715" lon="5.76293">
        <ele>613.79998779297</ele>
        <time>2013-04-28T09:16:53.000Z</time>
      </trkpt>
      <trkpt lat="46.57151" lon="5.76274">
        <ele>612.40002441406</ele>
        <time>2013-04-28T09:16:58.000Z</time>
      </trkpt>
      <trkpt lat="46.57149" lon="5.76244">
        <ele>610.40002441406</ele>
        <time>2013-04-28T09:17:05.000Z</time>
      </trkpt>
      <trkpt lat="46.57149" lon="5.76214">
        <ele>609</ele>
        <time>2013-04-28T09:17:12.000Z</time>
      </trkpt>
      <trkpt lat="46.57147" lon="5.76194">
        <ele>608.20001220703</ele>
        <time>2013-04-28T09:17:17.000Z</time>
      </trkpt>
      <trkpt lat="46.57136" lon="5.76175">
        <ele>607.79998779297</ele>
        <time>2013-04-28T09:17:23.000Z</time>
      </trkpt>
      <trkpt lat="46.57125" lon="5.76161">
        <ele>607.59997558594</ele>
        <time>2013-04-28T09:17:28.000Z</time>
      </trkpt>
      <trkpt lat="46.5711" lon="5.76148">
        <ele>607.59997558594</ele>
        <time>2013-04-28T09:17:34.000Z</time>
      </trkpt>
      <trkpt lat="46.57094" lon="5.76132">
        <ele>607</ele>
        <time>2013-04-28T09:17:41.000Z</time>
      </trkpt>
      <trkpt lat="46.57077" lon="5.76118">
        <ele>606.40002441406</ele>
        <time>2013-04-28T09:17:48.000Z</time>
      </trkpt>
      <trkpt lat="46.57064" lon="5.76103">
        <ele>605</ele>
        <time>2013-04-28T09:17:54.000Z</time>
      </trkpt>
      <trkpt lat="46.5705" lon="5.76085">
        <ele>603.59997558594</ele>
        <time>2013-04-28T09:18:01.000Z</time>
      </trkpt>
      <trkpt lat="46.57048" lon="5.76083">
        <ele>603.40002441406</ele>
        <time>2013-04-28T09:18:02.000Z</time>
      </trkpt>
      <trkpt lat="46.57032" lon="5.76068">
        <ele>602.59997558594</ele>
        <time>2013-04-28T09:18:09.000Z</time>
      </trkpt>
      <trkpt lat="46.57015" lon="5.76057">
        <ele>601.79998779297</ele>
        <time>2013-04-28T09:18:16.000Z</time>
      </trkpt>
      <trkpt lat="46.56999" lon="5.7605">
        <ele>601.20001220703</ele>
        <time>2013-04-28T09:18:22.000Z</time>
      </trkpt>
      <trkpt lat="46.56997" lon="5.76048">
        <ele>601</ele>
        <time>2013-04-28T09:18:23.000Z</time>
      </trkpt>
      <trkpt lat="46.56993" lon="5.76036">
        <ele>600.20001220703</ele>
        <time>2013-04-28T09:18:26.000Z</time>
      </trkpt>
      <trkpt lat="46.56993" lon="5.76028">
        <ele>599.59997558594</ele>
        <time>2013-04-28T09:18:28.000Z</time>
      </trkpt>
      <trkpt lat="46.56991" lon="5.76013">
        <ele>598.79998779297</ele>
        <time>2013-04-28T09:18:32.000Z</time>
      </trkpt>
      <trkpt lat="46.56988" lon="5.75991">
        <ele>597.59997558594</ele>
        <time>2013-04-28T09:18:38.000Z</time>
      </trkpt>
      <trkpt lat="46.5699" lon="5.75965">
        <ele>597.40002441406</ele>
        <time>2013-04-28T09:18:45.000Z</time>
      </trkpt>
      <trkpt lat="46.5699" lon="5.75936">
        <ele>596.79998779297</ele>
        <time>2013-04-28T09:18:53.000Z</time>
      </trkpt>
      <trkpt lat="46.56987" lon="5.7591">
        <ele>595.40002441406</ele>
        <time>2013-04-28T09:19:00.000Z</time>
      </trkpt>
      <trkpt lat="46.56986" lon="5.75906">
        <ele>595.20001220703</ele>
        <time>2013-04-28T09:19:01.000Z</time>
      </trkpt>
      <trkpt lat="46.56981" lon="5.75879">
        <ele>592.59997558594</ele>
        <time>2013-04-28T09:19:08.000Z</time>
      </trkpt>
      <trkpt lat="46.56984" lon="5.75856">
        <ele>591.40002441406</ele>
        <time>2013-04-28T09:19:14.000Z</time>
      </trkpt>
      <trkpt lat="46.5699" lon="5.75843">
        <ele>591.20001220703</ele>
        <time>2013-04-28T09:19:18.000Z</time>
      </trkpt>
      <trkpt lat="46.56993" lon="5.75842">
        <ele>591.59997558594</ele>
        <time>2013-04-28T09:19:19.000Z</time>
      </trkpt>
      <trkpt lat="46.57006" lon="5.75842">
        <ele>591.79998779297</ele>
        <time>2013-04-28T09:19:24.000Z</time>
      </trkpt>
      <trkpt lat="46.57021" lon="5.75855">
        <ele>591.20001220703</ele>
        <time>2013-04-28T09:19:30.000Z</time>
      </trkpt>
      <trkpt lat="46.57026" lon="5.75869">
        <ele>592</ele>
        <time>2013-04-28T09:19:34.000Z</time>
      </trkpt>
      <trkpt lat="46.57032" lon="5.75885">
        <ele>593</ele>
        <time>2013-04-28T09:19:39.000Z</time>
      </trkpt>
      <trkpt lat="46.57043" lon="5.7589">
        <ele>592.59997558594</ele>
        <time>2013-04-28T09:19:44.000Z</time>
      </trkpt>
      <trkpt lat="46.57056" lon="5.75882">
        <ele>590.79998779297</ele>
        <time>2013-04-28T09:19:49.000Z</time>
      </trkpt>
      <trkpt lat="46.57059" lon="5.75875">
        <ele>589.59997558594</ele>
        <time>2013-04-28T09:19:51.000Z</time>
      </trkpt>
      <trkpt lat="46.57059" lon="5.75866">
        <ele>588.59997558594</ele>
        <time>2013-04-28T09:19:53.000Z</time>
      </trkpt>
      <trkpt lat="46.57058" lon="5.75858">
        <ele>587.79998779297</ele>
        <time>2013-04-28T09:19:55.000Z</time>
      </trkpt>
      <trkpt lat="46.57057" lon="5.75846">
        <ele>586.40002441406</ele>
        <time>2013-04-28T09:19:58.000Z</time>
      </trkpt>
      <trkpt lat="46.57064" lon="5.75826">
        <ele>583.40002441406</ele>
        <time>2013-04-28T09:20:03.000Z</time>
      </trkpt>
      <trkpt lat="46.57076" lon="5.75802">
        <ele>579.59997558594</ele>
        <time>2013-04-28T09:20:09.000Z</time>
      </trkpt>
      <trkpt lat="46.57075" lon="5.75777">
        <ele>577</ele>
        <time>2013-04-28T09:20:14.000Z</time>
      </trkpt>
      <trkpt lat="46.57069" lon="5.75751">
        <ele>574.40002441406</ele>
        <time>2013-04-28T09:20:20.000Z</time>
      </trkpt>
      <trkpt lat="46.57068" lon="5.75747">
        <ele>574.20001220703</ele>
        <time>2013-04-28T09:20:21.000Z</time>
      </trkpt>
      <trkpt lat="46.57061" lon="5.75721">
        <ele>572</ele>
        <time>2013-04-28T09:20:27.000Z</time>
      </trkpt>
      <trkpt lat="46.5706" lon="5.75717">
        <ele>571.59997558594</ele>
        <time>2013-04-28T09:20:28.000Z</time>
      </trkpt>
      <trkpt lat="46.57056" lon="5.75694">
        <ele>569.59997558594</ele>
        <time>2013-04-28T09:20:33.000Z</time>
      </trkpt>
      <trkpt lat="46.57066" lon="5.75681">
        <ele>568.20001220703</ele>
        <time>2013-04-28T09:20:37.000Z</time>
      </trkpt>
      <trkpt lat="46.5708" lon="5.7566">
        <ele>566.40002441406</ele>
        <time>2013-04-28T09:20:43.000Z</time>
      </trkpt>
      <trkpt lat="46.57091" lon="5.75641">
        <ele>564</ele>
        <time>2013-04-28T09:20:48.000Z</time>
      </trkpt>
      <trkpt lat="46.57103" lon="5.75625">
        <ele>561.79998779297</ele>
        <time>2013-04-28T09:20:53.000Z</time>
      </trkpt>
      <trkpt lat="46.57116" lon="5.75613">
        <ele>560.20001220703</ele>
        <time>2013-04-28T09:20:58.000Z</time>
      </trkpt>
      <trkpt lat="46.57125" lon="5.75609">
        <ele>559.20001220703</ele>
        <time>2013-04-28T09:21:01.000Z</time>
      </trkpt>
      <trkpt lat="46.57134" lon="5.75605">
        <ele>558.40002441406</ele>
        <time>2013-04-28T09:21:04.000Z</time>
      </trkpt>
      <trkpt lat="46.57148" lon="5.75591">
        <ele>557</ele>
        <time>2013-04-28T09:21:09.000Z</time>
      </trkpt>
      <trkpt lat="46.57161" lon="5.75571">
        <ele>555.79998779297</ele>
        <time>2013-04-28T09:21:14.000Z</time>
      </trkpt>
      <trkpt lat="46.57165" lon="5.75565">
        <ele>555.40002441406</ele>
        <time>2013-04-28T09:21:16.000Z</time>
      </trkpt>
      <trkpt lat="46.57173" lon="5.75544">
        <ele>554.40002441406</ele>
        <time>2013-04-28T09:21:21.000Z</time>
      </trkpt>
      <trkpt lat="46.57178" lon="5.75524">
        <ele>553.59997558594</ele>
        <time>2013-04-28T09:21:26.000Z</time>
      </trkpt>
      <trkpt lat="46.5718" lon="5.7552">
        <ele>553.40002441406</ele>
        <time>2013-04-28T09:21:27.000Z</time>
      </trkpt>
      <trkpt lat="46.57185" lon="5.75499">
        <ele>552.59997558594</ele>
        <time>2013-04-28T09:21:32.000Z</time>
      </trkpt>
      <trkpt lat="46.57191" lon="5.75478">
        <ele>551</ele>
        <time>2013-04-28T09:21:37.000Z</time>
      </trkpt>
      <trkpt lat="46.57203" lon="5.75462">
        <ele>549.59997558594</ele>
        <time>2013-04-28T09:21:42.000Z</time>
      </trkpt>
      <trkpt lat="46.57215" lon="5.7544">
        <ele>548.20001220703</ele>
        <time>2013-04-28T09:21:48.000Z</time>
      </trkpt>
      <trkpt lat="46.57223" lon="5.75423">
        <ele>547</ele>
        <time>2013-04-28T09:21:53.000Z</time>
      </trkpt>
      <trkpt lat="46.57222" lon="5.75417">
        <ele>546.59997558594</ele>
        <time>2013-04-28T09:21:54.000Z</time>
      </trkpt>
      <trkpt lat="46.57222" lon="5.75403">
        <ele>545.20001220703</ele>
        <time>2013-04-28T09:21:58.000Z</time>
      </trkpt>
      <trkpt lat="46.57226" lon="5.75389">
        <ele>544</ele>
        <time>2013-04-28T09:22:05.000Z</time>
      </trkpt>
      <trkpt lat="46.57227" lon="5.75375">
        <ele>542.59997558594</ele>
        <time>2013-04-28T09:22:10.000Z</time>
      </trkpt>
      <trkpt lat="46.5722" lon="5.75359">
        <ele>541</ele>
        <time>2013-04-28T09:22:15.000Z</time>
      </trkpt>
      <trkpt lat="46.57212" lon="5.75337">
        <ele>538.40002441406</ele>
        <time>2013-04-28T09:22:21.000Z</time>
      </trkpt>
      <trkpt lat="46.57202" lon="5.75313">
        <ele>536</ele>
        <time>2013-04-28T09:22:27.000Z</time>
      </trkpt>
      <trkpt lat="46.57195" lon="5.75295">
        <ele>534.40002441406</ele>
        <time>2013-04-28T09:22:32.000Z</time>
      </trkpt>
      <trkpt lat="46.57183" lon="5.75271">
        <ele>531.79998779297</ele>
        <time>2013-04-28T09:22:38.000Z</time>
      </trkpt>
      <trkpt lat="46.57172" lon="5.75254">
        <ele>529.59997558594</ele>
        <time>2013-04-28T09:22:43.000Z</time>
      </trkpt>
      <trkpt lat="46.5716" lon="5.7525">
        <ele>528.59997558594</ele>
        <time>2013-04-28T09:22:47.000Z</time>
      </trkpt>
      <trkpt lat="46.57145" lon="5.75247">
        <ele>528</ele>
        <time>2013-04-28T09:22:52.000Z</time>
      </trkpt>
      <trkpt lat="46.57132" lon="5.75244">
        <ele>527.59997558594</ele>
        <time>2013-04-28T09:22:57.000Z</time>
      </trkpt>
      <trkpt lat="46.5713" lon="5.75242">
        <ele>527.40002441406</ele>
        <time>2013-04-28T09:22:58.000Z</time>
      </trkpt>
      <trkpt lat="46.57121" lon="5.7524">
        <ele>527</ele>
        <time>2013-04-28T09:23:01.000Z</time>
      </trkpt>
      <trkpt lat="46.57118" lon="5.7524">
        <ele>527</ele>
        <time>2013-04-28T09:23:02.000Z</time>
      </trkpt>
      <trkpt lat="46.57107" lon="5.7524">
        <ele>526.59997558594</ele>
        <time>2013-04-28T09:23:06.000Z</time>
      </trkpt>
      <trkpt lat="46.57095" lon="5.75241">
        <ele>526.20001220703</ele>
        <time>2013-04-28T09:23:10.000Z</time>
      </trkpt>
      <trkpt lat="46.57083" lon="5.7524">
        <ele>525.59997558594</ele>
        <time>2013-04-28T09:23:14.000Z</time>
      </trkpt>
      <trkpt lat="46.57069" lon="5.75241">
        <ele>526</ele>
        <time>2013-04-28T09:23:19.000Z</time>
      </trkpt>
      <trkpt lat="46.57051" lon="5.75247">
        <ele>526.59997558594</ele>
        <time>2013-04-28T09:23:25.000Z</time>
      </trkpt>
      <trkpt lat="46.57035" lon="5.75251">
        <ele>527.20001220703</ele>
        <time>2013-04-28T09:23:31.000Z</time>
      </trkpt>
      <trkpt lat="46.57018" lon="5.75254">
        <ele>527.59997558594</ele>
        <time>2013-04-28T09:23:37.000Z</time>
      </trkpt>
      <trkpt lat="46.57005" lon="5.75257">
        <ele>528.20001220703</ele>
        <time>2013-04-28T09:23:42.000Z</time>
      </trkpt>
      <trkpt lat="46.56989" lon="5.75258">
        <ele>528</ele>
        <time>2013-04-28T09:23:48.000Z</time>
      </trkpt>
      <trkpt lat="46.56972" lon="5.75257">
        <ele>527.20001220703</ele>
        <time>2013-04-28T09:23:54.000Z</time>
      </trkpt>
      <trkpt lat="46.56958" lon="5.75257">
        <ele>526.79998779297</ele>
        <time>2013-04-28T09:23:59.000Z</time>
      </trkpt>
      <trkpt lat="46.56942" lon="5.75255">
        <ele>526.20001220703</ele>
        <time>2013-04-28T09:24:05.000Z</time>
      </trkpt>
      <trkpt lat="46.56928" lon="5.75254">
        <ele>525.59997558594</ele>
        <time>2013-04-28T09:24:10.000Z</time>
      </trkpt>
      <trkpt lat="46.56913" lon="5.75248">
        <ele>524.79998779297</ele>
        <time>2013-04-28T09:24:16.000Z</time>
      </trkpt>
      <trkpt lat="46.56898" lon="5.7524">
        <ele>524.79998779297</ele>
        <time>2013-04-28T09:24:22.000Z</time>
      </trkpt>
      <trkpt lat="46.56885" lon="5.75236">
        <ele>524.79998779297</ele>
        <time>2013-04-28T09:24:27.000Z</time>
      </trkpt>
      <trkpt lat="46.56867" lon="5.7523">
        <ele>524.79998779297</ele>
        <time>2013-04-28T09:24:34.000Z</time>
      </trkpt>
      <trkpt lat="46.56854" lon="5.75226">
        <ele>524.79998779297</ele>
        <time>2013-04-28T09:24:39.000Z</time>
      </trkpt>
      <trkpt lat="46.56835" lon="5.75222">
        <ele>524.79998779297</ele>
        <time>2013-04-28T09:24:46.000Z</time>
      </trkpt>
      <trkpt lat="46.56814" lon="5.75221">
        <ele>525.20001220703</ele>
        <time>2013-04-28T09:24:53.000Z</time>
      </trkpt>
      <trkpt lat="46.56794" lon="5.75216">
        <ele>525.40002441406</ele>
        <time>2013-04-28T09:25:00.000Z</time>
      </trkpt>
      <trkpt lat="46.56777" lon="5.75214">
        <ele>525.79998779297</ele>
        <time>2013-04-28T09:25:06.000Z</time>
      </trkpt>
      <trkpt lat="46.5676" lon="5.75217">
        <ele>526.20001220703</ele>
        <time>2013-04-28T09:25:12.000Z</time>
      </trkpt>
      <trkpt lat="46.5675" lon="5.7521">
        <ele>526.40002441406</ele>
        <time>2013-04-28T09:25:16.000Z</time>
      </trkpt>
      <trkpt lat="46.56738" lon="5.75208">
        <ele>526.79998779297</ele>
        <time>2013-04-28T09:25:21.000Z</time>
      </trkpt>
      <trkpt lat="46.56726" lon="5.75219">
        <ele>527</ele>
        <time>2013-04-28T09:25:27.000Z</time>
      </trkpt>
      <trkpt lat="46.56709" lon="5.75228">
        <ele>527.20001220703</ele>
        <time>2013-04-28T09:25:34.000Z</time>
      </trkpt>
      <trkpt lat="46.56694" lon="5.75235">
        <ele>527.40002441406</ele>
        <time>2013-04-28T09:25:40.000Z</time>
      </trkpt>
      <trkpt lat="46.56677" lon="5.75245">
        <ele>527.20001220703</ele>
        <time>2013-04-28T09:25:47.000Z</time>
      </trkpt>
      <trkpt lat="46.56663" lon="5.75255">
        <ele>527</ele>
        <time>2013-04-28T09:25:53.000Z</time>
      </trkpt>
      <trkpt lat="46.56646" lon="5.75259">
        <ele>526.40002441406</ele>
        <time>2013-04-28T09:25:59.000Z</time>
      </trkpt>
      <trkpt lat="46.56631" lon="5.75266">
        <ele>526.20001220703</ele>
        <time>2013-04-28T09:26:05.000Z</time>
      </trkpt>
      <trkpt lat="46.56621" lon="5.75283">
        <ele>526.40002441406</ele>
        <time>2013-04-28T09:26:11.000Z</time>
      </trkpt>
      <trkpt lat="46.56618" lon="5.75301">
        <ele>527</ele>
        <time>2013-04-28T09:26:16.000Z</time>
      </trkpt>
      <trkpt lat="46.56616" lon="5.75317">
        <ele>527.40002441406</ele>
        <time>2013-04-28T09:26:20.000Z</time>
      </trkpt>
      <trkpt lat="46.56613" lon="5.75327">
        <ele>527.79998779297</ele>
        <time>2013-04-28T09:26:23.000Z</time>
      </trkpt>
      <trkpt lat="46.56604" lon="5.75346">
        <ele>528.40002441406</ele>
        <time>2013-04-28T09:26:29.000Z</time>
      </trkpt>
      <trkpt lat="46.56592" lon="5.75359">
        <ele>528.79998779297</ele>
        <time>2013-04-28T09:26:35.000Z</time>
      </trkpt>
      <trkpt lat="46.5658" lon="5.75367">
        <ele>528.79998779297</ele>
        <time>2013-04-28T09:26:40.000Z</time>
      </trkpt>
      <trkpt lat="46.56575" lon="5.7537">
        <ele>528.79998779297</ele>
        <time>2013-04-28T09:26:42.000Z</time>
      </trkpt>
      <trkpt lat="46.56569" lon="5.75373">
        <ele>528.79998779297</ele>
        <time>2013-04-28T09:26:44.000Z</time>
      </trkpt>
      <trkpt lat="46.56555" lon="5.75382">
        <ele>528.59997558594</ele>
        <time>2013-04-28T09:26:50.000Z</time>
      </trkpt>
      <trkpt lat="46.5654" lon="5.7539">
        <ele>528.40002441406</ele>
        <time>2013-04-28T09:26:56.000Z</time>
      </trkpt>
      <trkpt lat="46.56521" lon="5.75398">
        <ele>528</ele>
        <time>2013-04-28T09:27:03.000Z</time>
      </trkpt>
      <trkpt lat="46.56505" lon="5.75403">
        <ele>527.40002441406</ele>
        <time>2013-04-28T09:27:09.000Z</time>
      </trkpt>
      <trkpt lat="46.56485" lon="5.7541">
        <ele>528</ele>
        <time>2013-04-28T09:27:16.000Z</time>
      </trkpt>
      <trkpt lat="46.56482" lon="5.75408">
        <ele>528</ele>
        <time>2013-04-28T09:27:17.000Z</time>
      </trkpt>
      <trkpt lat="46.56477" lon="5.75403">
        <ele>527.79998779297</ele>
        <time>2013-04-28T09:27:19.000Z</time>
      </trkpt>
      <trkpt lat="46.56473" lon="5.75392">
        <ele>527.40002441406</ele>
        <time>2013-04-28T09:27:22.000Z</time>
      </trkpt>
      <trkpt lat="46.5647" lon="5.75381">
        <ele>526.79998779297</ele>
        <time>2013-04-28T09:27:25.000Z</time>
      </trkpt>
      <trkpt lat="46.56464" lon="5.75355">
        <ele>525.79998779297</ele>
        <time>2013-04-28T09:27:32.000Z</time>
      </trkpt>
      <trkpt lat="46.56455" lon="5.75338">
        <ele>525.20001220703</ele>
        <time>2013-04-28T09:27:38.000Z</time>
      </trkpt>
      <trkpt lat="46.56447" lon="5.75335">
        <ele>525.20001220703</ele>
        <time>2013-04-28T09:27:41.000Z</time>
      </trkpt>
      <trkpt lat="46.56438" lon="5.75337">
        <ele>525.59997558594</ele>
        <time>2013-04-28T09:27:45.000Z</time>
      </trkpt>
      <trkpt lat="46.56429" lon="5.75342">
        <ele>526</ele>
        <time>2013-04-28T09:27:49.000Z</time>
      </trkpt>
      <trkpt lat="46.56424" lon="5.75343">
        <ele>526.20001220703</ele>
        <time>2013-04-28T09:27:51.000Z</time>
      </trkpt>
      <trkpt lat="46.5641" lon="5.75349">
        <ele>526.79998779297</ele>
        <time>2013-04-28T09:27:56.000Z</time>
      </trkpt>
      <trkpt lat="46.56395" lon="5.75355">
        <ele>527.20001220703</ele>
        <time>2013-04-28T09:28:02.000Z</time>
      </trkpt>
      <trkpt lat="46.5638" lon="5.75359">
        <ele>527.59997558594</ele>
        <time>2013-04-28T09:28:08.000Z</time>
      </trkpt>
      <trkpt lat="46.56367" lon="5.75365">
        <ele>528</ele>
        <time>2013-04-28T09:28:13.000Z</time>
      </trkpt>
      <trkpt lat="46.56356" lon="5.7537">
        <ele>528.40002441406</ele>
        <time>2013-04-28T09:28:17.000Z</time>
      </trkpt>
      <trkpt lat="46.56343" lon="5.75373">
        <ele>528.59997558594</ele>
        <time>2013-04-28T09:28:22.000Z</time>
      </trkpt>
      <trkpt lat="46.56329" lon="5.75377">
        <ele>529</ele>
        <time>2013-04-28T09:28:27.000Z</time>
      </trkpt>
      <trkpt lat="46.56314" lon="5.75388">
        <ele>529.59997558594</ele>
        <time>2013-04-28T09:28:33.000Z</time>
      </trkpt>
      <trkpt lat="46.56305" lon="5.75401">
        <ele>530.20001220703</ele>
        <time>2013-04-28T09:28:38.000Z</time>
      </trkpt>
      <trkpt lat="46.56305" lon="5.75403">
        <ele>530.20001220703</ele>
        <time>2013-04-28T09:28:39.000Z</time>
      </trkpt>
      <trkpt lat="46.56304" lon="5.75412">
        <ele>530.59997558594</ele>
        <time>2013-04-28T09:28:42.000Z</time>
      </trkpt>
      <trkpt lat="46.563" lon="5.75433">
        <ele>531.59997558594</ele>
        <time>2013-04-28T09:28:48.000Z</time>
      </trkpt>
      <trkpt lat="46.56297" lon="5.75443">
        <ele>532</ele>
        <time>2013-04-28T09:28:51.000Z</time>
      </trkpt>
      <trkpt lat="46.56291" lon="5.75445">
        <ele>532</ele>
        <time>2013-04-28T09:28:53.000Z</time>
      </trkpt>
      <trkpt lat="46.56282" lon="5.75441">
        <ele>532</ele>
        <time>2013-04-28T09:28:57.000Z</time>
      </trkpt>
      <trkpt lat="46.56273" lon="5.75438">
        <ele>531.79998779297</ele>
        <time>2013-04-28T09:29:01.000Z</time>
      </trkpt>
      <trkpt lat="46.56264" lon="5.75444">
        <ele>532.20001220703</ele>
        <time>2013-04-28T09:29:05.000Z</time>
      </trkpt>
      <trkpt lat="46.56264" lon="5.75459">
        <ele>532.79998779297</ele>
        <time>2013-04-28T09:29:09.000Z</time>
      </trkpt>
      <trkpt lat="46.56267" lon="5.7548">
        <ele>533.79998779297</ele>
        <time>2013-04-28T09:29:15.000Z</time>
      </trkpt>
      <trkpt lat="46.56272" lon="5.75506">
        <ele>534.79998779297</ele>
        <time>2013-04-28T09:29:22.000Z</time>
      </trkpt>
      <trkpt lat="46.56272" lon="5.7551">
        <ele>534.79998779297</ele>
        <time>2013-04-28T09:29:23.000Z</time>
      </trkpt>
      <trkpt lat="46.56273" lon="5.75541">
        <ele>535.40002441406</ele>
        <time>2013-04-28T09:29:30.000Z</time>
      </trkpt>
      <trkpt lat="46.56273" lon="5.75544">
        <ele>535.59997558594</ele>
        <time>2013-04-28T09:29:31.000Z</time>
      </trkpt>
      <trkpt lat="46.5628" lon="5.75567">
        <ele>535.79998779297</ele>
        <time>2013-04-28T09:29:37.000Z</time>
      </trkpt>
      <trkpt lat="46.56288" lon="5.75588">
        <ele>536.20001220703</ele>
        <time>2013-04-28T09:29:43.000Z</time>
      </trkpt>
      <trkpt lat="46.56299" lon="5.75609">
        <ele>536.59997558594</ele>
        <time>2013-04-28T09:29:49.000Z</time>
      </trkpt>
      <trkpt lat="46.56306" lon="5.75618">
        <ele>536.59997558594</ele>
        <time>2013-04-28T09:29:52.000Z</time>
      </trkpt>
      <trkpt lat="46.56322" lon="5.75622">
        <ele>536.40002441406</ele>
        <time>2013-04-28T09:29:57.000Z</time>
      </trkpt>
      <trkpt lat="46.56333" lon="5.7561">
        <ele>535.79998779297</ele>
        <time>2013-04-28T09:30:01.000Z</time>
      </trkpt>
      <trkpt lat="46.56344" lon="5.75599">
        <ele>535.59997558594</ele>
        <time>2013-04-28T09:30:06.000Z</time>
      </trkpt>
      <trkpt lat="46.56345" lon="5.75598">
        <ele>535.59997558594</ele>
        <time>2013-04-28T09:30:08.000Z</time>
      </trkpt>
    </trkseg>
  </trk>
</gpx>